[[{"header":{"parameterUnit":"m.s-1","parameterCategory":1,"la1":30.6,"la2":29.2853,"lo1":-89.7004,"lo2":-87.6739,"dy":0.0162,"dx":0.0183,"nx":112,"ny":82,"refTime":"2023-03-23T12:00:00:Z","depth":0,"parameterNumber":2,"parameterNumberName":"U-component_of_WINDS"},"data":[0.0,0.0,0.0,0.0,0.0,0.0,0.0,0.0,0.0,0.0,0.0,0.0,0.0,0.0,0.0,0.0,0.0,0.0,0.0,0.0,0.0,0.0,0.0,0.0,0.0,0.0,0.0,0.0,0.0,0.0,0.0,0.0,0.0,0.0,0.0,0.0,0.0,0.0,0.0,0.0,0.0,0.0,0.0,0.0,0.0,0.0,0.0,0.0,0.0,0.0,0.0,0.0,0.0,0.0,0.0,0.0,0.0,0.0,0.0,0.0,0.0,0.0,0.0,0.0,0.0,0.0,0.0,0.0,0.0,0.0,0.0,0.0,0.0,0.0,0.0,0.0,0.0,0.0,0.0,0.0,0.0,0.0,0.0,0.0,0.0,0.0,0.0,0.0,0.0,0.0,5.4297,5.5117,5.9023,6.1607,6.1609,6.1523,5.9269,5.4148,0.0,0.0,0.0,0.0,0.0,0.0,0.0,0.0,0.0,0.0,0.0,0.0,0.0,0.0,0.0,0.0,0.0,0.0,0.0,0.0,0.0,0.0,0.0,0.0,0.0,0.0,0.0,0.0,0.0,0.0,0.0,0.0,0.0,0.0,0.0,0.0,0.0,0.0,0.0,0.0,0.0,0.0,0.0,0.0,0.0,0.0,0.0,0.0,0.0,0.0,0.0,0.0,0.0,0.0,0.0,0.0,0.0,0.0,0.0,0.0,0.0,0.0,0.0,0.0,0.0,0.0,0.0,0.0,0.0,0.0,0.0,0.0,0.0,0.0,0.0,0.0,0.0,0.0,0.0,0.0,0.0,0.0,0.0,0.0,0.0,0.0,0.0,0.0,0.0,0.0,0.0,0.0,0.0,0.0,0.0,0.0,0.0,0.0,0.0,0.0,0.0,0.0,0.0,0.0,5.5664,6.0078,6.1211,6.1678,6.1668,6.1602,5.9386,5.4264,0.0,0.0,0.0,0.0,0.0,0.0,0.0,0.0,0.0,0.0,0.0,0.0,0.0,0.0,0.0,0.0,0.0,0.0,0.0,0.0,0.0,0.0,0.0,0.0,0.0,0.0,0.0,0.0,0.0,0.0,0.0,0.0,0.0,0.0,0.0,0.0,0.0,0.0,0.0,0.0,0.0,0.0,0.0,0.0,0.0,0.0,0.0,0.0,0.0,0.0,0.0,0.0,0.0,0.0,0.0,0.0,0.0,0.0,0.0,0.0,0.0,0.0,0.0,0.0,0.0,0.0,0.0,0.0,0.0,0.0,0.0,0.0,0.0,0.0,0.0,0.0,0.0,0.0,0.0,0.0,0.0,0.0,0.0,0.0,0.0,0.0,0.0,0.0,0.0,0.0,0.0,0.0,0.0,0.0,0.0,0.0,0.0,0.0,0.0,0.0,0.0,0.0,0.0,5.3281,5.5976,6.1133,6.1719,6.1719,6.1719,6.1668,5.9474,5.432,5.3922,0.0,0.0,0.0,0.0,0.0,0.0,0.0,0.0,0.0,0.0,0.0,0.0,0.0,0.0,0.0,0.0,0.0,0.0,0.0,0.0,0.0,0.0,0.0,0.0,0.0,0.0,0.0,0.0,0.0,0.0,0.0,0.0,0.0,0.0,0.0,0.0,0.0,0.0,0.0,0.0,0.0,0.0,0.0,0.0,0.0,0.0,0.0,0.0,0.0,0.0,0.0,0.0,0.0,0.0,0.0,0.0,0.0,0.0,0.0,0.0,0.0,0.0,0.0,0.0,0.0,0.0,0.0,0.0,0.0,0.0,0.0,0.0,0.0,0.0,0.0,0.0,0.0,0.0,0.0,0.0,0.0,0.0,0.0,0.0,0.0,0.0,0.0,0.0,0.0,0.0,0.0,0.0,0.0,0.0,0.0,0.0,0.0,0.0,0.0,0.0,0.0,0.0,5.5078,5.7344,6.1289,6.1719,6.1719,6.1719,6.1719,5.9492,5.4336,5.3983,0.0,0.0,0.0,0.0,0.0,0.0,0.0,0.0,0.0,0.0,0.0,0.0,0.0,0.0,0.0,0.0,0.0,0.0,0.0,0.0,0.0,0.0,0.0,0.0,0.0,0.0,0.0,0.0,0.0,0.0,0.0,0.0,0.0,0.0,0.0,0.0,0.0,0.0,0.0,0.0,0.0,0.0,0.0,0.0,0.0,0.0,0.0,0.0,0.0,0.0,0.0,0.0,0.0,0.0,0.0,0.0,0.0,0.0,0.0,0.0,0.0,0.0,0.0,0.0,0.0,0.0,0.0,0.0,0.0,0.0,0.0,0.0,0.0,0.0,0.0,0.0,0.0,0.0,0.0,0.0,0.0,0.0,0.0,0.0,0.0,0.0,0.0,0.0,0.0,0.0,0.0,0.0,0.0,0.0,0.0,0.0,0.0,0.0,0.0,0.0,0.0,0.0,5.8203,6.1289,6.164,6.1719,6.1719,6.1719,6.1719,5.9492,5.4336,5.3983,0.0,0.0,0.0,0.0,0.0,0.0,0.0,0.0,0.0,0.0,0.0,0.0,0.0,0.0,0.0,0.0,0.0,0.0,0.0,0.0,0.0,0.0,0.0,0.0,0.0,0.0,0.0,0.0,0.0,0.0,0.0,0.0,0.0,0.0,0.0,0.0,0.0,0.0,0.0,0.0,0.0,0.0,0.0,0.0,0.0,0.0,0.0,0.0,0.0,0.0,0.0,0.0,0.0,0.0,0.0,0.0,0.0,0.0,0.0,0.0,0.0,0.0,0.0,0.0,0.0,0.0,0.0,0.0,0.0,0.0,0.0,0.0,0.0,0.0,0.0,0.0,0.0,0.0,0.0,0.0,0.0,0.0,0.0,0.0,0.0,0.0,0.0,0.0,0.0,0.0,0.0,0.0,0.0,0.0,0.0,0.0,0.0,0.0,0.0,0.0,0.0,0.0,5.7101,5.9959,6.1523,6.1719,6.1719,6.1719,6.1719,5.9492,5.4336,0.0,0.0,0.0,0.0,0.0,0.0,0.0,0.0,0.0,0.0,0.0,0.0,0.0,0.0,0.0,0.0,0.0,0.0,0.0,0.0,0.0,0.0,0.0,0.0,0.0,0.0,0.0,0.0,0.0,0.0,0.0,0.0,0.0,0.0,0.0,0.0,0.0,0.0,0.0,0.0,0.0,0.0,0.0,0.0,0.0,0.0,0.0,0.0,0.0,0.0,0.0,0.0,0.0,0.0,0.0,0.0,0.0,0.0,0.0,0.0,0.0,0.0,0.0,0.0,0.0,0.0,0.0,0.0,0.0,0.0,0.0,0.0,0.0,0.0,0.0,0.0,0.0,0.0,0.0,0.0,0.0,0.0,0.0,0.0,0.0,0.0,0.0,0.0,0.0,0.0,0.0,0.0,0.0,0.0,0.0,0.0,0.0,0.0,0.0,0.0,0.0,0.0,5.3782,5.7005,5.9751,6.1518,6.1716,6.1718,6.1719,6.1719,5.9492,5.4336,0.0,0.0,0.0,0.0,0.0,0.0,0.0,0.0,0.0,0.0,0.0,0.0,0.0,0.0,0.0,0.0,0.0,0.0,0.0,0.0,0.0,0.0,0.0,0.0,0.0,0.0,0.0,0.0,0.0,0.0,0.0,0.0,0.0,0.0,0.0,0.0,0.0,0.0,0.0,0.0,0.0,0.0,0.0,0.0,0.0,0.0,0.0,0.0,0.0,0.0,0.0,0.0,0.0,0.0,0.0,0.0,0.0,0.0,0.0,0.0,0.0,0.0,0.0,0.0,0.0,0.0,0.0,0.0,0.0,0.0,0.0,0.0,0.0,0.0,0.0,0.0,0.0,0.0,0.0,0.0,0.0,0.0,0.0,0.0,0.0,0.0,0.0,0.0,0.0,0.0,0.0,0.0,0.0,0.0,0.0,0.0,0.0,0.0,0.0,0.0,0.0,0.0,5.4016,5.8514,6.172,6.172,6.1701,6.1713,6.1718,6.1719,5.9492,0.0,0.0,0.0,0.0,0.0,0.0,0.0,0.0,0.0,0.0,0.0,0.0,0.0,0.0,0.0,0.0,0.0,0.0,0.0,0.0,0.0,0.0,0.0,0.0,0.0,0.0,0.0,0.0,0.0,0.0,0.0,0.0,0.0,0.0,0.0,0.0,0.0,0.0,0.0,0.0,0.0,0.0,0.0,0.0,0.0,0.0,0.0,0.0,0.0,0.0,0.0,0.0,0.0,0.0,0.0,0.0,0.0,0.0,0.0,0.0,0.0,0.0,0.0,0.0,0.0,0.0,0.0,0.0,0.0,0.0,0.0,0.0,0.0,0.0,0.0,0.0,0.0,0.0,0.0,0.0,0.0,0.0,0.0,0.0,0.0,0.0,0.0,0.0,0.0,0.0,0.0,0.0,0.0,0.0,0.0,0.0,0.0,0.0,0.0,0.0,0.0,0.0,0.0,5.3986,5.8514,6.172,6.172,6.1686,6.1694,6.1697,6.1716,5.9492,5.4336,0.0,0.0,0.0,0.0,0.0,0.0,0.0,0.0,0.0,0.0,0.0,0.0,0.0,0.0,0.0,0.0,0.0,0.0,0.0,0.0,0.0,0.0,0.0,0.0,0.0,0.0,0.0,0.0,0.0,0.0,0.0,0.0,0.0,0.0,0.0,0.0,0.0,0.0,0.0,0.0,0.0,0.0,0.0,0.0,0.0,0.0,0.0,0.0,0.0,0.0,0.0,0.0,0.0,0.0,0.0,0.0,0.0,0.0,0.0,0.0,0.0,0.0,0.0,0.0,0.0,0.0,0.0,0.0,0.0,0.0,0.0,0.0,0.0,0.0,0.0,0.0,0.0,0.0,0.0,0.0,0.0,0.0,0.0,0.0,0.0,0.0,0.0,0.0,0.0,0.0,0.0,0.0,0.0,0.0,0.0,0.0,0.0,0.0,0.0,0.0,0.0,0.0,5.3986,5.8519,6.172,6.172,6.172,6.172,6.172,6.1704,5.9957,5.582,0.0,0.0,0.0,0.0,0.0,0.0,0.0,0.0,0.0,0.0,0.0,0.0,0.0,0.0,0.0,0.0,0.0,0.0,0.0,0.0,0.0,0.0,0.0,0.0,0.0,0.0,0.0,0.0,0.0,0.0,0.0,0.0,0.0,0.0,0.0,0.0,0.0,0.0,0.0,0.0,0.0,0.0,0.0,0.0,0.0,0.0,0.0,0.0,0.0,0.0,0.0,0.0,0.0,0.0,0.0,0.0,0.0,0.0,0.0,0.0,0.0,0.0,0.0,0.0,0.0,0.0,0.0,0.0,0.0,0.0,0.0,0.0,0.0,0.0,0.0,0.0,0.0,0.0,0.0,0.0,0.0,0.0,0.0,0.0,0.0,0.0,0.0,0.0,0.0,0.0,0.0,0.0,0.0,0.0,0.0,0.0,0.0,0.0,0.0,0.0,0.0,0.0,5.399,5.8519,6.172,6.172,6.172,6.172,6.172,6.172,6.0604,5.8046,0.0,0.0,0.0,0.0,0.0,0.0,0.0,0.0,0.0,0.0,0.0,0.0,0.0,0.0,0.0,0.0,0.0,0.0,0.0,0.0,0.0,0.0,0.0,0.0,0.0,0.0,0.0,0.0,0.0,0.0,0.0,0.0,0.0,0.0,0.0,0.0,0.0,0.0,0.0,0.0,0.0,0.0,0.0,0.0,0.0,0.0,0.0,0.0,0.0,0.0,0.0,0.0,0.0,0.0,0.0,0.0,0.0,0.0,0.0,0.0,5.2425,4.9583,0.0,0.0,0.0,0.0,0.0,0.0,0.0,0.0,0.0,0.0,0.0,0.0,0.0,0.0,0.0,0.0,0.0,0.0,0.0,0.0,0.0,0.0,0.0,0.0,0.0,0.0,0.0,0.0,0.0,0.0,0.0,0.0,0.0,0.0,0.0,0.0,0.0,0.0,0.0,0.0,5.399,5.8519,6.172,6.172,6.172,6.172,6.172,6.172,6.0597,5.8079,5.7381,0.0,0.0,0.0,0.0,0.0,0.0,0.0,0.0,0.0,0.0,0.0,0.0,0.0,0.0,0.0,0.0,0.0,0.0,0.0,0.0,0.0,0.0,0.0,0.0,0.0,0.0,0.0,0.0,0.0,0.0,0.0,0.0,0.0,0.0,0.0,0.0,0.0,0.0,0.0,0.0,0.0,0.0,0.0,0.0,0.0,0.0,0.0,0.0,0.0,0.0,0.0,0.0,0.0,0.0,0.0,0.0,0.0,0.0,0.0,5.4259,5.2659,0.0,0.0,0.0,0.0,0.0,0.0,0.0,0.0,0.0,0.0,0.0,0.0,0.0,0.0,0.0,0.0,0.0,0.0,0.0,0.0,0.0,0.0,0.0,0.0,0.0,0.0,0.0,0.0,0.0,0.0,0.0,0.0,0.0,0.0,0.0,0.0,0.0,0.0,0.0,0.0,5.399,5.8519,6.172,6.172,6.172,6.172,6.172,6.172,6.1139,5.982,5.859,0.0,0.0,0.0,0.0,0.0,0.0,0.0,0.0,0.0,0.0,0.0,0.0,0.0,0.0,0.0,0.0,0.0,0.0,0.0,0.0,0.0,0.0,0.0,0.0,0.0,0.0,0.0,0.0,0.0,0.0,0.0,0.0,0.0,0.0,0.0,0.0,0.0,0.0,0.0,0.0,0.0,0.0,0.0,0.0,0.0,0.0,0.0,0.0,0.0,0.0,0.0,0.0,0.0,5.5123,5.5313,5.5304,5.5304,5.643,5.8292,5.6196,5.6246,5.746,5.3205,0.0,0.0,0.0,0.0,0.0,0.0,0.0,0.0,0.0,0.0,0.0,0.0,0.0,0.0,0.0,0.0,0.0,0.0,0.0,0.0,0.0,0.0,5.5357,5.5357,5.6957,5.7894,5.5786,0.0,0.0,0.0,0.0,0.0,0.0,0.0,0.0,0.0,0.0,0.0,5.4615,5.8792,6.172,6.172,6.172,6.172,6.172,6.172,6.172,6.172,5.9717,5.8359,0.0,0.0,0.0,0.0,0.0,0.0,0.0,0.0,0.0,0.0,0.0,0.0,0.0,0.0,0.0,0.0,0.0,0.0,0.0,0.0,0.0,0.0,0.0,0.0,0.0,0.0,0.0,0.0,0.0,0.0,0.0,0.0,5.3483,5.3483,0.0,0.0,0.0,0.0,0.0,0.0,0.0,0.0,0.0,0.0,0.0,0.0,0.0,5.3639,5.399,5.6177,5.7309,5.7348,5.9612,6.0639,6.0495,6.0495,6.0604,6.0747,6.0575,0.0,5.7738,5.7074,0.0,0.0,0.0,0.0,0.0,0.0,0.0,0.0,0.0,0.0,0.0,0.0,0.0,0.0,0.0,0.0,0.0,0.0,0.0,0.0,0.0,0.0,6.0666,6.0666,6.0939,6.1095,6.0744,5.7153,5.3912,5.3561,5.3483,5.2663,0.0,0.0,0.0,0.0,0.0,0.0,5.6996,5.9885,6.172,6.172,6.172,6.172,6.172,6.172,6.172,6.172,6.1373,6.022,5.8008,5.7578,0.0,0.0,0.0,0.0,0.0,0.0,0.0,0.0,0.0,0.0,0.0,0.0,0.0,0.0,0.0,0.0,0.0,0.0,0.0,0.0,0.0,0.0,0.0,0.0,0.0,0.0,0.0,0.0,0.0,5.1102,5.1804,5.1804,5.0789,4.954,0.0,0.0,0.0,0.0,0.0,0.0,0.0,0.0,0.0,5.6059,5.6138,5.684,5.8324,5.9346,5.9872,5.9911,6.0915,6.1412,6.1316,6.1316,6.1292,6.1186,6.1292,6.0728,5.9611,5.8337,5.6489,5.4303,0.0,0.0,0.0,0.0,5.2273,5.2663,5.524,5.6138,5.5942,5.481,0.0,0.0,0.0,0.0,0.0,0.0,0.0,5.4576,5.7153,5.8636,5.9885,6.1369,6.172,6.172,6.172,5.9924,5.7894,5.6411,5.4966,5.3171,5.0555,5.1269,0.0,0.0,0.0,5.6446,5.7656,6.008,6.172,6.172,6.172,6.172,6.172,6.172,6.172,6.172,6.172,6.119,6.0078,5.8672,5.6836,0.0,0.0,0.0,0.0,0.0,0.0,0.0,0.0,0.0,0.0,0.0,0.0,0.0,0.0,0.0,0.0,0.0,0.0,0.0,0.0,0.0,0.0,0.0,0.0,0.0,0.0,0.0,0.0,5.1258,5.1843,5.118,5.1687,5.1063,0.0,0.0,0.0,0.0,0.0,0.0,5.4927,5.4966,5.6138,5.8714,5.8792,5.9724,6.1621,6.1564,6.1481,6.1412,6.1279,6.1172,6.1167,6.1167,6.1151,6.1103,6.1151,6.1167,6.1026,5.9347,5.8325,5.7562,5.5645,5.4523,5.4068,5.4732,5.4966,5.5357,5.7894,5.8792,5.8675,5.8011,5.7348,5.6606,5.5357,0.0,0.0,0.0,0.0,5.5552,5.8128,5.8792,5.93,6.1252,6.1671,6.166,6.166,6.1095,6.023,5.9,5.7211,5.5098,5.2484,5.3572,0.0,5.2342,5.5237,5.7914,5.8709,6.051,6.172,6.172,6.172,6.172,6.172,6.1686,6.169,6.1697,6.1697,6.1707,6.1719,5.9883,5.8555,5.789,0.0,0.0,0.0,0.0,0.0,0.0,0.0,0.0,0.0,0.0,0.0,0.0,0.0,0.0,0.0,0.0,0.0,0.0,0.0,0.0,0.0,0.0,0.0,0.0,0.0,0.0,0.0,0.0,0.0,5.4108,5.5942,0.0,0.0,0.0,0.0,5.3795,5.3912,5.5044,5.7465,5.7621,5.8792,6.1408,6.1486,6.1498,6.15,6.149,6.1401,6.12,6.1186,6.1151,6.102,6.102,6.0943,6.0827,6.0963,6.102,6.1,6.1026,5.9682,5.7594,5.7468,5.6003,5.4303,5.6723,5.7621,5.7972,6.0588,6.1486,6.1095,5.8597,5.6177,5.4615,5.6918,5.5903,0.0,0.0,5.7621,5.8207,6.0822,6.1486,6.1525,6.1681,6.1595,6.15,6.15,5.946,5.835,6.0818,6.1227,6.0282,5.7672,0.0,5.7424,5.7417,5.7621,5.867,6.1174,6.1603,6.172,6.172,6.172,6.172,6.172,6.1697,6.1713,6.1718,6.1718,6.1718,6.1719,6.1562,6.0351,5.7969,5.7773,0.0,0.0,0.0,0.0,0.0,0.0,0.0,0.0,0.0,0.0,0.0,0.0,0.0,0.0,0.0,0.0,0.0,0.0,0.0,0.0,0.0,0.0,0.0,0.0,0.0,0.0,0.0,0.0,5.4303,5.6255,0.0,5.4264,5.5474,5.645,5.645,5.8011,5.9339,6.0276,6.0315,6.0744,6.1681,6.1602,6.1564,6.149,6.1291,6.112,6.107,6.0983,6.0923,6.0877,6.0877,6.0872,6.0781,6.0834,6.0923,6.1002,6.1036,6.0681,6.0126,6.0184,5.9709,5.9065,5.9963,6.0315,6.0432,6.1369,6.172,6.1564,6.0627,5.969,5.9104,6.0041,5.969,5.9143,6.0041,6.0315,6.05,6.1354,6.158,6.158,6.158,6.1432,6.139,6.1588,6.0672,6.0151,6.1136,6.0038,5.8676,5.7779,5.8888,5.9359,5.777,5.8868,6.0293,6.1409,6.158,6.1595,6.1676,6.172,6.172,6.172,6.1686,6.1704,6.1718,6.1719,6.1719,6.1719,6.1719,6.1289,6.0351,6.0351,5.8242,0.0,0.0,0.0,0.0,0.0,0.0,0.0,0.0,0.0,0.0,0.0,0.0,0.0,0.0,0.0,0.0,0.0,0.0,0.0,0.0,0.0,0.0,0.0,0.0,0.0,5.5083,5.684,5.4303,5.7026,5.808,5.5513,5.7573,5.9095,5.9104,6.0705,6.172,6.172,6.166,6.1609,6.1609,6.149,6.1379,6.1331,6.1126,6.0964,6.0923,6.0811,6.0781,6.0781,6.0781,6.0781,6.0781,6.0781,6.0834,6.0943,6.0964,6.1142,6.1355,6.1534,6.1666,6.172,6.172,6.172,6.172,6.172,6.172,6.172,6.172,6.172,6.1676,6.1654,6.1609,6.1609,6.1541,6.1534,6.1517,6.1422,6.1401,6.1401,6.1401,6.1266,6.1211,6.1422,6.1253,6.107,6.1136,5.9865,5.8752,5.8752,6.0085,6.0274,5.7793,5.9491,6.0841,6.0211,6.0926,6.1517,6.1609,6.1671,6.172,6.172,6.09,6.076,6.1639,6.0898,6.0781,6.164,6.0859,6.043,6.043,6.043,5.8711,5.5312,0.0,0.0,0.0,0.0,0.0,0.0,0.0,0.0,0.0,0.0,0.0,0.0,0.0,0.0,0.0,0.0,0.0,0.0,0.0,0.0,0.0,0.0,0.0,5.445,5.6289,5.6996,5.4533,5.8571,6.0633,5.8163,6.0132,6.1609,6.1715,6.172,6.172,6.1676,6.158,6.149,6.149,6.1292,6.1151,6.1002,6.0983,6.0923,6.0781,6.0781,6.0781,6.0781,6.0781,6.0781,6.0781,6.0781,6.0781,6.0804,6.0963,6.1002,6.1039,6.1355,6.158,6.1676,6.1676,6.1676,6.1676,6.1676,6.1676,6.1676,6.1676,6.1676,6.1666,6.1517,6.149,6.1461,6.1266,6.1186,6.1186,6.1186,6.1186,6.1186,6.1186,6.1087,6.0983,6.1002,6.092,6.085,6.0964,6.1002,6.0983,6.1002,6.1002,6.0205,5.7871,5.9593,0.0,5.782,5.9833,6.1451,6.1373,6.1485,6.1564,6.1564,5.9261,5.8918,6.1511,5.9374,5.914,6.1601,5.9336,5.8008,5.8008,5.793,5.789,5.789,0.0,0.0,0.0,0.0,0.0,0.0,0.0,0.0,0.0,0.0,0.0,0.0,0.0,0.0,0.0,0.0,0.0,0.0,0.0,0.0,0.0,5.5511,5.7494,5.6761,5.8874,6.02,5.9537,6.073,6.1329,6.0633,6.1231,6.1671,6.172,6.172,6.166,6.1573,6.1509,6.1412,6.1292,6.1136,6.1057,6.1002,6.0882,6.085,6.0781,6.0781,6.0781,6.0781,6.0781,6.0781,6.0781,6.0781,6.0834,6.0963,6.0983,6.1053,6.1128,6.1253,6.1304,6.134,6.134,6.1432,6.1564,6.1564,6.1564,6.1517,6.1362,6.134,6.1328,6.1292,6.1292,6.1279,6.12,6.1186,6.1158,6.107,6.1036,6.1036,6.1036,6.0963,6.0902,6.1103,6.0945,6.085,6.0964,6.0923,6.0899,6.0964,6.1002,6.0732,5.9996,6.0478,6.0693,6.0106,6.0769,6.0616,5.8861,5.8793,5.887,5.887,5.8241,5.8987,6.1538,6.1051,6.0976,6.168,6.1015,6.0664,6.0664,5.8828,5.789,0.0,0.0,0.0,0.0,0.0,0.0,0.0,0.0,0.0,0.0,0.0,0.0,0.0,0.0,0.0,0.0,0.0,0.0,0.0,0.0,0.0,0.0,5.7352,5.9063,5.9022,6.0483,6.15,6.1556,6.1564,6.1588,6.1654,6.166,6.1666,6.172,6.166,6.158,6.149,6.1355,6.1225,6.1136,6.0983,6.0902,6.0902,6.085,6.0781,6.0781,6.0781,6.0781,6.0781,6.0781,6.0781,6.0781,6.0781,6.0834,6.0902,6.0902,6.0945,6.1036,0.0,0.0,0.0,0.0,6.1279,6.1379,6.1379,6.1379,6.1367,6.1253,6.1186,6.1172,6.1151,6.112,6.1103,6.1036,6.1018,6.102,6.0943,6.0902,6.0902,6.0902,6.0856,6.0834,6.1002,6.0902,6.0827,6.0882,6.0834,0.0,6.0882,6.0902,6.0513,5.938,6.0127,6.0442,5.9436,6.036,6.0599,5.9254,5.9248,5.9352,5.9417,5.848,0.0,0.0,0.0,6.0116,6.0117,6.0117,0.0,0.0,0.0,5.8437,5.9492,5.7969,0.0,0.0,5.6328,5.5781,0.0,0.0,0.0,0.0,0.0,0.0,0.0,0.0,0.0,0.0,0.0,0.0,0.0,0.0,0.0,0.0,5.9283,6.0945,6.0902,6.1221,6.1461,6.1517,6.149,6.15,6.1609,6.1588,6.1588,6.1615,6.1517,6.1461,6.145,6.1174,0.0,0.0,0.0,6.0781,6.0781,6.0781,6.0781,6.0781,6.0781,6.0781,6.0781,6.0781,6.0781,6.0781,6.0781,6.0781,6.0781,6.0781,6.0781,6.0827,6.1053,6.1143,6.1182,6.1158,6.1158,6.1158,6.1158,0.0,0.0,6.1143,6.1143,6.1151,6.102,6.0964,6.0963,6.085,6.0781,6.0781,6.0781,6.0781,6.0781,6.0781,6.0781,6.0781,6.0781,6.0781,6.0781,6.0781,6.0781,6.0781,6.0781,6.0781,6.0012,5.778,5.9358,5.9973,5.7703,5.9533,6.0941,6.0755,6.095,0.0,6.1236,5.9139,5.8909,6.1525,5.9595,5.8318,5.832,5.832,5.832,5.832,5.832,5.9453,6.1719,6.1719,6.1719,6.1601,5.6992,5.6094,0.0,0.0,0.0,0.0,0.0,0.0,0.0,0.0,0.0,0.0,0.0,0.0,0.0,0.0,0.0,5.6862,5.9181,6.0902,6.0882,6.0983,6.102,6.1113,6.1197,6.1259,6.1221,6.1211,6.1214,6.1227,6.12,6.1143,6.1109,6.1039,6.0963,6.0811,6.0804,6.0781,6.0781,6.0781,6.0781,6.0781,6.0781,0.0,6.0781,6.0781,6.0781,6.0781,6.0781,6.0781,6.0781,6.0781,6.0781,6.0804,6.0856,6.0877,6.0899,6.1002,6.1057,6.1057,6.1057,6.1057,6.1039,6.0902,6.0877,6.0877,6.0872,6.085,0.0,6.0804,6.0781,6.0781,6.0781,6.0781,6.0781,6.0781,6.0781,6.0781,6.0781,6.0781,6.0781,6.0781,6.0781,6.0781,6.0781,6.0781,6.0627,6.0127,6.0473,6.0627,6.0127,6.0594,6.0228,5.8196,5.8195,5.8373,5.839,5.8025,5.8909,6.1525,6.1243,6.0976,6.0976,6.0976,6.0976,6.0976,6.0976,6.1211,6.1719,6.1719,6.1719,6.168,6.0664,6.0469,0.0,0.0,0.0,0.0,0.0,0.0,0.0,0.0,0.0,0.0,0.0,5.3283,5.4585,0.0,5.7196,5.8437,5.9753,6.0647,6.0647,6.0671,6.075,6.0983,6.1077,6.1092,6.1031,6.1128,6.1172,6.1128,6.1151,6.1126,6.1002,6.0943,6.0877,6.0781,6.0781,6.0781,6.0781,6.0781,6.0781,6.0781,6.0781,6.0781,6.0781,6.0781,6.0781,6.0781,6.0781,6.0781,6.0781,6.0781,6.0781,6.0781,6.0781,6.0781,6.0804,6.0877,6.0882,6.0882,6.0882,6.0882,6.0899,6.0827,6.0781,6.0781,6.0781,6.0781,6.0781,6.0781,6.0781,6.0781,6.0781,6.0781,6.0781,6.0781,6.0781,6.0781,6.0781,6.0781,6.0781,6.0781,6.0781,6.0781,6.0781,6.0781,6.0781,6.0781,6.0781,6.0781,6.0781,6.0856,6.046,5.9224,5.9279,5.9433,5.9533,5.9658,6.0319,6.1619,6.1715,6.1719,6.1719,6.1719,6.1719,6.1719,6.1719,6.1719,6.1719,6.1719,6.1719,6.1719,6.1719,6.1719,0.0,0.0,0.0,0.0,0.0,0.0,0.0,5.0926,5.127,5.3833,5.4369,5.4981,5.7047,5.743,5.8054,6.0092,6.0408,6.0408,6.0408,6.0464,6.0572,6.0843,6.0905,6.0906,6.0904,6.1065,6.1136,6.1031,6.1074,6.1059,6.0983,6.0856,6.0781,6.0781,6.0781,6.0781,6.0781,6.0781,6.0757,6.0757,6.0757,6.0757,6.0757,6.0757,6.0757,6.0757,6.0757,6.0781,6.0781,6.0781,6.0781,6.0781,6.0781,6.0781,6.0781,6.0781,6.0781,6.0781,6.0781,6.0781,6.0781,6.0781,6.0781,6.0781,6.0781,6.0781,6.0781,6.0781,6.0781,6.0781,6.0781,6.0781,6.0781,6.0781,6.0781,6.0781,6.0781,6.0781,6.0781,6.0781,6.0781,6.0781,6.0781,6.0781,6.0781,6.0781,6.0781,6.0781,6.0781,6.0781,6.085,6.0963,6.1087,6.1253,6.1481,6.1609,6.169,6.1704,6.1716,6.1719,6.1719,6.1719,6.1719,6.1719,6.1719,6.1719,6.1719,6.1719,6.1719,6.1719,6.1719,6.1719,4.6915,4.7491,4.9991,5.1982,5.2432,5.3593,0.0,5.7416,5.6499,5.906,5.9557,5.9671,5.9939,6.0015,6.0092,6.0332,6.0408,6.0408,6.0408,6.0436,6.0398,6.048,6.0585,6.066,6.0622,6.0647,6.0695,6.0742,6.0742,6.0781,6.0827,6.0804,6.0781,6.0781,6.0781,6.0781,6.0781,6.0734,6.071,6.071,6.0635,6.061,6.061,6.0685,6.066,6.0649,6.0685,6.0734,6.0781,6.0781,6.0781,6.0781,6.0781,6.0781,6.0781,6.0781,6.0781,6.0781,6.0781,6.0781,6.0781,6.0781,6.0781,6.0781,6.0781,6.0781,6.0781,6.0781,6.0781,6.0781,6.0781,6.0781,6.0781,6.0781,6.0781,6.0781,6.0781,6.0781,6.0781,6.0781,6.0781,6.0781,6.0781,6.0781,6.0781,6.0781,6.0781,6.0781,6.0781,6.0781,6.0804,6.0827,6.0943,6.1136,6.1471,6.1609,6.1681,6.1686,6.1713,6.1719,6.1719,6.1719,6.1719,6.1719,6.1719,6.1719,6.1719,6.1719,6.1719,6.1719,6.1719,6.1719,5.2291,5.1705,5.1944,5.4518,5.5121,5.5607,5.7748,5.7404,5.7366,5.9873,6.0408,6.0408,6.0408,6.0408,6.0408,6.0408,6.0408,6.0408,6.0408,6.0408,6.0408,6.0408,6.0464,6.0518,6.0571,6.066,6.0695,6.071,6.0757,6.0742,6.0734,6.0685,6.066,6.066,6.066,6.066,6.066,6.0685,6.0685,6.0685,6.071,6.071,6.071,6.0734,6.0734,6.071,6.0734,6.0757,6.0781,6.0781,6.0781,6.0781,6.0781,6.0781,6.0781,6.0781,6.0781,6.0781,6.0781,6.0781,6.0781,6.0781,6.0781,6.0781,6.0781,6.0781,6.0781,6.0781,6.0781,6.0781,6.0781,6.0781,6.0781,6.0781,6.0781,6.0781,6.0781,6.0781,6.0781,6.0781,6.0781,6.0781,6.0781,6.0781,6.0781,6.0781,6.0781,6.0781,6.0781,6.0781,6.0827,6.0902,6.0983,6.1158,6.1471,6.1564,6.1602,6.1715,6.1707,6.1717,6.1719,6.1719,6.1719,6.1719,6.1719,6.1719,6.1719,6.1719,6.1719,6.1719,6.1719,6.1719,5.4012,5.3828,5.3513,5.6127,5.7226,5.7736,5.7736,5.7736,5.8245,6.0054,6.0408,6.0408,6.0408,6.0408,6.0408,6.0408,6.0408,6.0408,6.0408,6.0408,6.0408,6.0408,6.0436,6.0464,6.0518,6.0622,6.0719,6.071,6.0719,6.0719,6.071,6.0635,6.061,6.0635,6.0674,6.0635,6.061,6.0635,6.066,6.0635,6.066,6.0685,6.0685,6.0685,6.071,6.0734,6.071,6.071,6.0734,6.0757,6.0757,6.0757,6.0781,6.0781,6.0781,6.0781,6.0781,6.0781,6.0781,6.0781,6.0781,6.0781,6.0781,6.0781,6.0781,6.0781,6.0781,6.0781,6.0781,6.0781,6.0781,6.0781,6.0781,6.0781,6.0781,6.0781,6.0781,6.0781,6.0781,6.0781,6.0781,6.0781,6.0781,6.0781,6.0781,6.0781,6.0781,6.0781,6.0781,6.0781,6.085,6.0943,6.0964,6.1109,6.1343,6.1461,6.1526,6.1637,6.1694,6.1711,6.1719,6.1719,6.1719,6.1719,6.1719,6.1719,6.1719,6.1719,6.1719,6.1719,6.1719,6.1719,4.8736,5.1146,5.3513,5.6078,5.8513,6.0293,6.0293,6.0293,6.0293,6.037,6.0408,6.0408,6.0408,6.0408,6.0408,6.0408,6.0408,6.0408,6.0408,6.0408,6.0408,6.0408,6.0464,6.0518,6.048,6.0518,6.0559,6.0685,6.0635,6.061,6.0685,6.0685,6.071,6.0781,6.0781,6.0757,6.0685,6.061,6.0559,6.0518,6.0425,6.0436,6.0436,6.0436,6.0453,6.0585,6.0571,6.0571,6.0585,6.066,6.071,6.071,6.0757,6.0781,6.0781,6.0781,6.0781,6.0781,6.0781,6.0781,6.0781,6.0781,6.0781,6.0781,6.0781,6.0781,6.0781,6.0781,6.0781,6.0781,6.0781,6.0781,6.0781,6.0781,6.0781,6.0781,6.0781,6.0781,6.0781,6.0781,6.0781,6.0781,6.0781,6.0781,6.0781,6.0781,6.0781,6.0781,6.0781,6.0781,6.0781,6.0804,6.0923,6.1002,6.102,6.1318,6.1487,6.152,6.1642,6.1701,6.1719,6.1719,6.1719,6.1719,6.1719,6.1719,6.1719,6.1719,6.1719,6.1719,6.1719,6.1719,5.0926,5.3427,5.5963,5.8525,5.9786,6.0408,6.0408,6.0408,6.0408,6.0408,5.9071,5.7886,5.7886,5.7886,5.7886,5.7886,5.93,6.0408,6.0408,6.0408,6.0408,6.0408,6.0436,6.0491,6.0571,6.0597,6.0585,6.0685,6.0635,6.0585,6.061,6.0585,6.0533,6.0533,6.0533,6.0506,6.048,6.0506,6.0506,6.048,6.0506,6.0506,6.0506,6.0506,6.0571,6.0623,6.0597,6.0559,6.0585,6.061,6.061,6.061,6.0635,6.066,6.066,6.066,6.066,6.066,6.0757,6.0781,6.0781,6.0734,6.0734,6.0734,6.0734,6.0734,6.0734,6.0781,6.0781,6.0781,6.0781,6.0781,6.0781,6.0734,6.0572,6.043,6.0283,6.0141,5.9985,5.9885,5.9885,5.9885,5.9885,5.9954,6.0112,6.0403,6.0685,6.0781,6.0781,6.0781,6.0781,6.0781,6.085,6.0882,6.0983,6.1109,6.1253,6.1487,6.1543,6.1616,6.1713,6.1718,6.1719,6.1719,6.1719,6.1719,6.1719,6.1719,6.1719,6.1719,6.1719,6.1719,5.3225,5.5326,5.7199,5.9759,6.0408,6.0408,6.0408,6.0408,6.0408,6.0408,5.8345,5.6587,5.6587,5.6587,5.6282,5.5403,5.739,5.9033,5.9033,5.9033,5.9376,6.0293,6.0408,6.0425,6.0533,6.0533,6.0585,6.0685,6.0635,6.0585,6.0585,6.0533,6.0545,6.0453,6.0453,6.0491,6.0464,6.0491,6.0518,6.0453,6.0518,6.0545,6.0545,6.0545,6.0545,6.0545,6.0545,6.0545,6.0506,6.0533,6.0533,6.0597,6.0559,6.061,6.061,6.061,6.0635,6.066,6.0748,6.071,6.071,6.071,6.0685,6.071,6.071,6.0734,6.0734,6.0781,6.0781,6.0781,6.0781,6.0671,6.0533,6.0482,6.0227,5.9954,5.9792,5.963,5.9496,5.9389,5.9389,5.9389,5.9462,5.9701,5.9962,6.0265,6.0572,6.0781,6.0781,6.0781,6.0781,6.0781,6.0781,6.085,6.0923,6.0964,6.1087,6.1379,6.1478,6.1573,6.1709,6.1717,6.1719,6.1719,6.1719,6.1719,6.1719,6.1719,6.1719,6.1719,6.1719,6.1719,5.5314,5.6702,5.7351,5.9797,6.0408,6.0408,6.0408,6.0408,6.037,6.0217,5.8154,5.6358,5.6243,5.632,5.5594,5.3187,5.5059,5.6778,5.6778,5.6778,5.7695,6.0102,6.037,6.0398,6.0518,6.0518,6.0533,6.0685,6.0635,6.0623,6.0623,6.0585,6.0585,6.0559,6.0559,6.0533,6.0518,6.048,6.0453,6.0408,6.0408,6.0408,6.0408,6.0408,6.0408,6.0408,6.0408,6.0408,6.037,6.0491,6.048,6.048,6.0533,6.061,6.0685,6.0685,6.071,6.0757,6.061,6.0623,6.0649,6.066,6.0685,6.071,6.0757,6.0781,6.0781,6.0757,6.0757,6.0757,6.0734,6.0391,6.0074,6.0074,5.9728,5.9354,5.9354,5.9354,5.9319,5.9319,5.9319,5.9392,5.9534,5.9962,6.0265,6.0265,6.0572,6.0781,6.0781,6.0781,6.0781,6.0781,6.0781,6.0781,6.0781,6.0902,6.1074,6.1172,6.1361,6.1568,6.1668,6.1717,6.1719,6.1719,6.1719,6.1719,6.1719,6.1719,6.1719,6.1719,6.1719,6.1719,5.6243,5.8001,5.9568,6.0217,6.0408,6.0408,6.0408,6.0408,5.9835,5.7963,5.5517,5.3187,5.1353,5.2499,5.3569,5.2919,5.6511,5.9415,5.9415,5.9415,5.9682,6.0293,0.0,6.048,6.0597,6.0559,6.0585,6.0685,6.0635,6.0597,6.0545,6.0545,6.048,6.0425,6.0464,6.0425,6.0436,6.0436,6.0436,6.0408,6.0408,6.0408,6.0408,6.0408,6.0408,6.0408,6.0408,6.0408,6.0408,6.0436,6.0436,6.0436,6.0425,6.0453,6.0453,6.0453,6.048,6.048,6.0453,6.0533,6.066,6.0635,6.0649,6.061,6.0585,6.0635,6.066,6.0283,6.0255,6.0189,5.9855,5.9658,5.9559,5.953,5.925,5.8989,5.8833,5.8669,5.8498,5.8412,5.8455,5.854,5.8702,5.9287,5.9798,5.9899,6.0441,6.0781,6.0781,6.0781,6.0781,6.0781,6.0781,6.0781,6.0781,6.085,6.0902,6.1018,6.1226,6.1417,6.1529,6.1637,6.1719,6.1719,6.1719,6.1719,6.1719,6.1719,6.1719,6.1719,6.1719,6.1719,5.7963,5.93,6.0408,6.0408,6.0408,6.0102,5.8994,5.8727,5.8001,5.5441,5.2919,5.0741,4.9366,5.1123,5.2422,5.1353,5.5441,5.8727,5.8727,5.8727,5.9175,6.0311,6.0425,6.0326,6.0086,5.9984,5.9984,6.0035,6.0393,6.0559,6.048,6.048,6.0491,6.0408,6.0408,6.0408,6.0408,6.0408,6.0408,6.0408,6.0408,6.0408,6.0408,6.0408,6.0408,6.0408,6.0408,6.0408,6.0408,6.0408,6.0408,6.0408,6.0408,6.0436,6.0425,6.0425,6.0453,6.0518,6.0518,6.0533,6.0585,6.0559,6.0453,6.0304,6.0265,6.0199,6.0074,5.9792,5.976,5.976,5.9458,5.9248,5.9103,5.9103,5.887,5.854,5.8455,5.8312,5.8133,5.8042,5.8133,5.8305,5.8393,5.8949,5.9499,5.9739,6.0237,6.0622,6.0781,6.0781,6.0781,6.0781,6.0781,6.0781,6.0781,6.0781,6.0856,6.0983,6.112,6.1262,6.1481,6.1553,6.164,6.1719,6.1719,6.1719,6.1719,6.1719,6.1719,6.1719,6.1719,6.1719,5.9824,6.0408,6.0408,6.0408,6.0408,5.972,5.716,5.6587,5.5785,5.2881,5.0588,4.8984,4.864,5.0627,5.1697,4.9901,5.3531,5.6702,5.7046,5.7084,5.7951,6.0223,6.0425,6.0147,5.9371,5.923,5.914,5.9025,5.9805,6.0303,6.048,6.0518,6.0425,6.0313,6.0313,6.0285,6.0256,6.0285,6.0313,6.0313,6.037,6.0408,6.0408,6.0408,6.0408,6.0408,6.0408,6.0408,6.0408,6.0408,6.0408,6.0408,6.0408,6.0464,6.0518,6.0518,6.0506,6.0559,6.0559,6.048,6.0398,6.0425,6.0179,5.9899,5.9893,5.9663,5.9389,5.9319,5.9284,5.9319,5.9248,5.8951,5.8673,5.8791,5.8535,5.8215,5.8215,5.8179,5.8133,5.8042,5.8179,5.8393,5.8393,5.8828,5.9325,5.9744,6.0091,6.0403,6.0757,6.0781,6.0781,6.0781,6.0781,6.0781,6.0781,6.0781,6.0834,6.0983,6.0983,6.1128,6.1424,6.149,6.1557,6.168,6.168,6.1719,6.1719,6.1719,6.1719,6.1719,6.1719,6.1719,6.0255,6.0408,6.0408,6.0408,6.0408,5.972,5.716,5.6587,5.5288,5.0665,4.9404,4.8449,4.6347,4.8028,5.0245,5.1888,5.4639,5.7313,5.9415,5.972,5.9911,6.036,6.0464,6.0173,5.9319,5.9204,5.891,5.8259,5.8284,5.8945,6.036,6.0436,6.0285,5.9906,5.9906,5.9739,5.9432,5.9744,5.9906,5.9906,6.0256,6.0408,6.0408,6.0408,6.0408,6.0408,6.0408,6.0408,6.0408,6.0408,6.0408,6.0408,6.0408,6.0436,6.0436,6.0436,6.0398,6.0425,6.0425,6.0188,5.9937,6.0,5.9931,5.9836,5.943,5.9357,5.9284,5.8872,5.8872,5.8872,5.8498,5.8406,5.8443,5.8356,5.8268,5.8133,5.8042,5.8042,5.8042,5.7997,5.8133,5.826,5.8393,5.8825,5.9252,5.9744,6.0091,6.0403,6.0757,6.0781,6.0781,6.0781,6.0781,6.0781,6.0781,6.0781,6.0804,6.085,6.0943,6.1003,6.1059,6.1354,6.1509,6.1523,6.164,6.1719,6.1719,6.1719,6.1719,6.1719,6.1719,6.1719,6.0408,6.0408,6.0408,6.0408,6.0408,5.9376,5.5517,5.46,5.3187,4.8143,4.7111,4.6729,4.5507,4.7379,4.948,5.0665,5.4104,5.7008,5.823,5.9568,6.0436,6.0464,6.0464,6.0147,5.9293,5.8807,5.836,5.7978,5.7493,5.7772,5.9033,5.9491,5.9731,5.9772,5.9809,5.9605,5.9215,5.9397,5.9502,5.9502,5.9673,5.9874,6.0099,6.0099,6.0188,6.0408,6.0408,6.0408,6.0408,6.0408,6.0408,6.0408,6.0408,6.0408,6.0408,6.0408,6.0285,6.0099,6.0099,5.9842,5.9467,5.9287,5.9214,5.9178,5.8988,5.8793,5.8632,5.8455,5.8455,5.8492,5.8268,5.826,5.8305,5.8215,5.8179,5.8179,5.8088,5.8042,5.7997,5.7997,5.8088,5.826,5.8393,5.8614,5.8947,5.9432,5.9804,6.0179,6.0494,6.071,6.0781,6.0781,6.0781,6.0781,6.0781,6.0781,6.0781,6.0781,6.0856,6.092,6.0997,6.1181,6.1334,6.1377,6.1559,6.164,6.164,6.168,6.1719,6.1719,6.1719,6.1719,6.0255,6.0408,6.0408,6.0408,6.0408,5.9071,5.3951,5.2805,5.1353,4.6347,4.5277,4.5277,4.5277,4.692,4.8449,4.8984,5.2422,5.5339,5.6317,5.8279,5.9759,6.0293,6.037,6.0092,5.9267,5.847,5.7919,5.7537,5.6643,5.6577,5.7728,5.8377,5.8889,5.9269,5.9273,5.9173,5.8949,5.9026,5.914,5.9215,5.9289,5.9537,5.9937,5.9937,6.0099,6.0408,6.0408,6.0408,6.0408,6.0408,6.0408,6.0408,6.0408,6.0342,6.0285,6.0285,6.0038,5.9673,5.9673,5.9432,5.9026,5.871,5.8586,5.8586,5.8503,5.8238,5.7997,5.8133,5.8215,5.8179,5.8179,5.8215,5.826,5.8215,5.8179,5.8133,5.8133,5.8088,5.7997,5.7997,5.8088,5.826,5.8393,5.8529,5.8788,5.9252,5.9673,6.003,6.0349,6.0622,6.0781,6.0781,6.0781,6.0781,6.0781,6.0781,6.0781,6.0781,6.0781,6.0834,6.0963,6.1036,6.1155,6.1245,6.1459,6.159,6.1601,6.164,6.168,6.1719,6.1719,6.1719,5.9759,6.0408,6.0408,6.0408,6.0408,5.9071,5.3951,5.2805,5.1353,4.6347,4.5277,4.5277,4.5277,4.5468,4.6385,4.8716,0.0,5.1255,5.5473,5.6577,5.7662,5.964,6.0159,6.0064,5.9185,5.8699,5.7863,5.6383,5.5195,5.5319,5.7256,5.7446,5.7503,5.7633,5.7593,5.7761,5.8097,5.8498,5.8831,5.9215,5.9571,5.9937,6.0342,6.0342,6.0342,6.0408,6.0408,6.0408,6.0408,6.0408,6.0408,6.0408,6.0408,6.0159,5.9874,5.9874,5.9605,5.9252,5.9252,5.8988,5.8669,5.8628,5.8586,5.8503,5.8186,5.8042,5.7997,5.7997,5.8088,5.8179,5.8179,5.8305,5.8349,5.826,5.8088,5.7997,5.7997,5.7997,5.7997,5.7997,5.8088,5.826,5.8393,5.8743,5.9178,5.9673,6.0061,6.0376,6.071,6.0781,6.0781,6.0781,6.0781,6.0781,6.0781,6.0781,6.0781,6.0781,6.0781,6.0804,6.0827,6.0988,6.1113,6.1138,6.1346,6.1495,6.1601,6.1601,6.164,6.1719,6.1719,6.1719,5.972,6.0408,6.0408,6.0408,5.9262,5.716,5.3607,5.162,4.9557,4.6042,4.5277,4.5277,4.5277,4.5277,4.5579,4.6397,0.0,0.0,5.1043,5.4004,5.6311,5.7163,5.8698,5.9559,5.9185,5.8521,5.7661,5.6568,5.6018,5.5801,5.5842,5.6052,5.6361,5.6657,5.7138,5.7376,5.7262,5.7921,5.8455,5.8831,5.8989,5.9325,5.9673,5.9937,6.0068,6.0068,6.0285,6.0408,6.0408,6.0408,6.0256,6.0068,6.0068,5.9809,5.9432,5.9432,5.9178,5.8831,5.8831,5.8545,5.8275,5.8275,5.8275,5.8231,5.8042,5.7997,5.7997,5.8088,5.8133,5.8179,5.8179,5.8179,5.8133,5.8088,5.8088,5.8088,5.8088,5.8179,5.826,5.826,5.8305,5.8349,5.8443,5.8825,5.9178,5.9397,5.9931,6.0349,6.0494,6.0685,6.0781,6.0781,6.0781,6.0781,6.0781,6.0781,6.0781,6.0781,6.0781,6.0781,6.0781,6.0927,6.0993,6.1057,6.1196,6.1336,6.1417,6.1463,6.1509,6.1509,6.1509,6.1509,5.8574,5.9835,6.0408,6.0408,5.8459,5.5938,5.3378,5.0856,4.8372,4.5812,4.5277,4.5256,4.5154,4.5132,4.5065,4.4726,4.6176,4.7531,4.7965,5.1142,5.3654,5.4303,5.5948,5.7336,5.8051,5.7903,5.7454,5.6779,5.6518,5.6029,5.5118,5.5396,5.5584,5.5677,5.6232,5.662,5.6822,5.7373,5.7973,5.8586,5.8586,5.8831,5.9215,5.9502,5.9605,5.9639,5.9906,6.0068,6.0068,6.0068,5.9874,5.9605,5.9605,5.9397,5.9026,5.9026,5.8791,5.8412,5.8412,5.8231,5.7997,5.7997,5.7997,5.7997,5.7997,5.7997,5.7997,5.8088,5.8133,5.8133,5.8133,5.8088,5.8042,5.8042,5.8133,5.826,5.826,5.8349,5.8393,5.8393,5.8437,5.8443,5.8529,5.8828,5.9178,5.9361,5.9899,6.0321,6.0441,6.0622,6.0781,6.0781,6.1012,6.1089,6.0819,6.0781,6.0781,6.0781,6.0781,6.0781,6.0781,6.0888,6.0933,6.0976,6.1079,6.1176,6.1273,6.1327,6.1394,6.1394,6.1394,6.1394,5.5938,5.8459,6.0408,6.0408,5.8459,5.5938,5.3378,5.0856,4.8372,4.5812,4.5277,4.5213,4.4887,4.48,4.4726,4.4438,4.4421,4.5169,4.7326,4.7991,4.9084,5.1188,5.1757,5.2924,5.5416,5.6705,5.7233,5.683,5.6051,5.5618,5.5574,5.5618,5.5207,5.4436,5.4436,5.517,5.6785,5.6822,5.7376,5.8586,5.8586,5.8831,5.9215,5.9215,5.9215,5.9215,5.9215,5.9215,5.9215,5.9215,5.9215,5.9215,5.9215,5.8988,5.8586,5.8586,5.8369,5.7997,5.7997,5.7997,5.7997,5.7997,5.7997,5.7997,5.7997,5.7997,5.7997,5.7997,5.7997,5.7997,5.7997,5.8088,5.8215,5.8215,5.8305,5.8393,5.8393,5.8393,5.8393,5.8393,5.8443,5.8492,5.8492,5.8908,5.9325,5.9706,6.0091,6.0403,6.0757,6.0781,6.0781,6.0781,6.155,6.1743,6.0858,6.0781,6.0781,6.0781,6.0781,6.0781,6.0781,6.0888,6.0911,6.0911,6.098,6.106,6.1195,6.1273,6.135,6.1407,6.1407,6.1407,5.3301,5.46,5.5212,5.5212,5.3301,5.1238,5.0436,4.8296,4.6189,4.5194,4.4957,4.4887,4.4572,4.4519,4.4438,4.4162,4.414,4.4278,4.4731,4.7793,5.0231,5.0892,5.4001,5.6413,5.7149,5.7574,5.7773,5.7629,5.7373,5.7005,5.6455,5.6418,5.6051,5.5244,5.5757,5.6271,5.6822,5.7336,5.7929,5.8586,5.8586,5.8669,5.8791,5.9103,5.9065,5.8831,5.9103,5.9215,5.9215,5.9215,5.9065,5.8791,5.8791,5.8545,5.8186,5.8186,5.8097,5.7997,5.7997,5.7997,5.7997,5.7997,5.7997,5.7997,5.7997,5.7997,5.7997,5.7997,5.7997,5.7997,5.8088,5.8133,5.8223,5.8305,5.84,5.8486,5.8486,5.8529,5.8609,5.8609,5.8614,5.8656,5.8656,5.8947,5.9252,5.9361,5.9899,6.0321,6.043,6.1184,6.1666,6.1666,6.2435,6.2589,6.1743,6.2204,6.2512,6.2512,6.2512,6.2512,6.2512,6.1997,6.1713,6.172,6.1246,6.1021,6.106,6.1138,6.1157,6.1195,6.1195,6.1234,0.0,5.2079,5.2805,5.2805,5.0932,4.9075,4.8943,4.6938,4.5004,4.4701,4.465,4.4572,4.4308,4.425,4.4162,4.386,4.3795,4.4063,4.4781,4.7498,4.9774,5.0692,5.4252,5.6638,5.6638,5.7483,5.7997,5.7997,5.7997,5.7776,5.7299,5.7262,5.7005,5.6528,5.6381,5.6492,5.6822,5.7299,5.7802,5.8369,5.8369,5.8369,5.8369,5.8628,5.8586,5.8369,5.8628,5.875,0.0,5.875,5.8586,5.8369,5.8369,5.8231,5.7997,5.7997,5.7997,5.7997,5.7997,5.7997,5.7997,5.7997,5.7997,5.7997,5.7997,5.7997,5.7997,5.7997,5.8042,5.8088,5.8179,5.8268,5.8312,5.84,5.8486,5.8572,5.8572,5.8656,5.8698,5.8698,5.8698,5.8698,5.8698,5.8865,5.9026,5.9178,5.9966,6.0637,6.0752,6.1825,6.2551,6.2551,6.332,6.3589,6.3089,6.3205,6.332,6.332,6.332,6.332,6.332,6.282,6.2536,6.256,6.1819,6.1422,6.1425,6.1235,6.1118,6.1118,6.1118,6.1157,0.0,5.0512,5.227,5.2245,5.0488,4.8724,4.8377,0.0,0.0,4.4411,4.4355,4.4308,4.4017,4.3955,4.386,4.3566,4.3497,4.4342,4.6764,4.7425,4.8489,5.0802,5.3188,5.4583,5.4436,5.6565,5.7997,5.7997,5.7997,5.7997,5.7997,5.7997,5.7997,5.7997,5.6528,5.6124,5.6895,5.6895,5.7262,5.7997,5.7997,5.7997,5.7997,5.7997,5.7997,5.7997,5.7997,5.7997,5.7997,5.7997,5.7997,5.7997,5.7997,5.7997,5.7997,5.7997,5.7997,5.7997,5.7997,5.7997,5.7997,5.7997,5.7997,5.7997,5.8042,5.7997,5.7997,5.7997,5.8088,5.8215,5.8223,5.8356,5.8492,5.8492,5.8614,5.8698,5.8698,5.8698,5.8698,5.8698,5.8698,5.8698,5.8698,5.8698,5.8821,5.9178,6.0254,6.1115,6.1497,6.2643,6.3397,6.3397,6.4166,6.4705,6.4705,6.3935,6.3474,6.3474,6.3474,6.3474,6.3474,6.3435,6.3397,6.3397,6.2521,6.2128,6.2193,6.1447,6.1118,6.1118,6.1118,6.1118,4.5703,0.0,4.6991,4.673,4.6225,4.5735,0.0,0.0,0.0,0.0,0.0,4.4017,4.3664,4.3634,4.36,4.3532,4.3497,4.4342,4.6764,5.0325,5.2894,5.3482,5.5684,5.6418,5.4583,5.6565,5.7997,5.7997,5.7997,5.7997,5.7997,5.7997,5.7997,5.7997,5.7629,5.7519,5.7703,5.7703,5.7813,5.7997,5.7997,5.7997,5.7997,5.7997,5.7997,5.7997,5.7997,5.7997,5.7997,5.7997,5.7997,5.7997,5.7997,5.7997,5.7997,5.7997,5.7997,5.7997,5.7997,5.7997,5.7997,5.8088,5.8133,5.8179,5.8305,5.8223,5.8133,5.8133,5.826,5.8393,5.8443,5.8449,5.8529,5.8614,5.8656,5.8698,5.8698,5.8698,5.8698,5.8698,5.8698,5.8698,5.8698,5.8698,5.8962,5.964,6.0453,6.1278,6.195,6.335,6.4282,6.4282,6.5051,6.559,6.559,6.5397,6.5282,6.5282,6.5282,6.5282,6.5282,6.4666,6.4282,6.4282,6.2829,6.215,6.2256,6.1427,6.1041,6.1118,6.1118,6.1118,4.465,4.4838,4.4981,4.4676,4.4624,4.4546,0.0,0.0,0.0,0.0,0.0,4.3734,4.3532,4.4415,4.4782,4.3681,4.5369,4.7315,4.8636,5.1096,5.3151,5.4252,5.5537,5.6271,5.6051,5.7226,5.7997,5.7997,5.7997,5.7997,5.7997,5.7997,5.7997,5.7997,5.7997,5.7997,5.7997,5.7997,5.7997,5.7997,5.7997,5.7997,5.7997,5.7997,5.7997,5.7997,5.7997,5.7997,5.7997,5.7997,5.7997,5.7997,5.7997,5.7997,5.7997,5.7997,5.7997,5.7997,5.8088,5.8088,5.8088,5.8215,5.8179,5.826,5.8349,5.8393,5.8312,5.8305,5.8393,5.8443,5.8486,5.8572,5.8614,5.8656,5.8698,5.8698,5.8698,5.8698,5.8698,5.8698,5.8995,5.9255,5.9255,5.9589,5.9998,6.0444,6.1278,6.21,6.2728,6.4046,6.4972,6.518,6.5628,6.5897,6.5897,6.5897,6.5897,6.5897,6.5897,6.5897,6.5897,6.5436,6.5013,6.4628,6.3715,6.313,6.2811,6.1986,6.164,6.1621,6.1254,6.1118,4.474,4.5057,4.524,4.4533,4.4327,4.4279,0.0,0.0,0.0,0.0,0.0,0.0,4.3975,4.5443,4.5993,4.4305,4.7865,5.0949,5.1316,5.1683,5.2527,5.4216,5.473,5.5611,5.7299,5.7776,5.7997,5.7997,5.7997,5.7997,5.7997,5.7997,5.7997,5.7997,5.7997,5.7997,5.7997,5.7997,5.7997,5.7997,5.7997,5.7997,5.7997,5.7997,5.7997,5.7997,5.7997,5.7997,5.7997,5.7997,5.7997,5.7997,5.7997,5.7997,5.7997,5.7997,5.7997,5.7997,5.8133,5.8179,5.826,5.8223,5.8223,5.8268,5.8393,5.8486,5.8529,5.848,5.8486,5.8492,5.8492,5.8614,5.8698,5.8698,5.8698,5.8735,5.8884,5.8884,5.8921,5.9069,5.9627,6.011,6.011,6.0704,6.1261,6.1373,6.2238,6.3088,6.3603,6.4654,6.5456,6.5872,6.5897,6.5897,6.5897,6.5897,6.5897,6.5897,6.5897,6.5897,6.5897,6.5897,6.5551,6.482,6.4715,6.4316,6.3608,6.2832,6.2488,6.247,6.166,6.1311,4.6158,4.7099,4.7504,4.4749,4.4079,4.3986,0.0,0.0,0.0,0.0,0.0,0.0,0.0,4.5186,4.4599,4.6287,4.8967,5.1499,5.3555,5.5611,5.6271,5.4583,5.6198,5.6785,5.5097,5.6785,5.7997,5.7997,5.7997,5.7997,5.7997,5.7997,5.7997,5.7997,5.7997,5.7997,5.7997,5.7997,5.7997,5.7997,5.7997,5.7997,5.7997,5.7997,5.7997,5.7997,5.7997,5.7997,5.7997,5.7997,5.7997,5.7997,5.7997,5.7997,5.7997,5.7997,5.7997,5.7997,5.8133,5.8305,5.8393,5.8443,5.8449,5.8486,5.8614,5.8656,5.8656,5.8656,5.8656,5.8656,5.8656,5.8656,5.8698,5.8698,5.8698,5.8884,5.9589,5.9738,5.9924,6.0667,6.0927,6.1001,6.1001,6.1113,6.1447,6.2116,6.2612,6.3276,6.4398,6.4965,6.5456,6.5872,6.5897,6.5897,6.5897,6.5897,6.5897,6.5897,6.5897,6.5897,6.5897,6.5897,6.582,6.5705,6.4974,6.4576,6.4494,6.3669,6.3312,6.3397,6.2509,6.2162,4.6168,4.6687,4.7203,4.7056,4.7351,4.7647,0.0,0.0,0.0,0.0,0.0,0.0,0.0,4.7278,4.8673,5.238,5.1756,5.1646,5.4069,5.4216,5.4179,5.4363,5.539,5.6124,5.6345,5.7336,5.7997,5.7997,5.7997,5.7997,5.7997,5.84,5.8657,5.8657,5.9061,5.9318,5.9318,5.9318,5.8841,5.7997,5.7997,5.7997,5.7997,5.7997,5.7997,5.7997,5.7997,5.7997,5.7997,5.7997,5.7997,5.7997,5.7997,5.8042,5.8088,5.8215,5.8223,5.8268,5.8305,5.8356,5.8443,5.8486,5.8492,5.8529,5.8656,5.8698,5.8809,5.9255,5.9032,5.8698,5.8698,5.9032,5.9367,5.9367,5.9701,6.0147,6.0518,6.0593,6.0741,6.1113,6.1558,6.1906,6.2085,6.25,6.2949,6.3322,6.3488,6.3878,6.4626,6.4837,6.5199,6.5808,6.5897,6.5897,6.5897,6.5897,6.5897,6.5897,6.5897,6.5897,6.5897,6.5897,6.5897,6.5897,6.5513,6.5345,6.537,6.4508,6.4155,6.4243,6.3376,6.3051,4.6471,4.6764,4.7498,4.9407,0.0,0.0,0.0,0.0,0.0,0.0,0.0,0.0,4.7976,4.9517,5.2013,5.5721,5.3702,5.2491,5.4913,5.3665,5.3188,5.5023,5.5244,5.5978,5.7813,5.7997,5.7997,5.7997,5.7997,5.807,5.8253,5.8877,5.9318,5.9501,6.0089,6.0419,6.0419,6.0419,5.9795,5.8547,5.8547,5.8547,5.8547,5.8547,5.8547,5.8547,5.8364,5.829,5.8253,5.807,5.7997,5.7997,5.7997,5.8088,5.8215,5.8349,5.8443,5.8529,5.8443,5.8486,5.8572,5.8572,5.8683,5.8831,5.8953,5.9144,5.9404,6.0035,5.9775,5.9292,5.9292,5.9738,6.0221,6.0221,6.0704,6.1261,6.1447,6.1484,6.1558,6.1744,6.2264,6.2724,6.3031,6.3678,6.4209,6.4209,6.4251,6.4445,6.4803,6.4837,6.5105,6.5808,6.5897,6.5897,6.5897,6.5897,6.5897,6.5897,6.5897,6.5897,6.5897,6.5897,6.5897,6.5897,6.5897,6.5897,6.5897,6.5293,6.5033,6.5064,6.4282,6.392,4.8122,4.926,5.0508,5.0655,4.8453,0.0,0.0,0.0,0.0,0.0,0.0,0.0,0.0,5.0692,5.0912,5.1279,5.2894,5.4987,5.7409,5.7593,5.7556,5.7703,5.774,5.7813,5.796,5.7997,5.7997,5.7997,5.7997,5.8327,5.9098,5.9171,5.9538,6.0309,6.0382,6.0419,6.0419,6.0419,6.0346,6.0236,6.0236,6.0236,6.0236,6.0236,6.0236,6.0199,5.9465,5.9134,5.9061,5.8327,5.7997,5.7997,5.7997,5.8088,5.8215,5.8349,5.8443,5.8492,5.8492,5.8572,5.8698,5.8698,5.9218,5.9812,5.9812,6.0407,6.1038,6.1113,6.1076,6.1038,6.1038,6.1076,6.1113,6.1113,6.115,6.141,6.2153,6.2301,6.2524,6.3305,6.349,6.3527,6.3572,6.3883,6.4209,6.4209,6.4483,6.4803,6.5207,6.5268,6.5427,6.5872,6.5897,6.5897,6.5897,6.5897,6.5897,6.5897,6.5897,6.5897,6.5897,6.5897,6.5897,6.5897,6.5897,6.5897,6.5897,6.582,6.587,6.5905,6.5103,6.4745,4.8306,4.9884,5.1536,5.1536,0.0,0.0,0.0,0.0,0.0,0.0,5.3298,0.0,0.0,5.3261,5.4803,5.3298,5.506,5.6969,5.785,5.7997,5.7997,5.7997,5.7997,5.7997,5.7997,5.7997,5.7997,5.7997,5.8474,5.8877,5.9208,6.0162,6.0823,6.1153,6.163,6.1887,6.1887,6.1887,6.1887,6.1887,6.0896,6.0419,6.0419,6.0419,6.0419,6.0382,6.0089,5.9942,5.9905,5.9098,5.8814,5.8833,5.8452,5.8356,5.84,5.8529,5.8572,5.8614,5.8614,5.899,5.9478,5.9478,6.0035,6.0704,6.0704,6.0964,6.1298,6.1819,6.1967,6.1819,6.1336,6.1558,6.1967,6.1967,6.2339,6.2784,6.3082,6.3156,6.3267,6.3565,6.3602,6.3691,6.3958,6.4291,6.452,6.452,6.4841,6.5105,6.5268,6.5299,6.5456,6.5872,6.5897,6.5897,6.5897,6.5897,6.5897,6.5897,6.5897,6.5897,6.5897,6.5897,6.5897,6.5897,6.5897,6.5897,6.5897,6.5947,6.5996,6.5967,6.5727,6.5638,4.9481,5.0692,5.216,0.0,0.0,0.0,0.0,0.0,0.0,5.5904,5.5904,5.5244,5.2784,5.5023,5.6602,5.4693,5.6418,5.7997,5.7997,5.7997,5.7997,5.7997,5.7997,5.7997,5.7997,5.7997,5.8107,5.8364,5.8914,5.9428,5.9942,6.1006,6.1704,6.1961,6.2511,6.2805,6.2805,6.2805,6.2805,6.2805,6.1704,6.1153,6.1153,6.1153,6.1153,6.1153,6.0896,6.0786,6.0713,5.9905,5.9475,5.9366,5.9035,5.8751,5.8529,5.8656,5.8884,5.9107,5.9107,5.9627,6.0333,6.0333,6.089,6.1596,6.1596,6.1781,6.2079,6.2636,6.2784,6.2673,6.2116,6.2376,6.2784,6.2784,6.3193,6.3602,6.3602,6.3602,6.3602,6.3602,6.3602,6.3691,6.3963,6.4407,6.4699,6.4699,6.5137,6.5485,6.5485,6.5485,6.5608,6.5872,6.5897,6.5897,6.5897,6.5897,6.5897,6.5897,6.5897,6.5897,6.5897,6.5897,6.5897,6.5897,6.5897,6.5923,6.5923,6.5972,6.5982,6.6013,6.608,6.6123,5.194,5.1977,5.2601,0.0,0.0,0.0,5.8107,5.6748,5.5794,6.0603,5.9061,5.6565,5.5757,5.5611,5.5354,5.4546,5.6455,5.7997,5.7997,5.7997,5.7997,5.7997,5.7997,5.7997,5.7997,5.7997,5.8327,5.9171,5.9208,5.9942,6.152,6.1594,6.1998,6.2768,6.2805,6.2805,6.2805,6.2805,6.2805,6.2805,6.2805,6.2805,6.2805,6.2805,6.2805,6.2768,6.1961,6.1594,6.1557,6.075,6.0037,5.9439,5.9701,5.9307,5.8529,5.8693,5.9255,5.9924,5.9924,6.0481,6.1224,6.1224,6.1781,6.2413,6.2413,6.297,6.3602,6.3602,6.3602,6.3602,6.3602,6.3602,6.3602,6.3602,6.3602,6.3602,6.3602,6.3602,6.3602,6.3602,6.3602,6.3602,6.3602,6.4214,6.4699,6.4699,6.5359,6.5897,6.5897,6.5897,6.5897,6.5897,6.5897,6.5897,6.5897,6.5897,6.5897,6.5897,6.5897,6.5897,6.5897,6.5897,6.5897,6.5897,6.5897,6.5947,6.5996,6.5996,6.6005,6.6013,6.608,6.6102,4.9407,5.1903,0.0,5.3298,0.0,0.0,0.0,5.8474,0.0,0.0,5.9501,5.7409,5.6602,5.7813,5.8143,5.5647,5.7262,5.8657,5.807,5.7997,5.7997,5.7997,5.7997,5.7997,5.7997,5.851,5.8951,5.9208,6.0272,6.108,6.1557,6.2144,6.2548,6.2805,6.2805,6.2805,6.2805,6.2805,6.2805,6.2805,6.2805,6.2805,6.2805,6.2805,6.2805,6.2805,6.2548,6.2438,6.2401,6.1787,6.1117,6.0552,6.0685,6.0624,6.0401,6.0444,6.063,6.0815,6.0815,6.1373,6.2041,6.2041,6.2599,6.3267,6.3267,6.3416,6.3602,6.3602,6.3602,6.3602,6.3602,6.3602,6.3602,6.3602,6.3602,6.3602,6.3602,6.3602,6.3602,6.3602,6.3602,6.3602,6.3602,6.4214,6.4699,6.4699,6.5359,6.5897,6.5897,6.5897,6.5897,6.5897,6.5897,6.5897,6.5897,6.5897,6.5897,6.5897,6.5897,6.5897,6.5897,6.5947,6.5972,6.5972,6.5982,6.5967,6.599,6.6074,6.6058,6.608,6.6123,6.6165,5.2123,5.4069,0.0,5.6161,5.7776,5.9465,6.0419,0.0,0.0,0.0,6.0933,5.9648,5.8877,5.9905,6.0126,5.785,5.8731,5.9391,5.8584,5.8474,5.8364,5.8033,5.7997,5.7997,5.7997,5.8731,5.9355,5.9648,6.086,6.1741,6.2071,6.2548,6.2805,6.2805,6.2805,6.2805,6.2805,6.2805,6.2805,6.2805,6.2805,6.2805,6.2805,6.2805,6.2805,6.2805,6.2855,6.2855,6.2867,6.263,6.2105,6.1493,6.1626,6.1484,6.1187,6.1187,6.141,6.167,6.167,6.219,6.2896,6.2896,6.3193,6.3602,6.3602,6.3602,6.3602,6.3602,6.3602,6.3602,6.3602,6.3602,6.3602,6.3602,6.3602,6.3602,6.3602,6.3602,6.3602,6.3602,6.3602,6.3602,6.3602,6.4214,6.4699,6.4699,6.5359,6.5897,6.5897,6.5897,6.5897,6.5897,6.5897,6.5897,6.5897,6.5897,6.5897,6.5897,6.5923,6.5947,6.5947,6.5972,6.602,6.6005,6.599,6.6013,6.6036,6.608,6.6102,6.6144,6.6165,6.6185,5.7373,5.7262,5.6969,6.1374,6.1006,6.0126,6.2328,6.2805,6.2805,6.2805,6.2805,6.2585,6.1851,6.1704,6.1447,6.0639,6.0529,6.0236,5.9428,5.9318,5.9061,5.8327,5.8217,5.8217,5.8217,5.8951,5.9722,6.0456,6.1263,6.2034,6.2768,6.2805,6.2805,6.2805,6.2805,6.2805,6.2805,6.2805,6.2805,6.2805,6.2805,6.2805,6.2805,6.2805,6.2805,6.2805,6.2953,6.3002,6.3051,6.3289,6.2974,6.2353,6.248,6.2079,6.141,6.141,6.1893,6.2524,6.2524,6.3007,6.3602,6.3602,6.3602,6.3602,6.3602,6.3602,6.3602,6.3602,6.3602,6.3602,6.3602,6.3602,6.3602,6.3602,6.3602,6.3602,6.3602,6.3602,6.3602,6.3602,6.3602,6.3602,6.3647,6.4214,6.4734,6.4803,6.5456,6.5897,6.5897,6.5897,6.5897,6.5897,6.5897,6.5897,6.5897,6.5897,6.5897,6.5897,6.5972,6.602,6.602,6.602,6.6005,6.6013,6.6013,6.6058,6.6102,6.6102,6.6144,6.6185,6.6185,6.6185,5.3261,5.5941,5.8694,5.9722,6.1006,6.2181,6.2695,6.2805,6.2805,6.2805,6.2805,6.2768,6.2585,6.2548,6.2291,6.1484,6.1337,6.1043,6.0272,6.0162,6.0089,5.9905,5.9869,5.9869,5.9869,6.0603,6.1153,6.1337,6.2108,6.2622,6.2805,6.2805,6.2805,6.2805,6.2805,6.2805,6.2805,6.2805,6.2805,6.2805,6.2805,6.2805,6.2805,6.2805,6.2855,6.2953,6.3002,6.3099,6.3289,6.3382,6.3354,6.3297,6.3342,6.3267,6.3082,6.3082,6.3193,6.3342,6.3342,6.3453,6.3602,6.3602,6.3602,6.3602,6.3602,6.3602,6.3602,6.3602,6.3602,6.3602,6.3602,6.3602,6.3602,6.3602,6.3602,6.3602,6.3602,6.3602,6.3602,6.3602,6.3602,6.3691,6.4004,6.4407,6.4904,6.5542,6.5781,6.5897,6.5897,6.5897,6.5897,6.5897,6.5897,6.5897,6.5897,6.5897,6.5923,6.5972,6.5996,6.6005,6.6097,6.6058,6.6058,6.608,6.6123,6.6165,6.6165,6.6165,6.6165,6.6185,6.6185,6.6185,5.4509,5.6455,5.8033,6.0382,6.1887,6.2805,6.2805,6.2805,6.2805,6.2805,6.2805,6.2805,6.2805,6.2805,6.2658,6.2254,6.2181,6.1887,6.108,6.097,6.0823,6.0456,6.0419,6.0419,6.0419,6.1117,6.1594,6.1594,6.2365,6.2805,6.2805,6.2805,6.2805,6.2805,6.2805,6.2805,6.2805,6.2805,6.2805,6.2805,6.2805,6.2805,6.2904,6.2904,6.2953,6.3002,6.3147,6.3242,6.3382,6.3465,6.3557,6.3602,6.3602,6.3602,6.3602,6.3602,6.3602,6.3602,6.3602,6.3602,6.3602,6.3602,6.3602,6.3602,6.3602,6.3602,6.3602,6.3602,6.3602,6.3602,6.3602,6.3602,6.3602,6.3602,6.3602,6.3602,6.3602,6.3602,6.3602,6.3602,6.3602,6.3736,6.4128,6.463,6.5168,6.5808,6.5897,6.5897,6.5897,6.5897,6.5897,6.5897,6.5897,6.5897,6.5897,6.5897,6.5923,6.5996,6.5982,6.6052,6.6102,6.6123,6.6144,6.6144,6.6165,6.6185,6.6185,6.6185,6.6185,6.6185,6.6185,6.6185,5.6308,5.7116,5.7262,6.1704,6.2805,6.2805,6.2805,6.2805,6.2805,6.2805,6.2805,6.2805,6.2805,6.2805,6.2805,6.2805,6.2805,6.2585,6.1887,6.1814,6.1557,6.0896,6.0823,6.0823,6.0823,6.141,6.1814,6.1814,6.2438,6.2805,6.2805,6.2805,6.2805,6.2805,6.2805,6.2805,6.2805,6.2805,6.2805,6.2805,6.2805,6.2855,6.3002,6.3002,6.3051,6.3099,6.3289,6.3382,6.3428,6.3557,6.3602,6.3602,6.3602,6.3602,6.3602,6.3602,6.3602,6.3602,6.3602,6.3602,6.3602,6.3602,6.3602,6.3602,6.3602,6.3602,6.3602,6.3602,6.3602,6.3602,6.3602,6.3602,6.3602,6.3602,6.3602,6.3602,6.3602,6.3647,6.3736,6.3736,6.383,6.4004,6.433,6.4942,6.5513,6.5872,6.5897,6.5897,6.5897,6.5897,6.5897,6.5897,6.5897,6.5897,6.5897,6.5897,6.5947,6.602,6.599,6.6036,6.6102,6.6165,6.6185,6.6185,6.6185,6.6185,6.6185,6.6185,6.6185,6.6185,6.6185,6.6185,5.2711,5.5794,5.9391,6.2144,6.2805,6.2805,6.2805,6.2805,6.2805,6.2805,6.2805,6.2805,6.2805,6.2805,6.2805,6.2805,6.2805,6.2768,6.2658,6.2658,6.2622,6.2511,6.2475,6.2475,6.2475,6.2585,6.2658,6.2658,6.2768,6.2805,6.2805,6.2805,6.2805,6.2805,6.2805,6.2805,6.2805,6.2805,6.2805,6.2805,6.2805,6.2855,6.3002,6.3099,6.3242,6.3336,6.3382,6.3465,6.3557,6.3602,6.3602,6.3602,6.3602,6.3602,6.3602,6.3602,6.3602,6.3602,6.3602,6.3602,6.3602,6.3602,6.3602,6.3602,6.3602,6.3602,6.3602,6.3602,6.3602,6.3602,6.3602,6.3602,6.3602,6.3602,6.3602,6.3602,6.3602,6.3873,6.4128,6.4128,6.463,6.5073,6.5144,6.5513,6.5846,6.5897,6.5897,6.5897,6.5897,6.5897,6.5897,6.5897,6.5897,6.5897,6.5897,6.5897,6.5909,6.599,6.6013,6.6058,6.6165,6.6185,6.6185,6.6185,6.6185,6.6185,6.6185,6.6185,6.6185,6.6185,6.6185,6.6185,5.3261,5.6565,5.9795,6.2218,6.2805,6.2805,6.2805,6.2805,6.2805,6.2805,6.2805,6.2805,6.2805,6.2805,6.2805,6.2805,6.2805,6.2805,6.2805,6.2805,6.2805,6.2805,6.2805,6.2805,6.2805,6.2805,6.2805,6.2805,6.2805,6.2805,6.2805,6.2805,6.2805,6.2805,6.2805,6.2805,6.2805,6.2805,6.2805,6.2805,6.2805,6.2904,6.3099,6.3147,6.3242,6.3382,6.3511,6.3557,6.3602,6.3602,6.3602,6.3602,6.3602,6.3602,6.3602,6.3602,6.3602,6.3602,6.3602,6.3602,6.3602,6.3602,6.3602,6.3602,6.3602,6.3602,6.3602,6.3602,6.3936,6.427,6.427,6.4642,6.5013,6.5013,6.5013,6.5013,6.5013,6.455,6.4251,6.4445,6.5323,6.6025,6.6025,6.6748,6.7321,6.7321,6.7321,6.7321,6.7321,6.6859,6.6551,6.6551,6.6167,6.6115,6.6563,6.6602,6.6868,6.7486,6.7486,6.757,6.7655,6.7655,6.7655,6.7655,6.6688,6.6456,6.692,6.692,6.7191,6.7655,6.7655,6.7655,5.3518,5.6014,5.8107,6.1153,6.1887,6.2071,6.2658,6.2805,6.2805,6.2805,6.2805,6.2805,6.2805,6.2805,6.2805,6.2805,6.2805,6.2805,6.2805,6.2805,6.2805,6.2805,6.2805,6.2805,6.2805,6.2805,6.2805,6.2805,6.2805,6.2805,6.2805,6.2805,6.2805,6.2805,6.2805,6.2805,6.2805,6.2805,6.2805,6.2805,6.2805,6.2953,6.3194,6.3279,6.3289,6.3465,6.3557,6.3602,6.3602,6.3602,6.3602,6.3602,6.3602,6.3602,6.3602,6.3602,6.3602,6.3602,6.3602,6.3602,6.3602,6.3602,6.3602,6.3602,6.3602,6.375,6.3899,6.3899,6.4493,6.5125,6.5125,6.5608,6.6091,6.6091,6.6091,6.6138,6.6336,6.5628,6.5087,6.5551,6.6414,6.7063,6.7063,6.7801,6.8398,6.8398,6.8398,6.8398,6.8398,6.7821,6.7436,6.7436,6.6898,6.6808,6.746,6.7537,6.788,6.8651,6.869,6.8712,6.8816,6.8816,6.8816,6.8816,6.7539,6.7191,6.7849,6.7849,6.8158,6.8816,6.8816,6.8816,5.1463,5.227,5.3482,5.8217,5.9391,6.0015,6.2291,6.2805,6.2805,6.2805,6.2805,6.2805,6.2805,6.2805,6.2805,6.2805,6.2805,6.2805,6.2805,6.2805,6.2805,6.2805,6.2805,6.2805,6.2805,6.2805,6.2805,6.2805,6.2805,6.2805,6.2805,6.2805,6.2805,6.2805,6.2805,6.2805,6.2805,6.2805,6.2805,6.2805,6.2953,6.3051,6.3194,6.3336,6.3465,6.3602,6.3602,6.3602,6.3602,6.3602,6.3602,6.3602,6.3602,6.3602,6.3602,6.3602,6.3602,6.3602,6.3602,6.3602,6.3602,6.3602,6.3602,6.3602,6.3602,6.4159,6.4753,6.4753,6.5385,6.6054,6.6054,6.6091,6.6091,6.6091,6.6091,6.6284,6.7013,6.7126,6.7265,6.8042,6.8256,6.8294,6.8294,6.8333,6.8398,6.8398,6.8398,6.8398,6.8398,6.8359,6.8321,6.8321,6.8282,6.8309,6.8423,6.8423,6.8535,6.869,6.869,6.8712,6.8816,6.8816,6.8816,6.8816,6.87,6.87,6.8738,6.8738,6.8777,6.8816,6.8816,6.8816,5.1316,5.1977,5.2784,5.6051,5.807,5.9428,6.0309,6.1704,6.2805,6.2805,6.2805,6.2805,6.2805,6.2805,6.2805,6.2805,6.2805,6.2805,6.2805,6.2805,6.2805,6.2805,6.2805,6.2805,6.2805,6.2805,6.2805,6.2805,6.2805,6.2805,6.2805,6.2805,6.2805,6.2805,6.2805,6.2805,6.2805,6.2805,6.2805,6.2805,6.2953,6.3051,6.3194,6.3336,6.3465,6.3602,6.3602,6.3602,6.3602,6.3602,6.3602,6.3602,6.3602,6.3602,6.3602,6.3602,6.3602,6.3602,6.3602,6.3602,6.3713,6.4196,6.4382,6.4493,6.5051,6.5422,6.5645,6.5645,6.6239,6.6871,6.6871,6.7243,6.7651,6.7651,6.7651,6.7858,6.8639,6.7958,6.7452,6.8252,6.8859,6.9244,6.9244,6.9667,7.0014,7.0014,7.0014,7.0014,7.0014,6.9552,6.9244,6.9244,6.8796,6.8732,6.9345,6.9432,6.971,7.0341,7.038,7.038,7.0402,7.0402,7.0402,7.0402,7.0402,7.0131,6.9551,6.9551,6.986,7.0402,7.0402,7.0402,5.0325,5.0765,5.1353,5.3775,5.5611,5.7226,5.8841,6.0456,6.1851,6.2658,6.2805,6.2805,6.2805,6.2805,6.2805,6.2805,6.2805,6.2805,6.2805,6.2805,6.2805,6.2805,6.2805,6.2805,6.2805,6.2805,6.2805,6.2805,6.2805,6.2805,6.2805,6.2805,6.2805,6.2805,6.2805,6.2805,6.2805,6.2805,6.2805,6.2805,6.2953,6.3051,6.3194,6.3336,6.3465,6.3602,6.3602,6.3602,6.3602,6.3602,6.3602,6.3602,6.3602,6.3602,6.3602,6.3602,6.3602,6.3639,6.3936,6.401,6.4159,6.4976,6.5236,6.5348,6.5942,6.6314,6.65,6.65,6.7094,6.7725,6.7725,6.8097,6.8506,6.8506,6.8613,6.8863,6.9548,6.883,6.8288,6.9097,6.9706,7.009,7.009,7.0552,7.0898,7.0898,7.0898,7.0898,7.0898,7.0437,7.009,7.0117,6.9669,6.9629,7.0281,7.0367,7.0645,7.1253,7.1291,7.1291,7.1291,7.1291,7.1291,7.1291,7.1291,7.1021,7.044,7.044,7.0711,7.1291,7.1291,7.1291,0.0,0.0,0.0,5.1279,5.194,5.3225,5.7923,5.9098,5.9869,6.2218,6.2768,6.2805,6.2805,6.2805,6.2805,6.2805,6.2805,6.2805,6.2805,6.2805,6.2805,6.2805,6.2805,6.2805,6.2805,6.2805,6.2805,6.2805,6.2805,6.2805,6.2805,6.2805,6.2805,6.2805,6.2805,6.2805,6.2805,6.2805,6.2805,6.2805,6.2953,6.3051,6.3194,6.3336,6.3465,6.3602,6.3602,6.3602,6.3602,6.3602,6.3602,6.3602,6.3602,6.3602,6.3602,6.3639,6.3639,6.375,6.4568,6.4865,6.4976,6.5868,6.6128,6.6128,6.6165,6.6722,6.7354,6.7354,6.7911,6.8506,6.8506,6.8506,6.8506,6.8506,6.8809,6.9219,6.9625,6.9702,6.9959,7.0748,7.0898,7.0898,7.0898,7.0898,7.0898,7.0898,7.0898,7.0898,7.0898,7.0898,7.0925,7.1005,7.1005,7.1056,7.1201,7.1201,7.1224,7.1291,7.1291,7.1291,7.1291,7.1291,7.1291,7.1291,7.1291,7.1291,7.1291,7.1291,7.1291,7.1291,7.1291,7.1291,4.8306,0.0,0.0,0.0,0.0,0.0,5.3702,5.6712,5.9391,6.0089,6.1594,6.2805,6.2805,6.2805,6.2805,6.2805,6.2805,6.2805,6.2805,6.2805,6.2805,6.2805,6.2805,6.2805,6.2805,6.2805,6.2805,6.2805,6.2805,6.2805,6.2805,6.2805,6.2805,6.2805,6.2805,6.2805,6.2805,6.2805,6.2805,6.2805,6.2953,6.3051,6.3194,6.3336,6.3465,6.3602,6.3602,6.3602,6.3602,6.3602,6.3602,6.3602,6.3602,6.3602,6.3676,6.427,6.4493,6.4605,6.5459,6.5756,6.5905,6.6722,6.6982,6.7094,6.7688,6.7986,6.8171,6.8171,6.8357,6.8506,6.8506,6.8506,6.8506,6.8506,6.8809,6.9219,6.9625,6.9923,7.0304,7.0777,7.0898,7.0898,7.0898,7.0898,7.0898,7.0898,7.0898,7.0898,7.0898,7.0898,7.0925,7.1005,7.1056,7.1106,7.1201,7.1247,7.1269,7.1291,7.1291,7.1291,7.1291,7.1291,7.1291,7.1291,7.1291,7.1291,7.1291,7.1291,7.1291,7.1291,7.1291,7.1291,0.0,0.0,0.0,4.8306,0.0,0.0,5.3041,5.5684,5.829,6.0309,6.1851,6.2805,6.2805,6.2805,6.2805,6.2805,6.2805,6.2805,6.2805,6.2805,6.2805,6.2805,6.2805,6.2805,6.2805,6.2805,6.2805,6.2805,6.2805,6.2805,6.2805,6.2805,6.2805,6.2805,6.2805,6.2805,6.2805,6.2805,6.2805,6.2805,6.2855,6.3002,6.3194,6.3242,6.3419,6.3602,6.3602,6.3788,6.4122,6.4122,6.3899,6.3639,6.3973,6.4122,6.4196,6.5051,6.5348,6.5459,6.6314,6.6611,6.6722,6.754,6.78,6.7911,6.8357,6.8506,6.8506,6.8506,6.8506,6.8506,6.8506,6.8506,6.8506,6.8506,6.8908,6.9388,6.9664,7.0133,7.0622,7.0871,7.0898,7.0898,7.0898,7.0898,7.0898,7.0898,7.0898,7.0898,7.0898,7.0898,7.0925,7.103,7.1081,7.113,7.1247,7.1269,7.1291,7.1291,7.1291,7.1291,7.1291,7.1291,7.1291,7.1291,7.1291,7.1291,7.1291,7.1291,7.1291,7.1291,7.1291,7.1291,0.0,0.0,0.0,0.0,4.8306,0.0,5.3775,5.4987,5.6418,6.0713,6.1814,6.1998,6.1998,6.1998,6.1998,6.1998,6.2254,6.2511,6.2768,6.2805,6.2805,6.2805,6.2805,6.2805,6.2805,6.2805,6.2805,6.2805,6.2805,6.2805,6.2805,6.2805,6.2805,6.2805,6.2805,6.2805,6.2805,6.2805,6.2805,6.2805,6.2805,6.2904,6.3147,6.3305,6.3484,6.3705,6.3862,6.4308,6.4939,6.4939,6.4531,6.3973,6.4679,6.4939,6.5051,6.5905,6.6239,6.6351,6.7168,6.7428,6.7577,6.8283,6.8506,6.8506,6.8506,6.8506,6.8506,6.8506,6.8506,6.8506,6.8506,6.8506,6.8506,6.8506,6.9091,6.9702,6.9702,7.0337,7.0898,7.0898,7.0898,7.0898,7.0898,7.0898,7.0898,7.0898,7.0898,7.0898,7.0898,7.0898,7.0952,7.1081,7.1106,7.1154,7.1269,7.1291,7.1291,7.1291,7.1291,7.1291,7.1291,7.1291,7.1291,7.1291,7.1291,7.1291,7.1291,7.1291,7.1291,7.1291,7.1291,7.1291,0.0,0.0,0.0,0.0,4.8306,0.0,4.9517,5.1279,5.2968,5.3922,5.5647,5.7005,5.7005,5.7005,5.7005,5.7005,5.8621,6.0603,6.2548,6.2805,6.2805,6.2805,6.2805,6.2805,6.2805,6.2805,6.2805,6.2805,6.2805,6.2805,6.2805,6.2805,6.2805,6.2805,6.2805,6.2805,6.2805,6.2805,6.2805,6.2805,6.2805,6.2855,6.3051,6.3811,6.4251,6.4466,6.5264,6.5719,6.5868,6.5868,6.5756,6.5645,6.5794,6.5868,6.5942,6.676,6.7094,6.7205,6.7986,6.8283,6.832,6.8468,6.8506,6.8506,6.8506,6.8506,6.8506,6.8506,6.8506,6.8506,6.8506,6.8506,6.8506,6.8506,6.9091,6.9702,6.9702,7.0337,7.0898,7.0898,7.0898,7.0898,7.0898,7.0898,7.0898,7.0898,7.0898,7.0898,7.0898,7.0898,7.0925,7.1005,7.1081,7.113,7.1224,7.1269,7.1291,7.1291,7.1291,7.1291,7.1291,7.1291,7.1291,7.1291,7.1291,7.1291,7.1291,7.1291,7.1291,7.1291,7.1291,7.1291,0.0,0.0,0.0,4.8306,4.8306,0.0,0.0,5.1096,5.2344,5.3555,5.4766,5.5574,5.5574,5.5574,5.5574,5.5574,5.7629,5.9208,5.9208,6.13,6.2805,6.2805,6.2805,6.2805,6.2805,6.2805,6.2805,6.2805,6.2805,6.2805,6.2805,6.2805,6.2805,6.2805,6.2805,6.2805,6.2805,6.2805,6.3025,6.3466,6.3466,6.37,6.4254,6.4808,6.509,6.5234,6.5858,6.6351,6.6722,6.6722,6.6945,6.728,6.6871,6.6722,6.6797,6.7614,6.7911,6.7986,6.8357,6.8506,6.8506,6.8506,6.8506,6.8506,6.8506,6.8506,6.8506,6.8506,6.8506,6.8506,6.8506,6.8506,6.8554,6.8763,6.9261,6.974,6.9959,7.0463,7.0898,7.0898,7.0898,7.0898,7.0898,7.0898,7.0898,7.0898,7.0898,7.0898,7.0898,7.0898,7.0925,7.1005,7.103,7.1081,7.1154,7.1224,7.1247,7.1247,7.1269,7.1291,7.1291,7.1291,7.1291,7.1291,7.1291,7.1291,7.1291,7.1291,7.1291,7.1291,7.1291,7.1291,0.0,0.0,0.0,0.0,4.8306,4.882,0.0,0.0,0.0,5.3775,5.4179,5.4179,5.4179,5.4179,5.4142,5.3995,5.6124,5.7079,5.495,5.8547,6.141,6.141,6.2254,6.2622,6.2181,6.2108,6.2328,6.2768,6.2365,6.2328,6.2805,6.2805,6.2805,6.2805,6.2805,6.2879,6.3062,6.3062,6.3503,6.431,6.4361,6.4779,6.5506,6.5804,6.5989,6.6086,6.6415,6.6945,6.754,6.754,6.7911,6.8468,6.78,6.754,6.7614,6.8283,6.8506,6.8506,6.8506,6.8506,6.8506,6.8506,6.8506,6.8506,6.8506,6.8506,6.8506,6.8506,6.8506,6.8506,6.8506,6.8506,6.8565,6.8997,6.9388,6.9814,7.02,7.0622,7.0898,7.0898,7.0898,7.0898,7.0898,7.0898,7.0898,7.0898,7.0898,7.0898,7.0898,7.0898,7.0925,7.0979,7.1005,7.103,7.1081,7.1154,7.1201,7.1201,7.1269,7.1291,7.1291,7.1291,7.1291,7.1291,7.1291,7.1291,7.1291,7.1291,7.1291,7.1291,7.1291,7.1291,0.0,0.0,4.8306,4.8306,4.8306,4.8379,4.8673,0.0,4.882,4.9077,0.0,4.915,4.915,0.0,0.0,4.8196,5.0729,5.2454,5.1463,5.4252,5.6418,5.6418,6.0199,6.1961,5.9832,5.9612,6.0529,6.2658,6.0823,6.0566,6.2695,6.2805,6.2805,6.2805,6.2805,6.3172,6.3943,6.3943,6.4347,6.5191,6.5257,6.5432,6.5506,6.6494,6.6938,6.6975,6.7863,6.8283,6.8357,6.8357,6.8431,6.8506,6.8431,6.8357,6.8394,6.8468,6.8506,6.8506,6.8506,6.8506,6.8506,6.8506,6.8506,6.8506,6.8506,6.8506,6.8506,6.8506,6.8506,6.8506,6.8506,6.8506,6.8565,6.8997,6.9388,6.9814,7.02,7.0622,7.0898,7.0898,7.0898,7.0898,7.0898,7.0898,7.0898,7.0898,7.0898,7.0898,7.0898,7.0898,7.0898,7.0898,7.0979,7.1005,7.1005,7.113,7.1201,7.1201,7.1269,7.1291,7.1291,7.1291,7.1291,7.1291,7.1291,7.1291,7.1291,7.1291,7.1291,7.1291,7.1291,7.1291,4.8826,4.9135,5.0105,4.8673,4.937,5.0068,4.8636,4.8306,4.8306,4.8306,0.0,0.0,0.0,0.0,0.0,0.0,5.0178,5.1389,4.9591,5.2968,5.5574,5.5574,5.7373,5.8767,5.9171,6.0493,6.1741,6.2732,6.1887,6.1741,6.2768,6.2805,6.3025,6.3539,6.3539,6.3943,6.4787,6.489,6.5294,6.6103,6.6257,6.6529,6.7059,6.7543,6.779,6.7827,6.8308,6.8506,6.8506,6.8506,6.8506,6.8506,6.8506,6.8506,6.8506,6.8506,6.8506,6.8506,6.8506,6.8506,6.8506,6.8506,6.8506,6.8506,6.8506,6.8506,6.8506,6.8506,6.8506,6.8506,6.8506,6.8506,6.866,6.9303,6.9587,6.9887,7.0532,7.0777,7.0898,7.0898,7.0898,7.0898,7.0898,7.0898,7.0898,7.0898,7.0898,7.0898,7.0898,7.0898,7.0898,7.0898,7.0925,7.0952,7.0952,7.1081,7.1154,7.1154,7.1247,7.1291,7.1291,7.1291,7.1291,7.1291,7.1291,7.1291,7.1291,7.1291,7.1291,7.1291,7.1291,7.1291,4.9653,5.0378,5.1389,4.893,4.9664,5.0508,4.871,4.8306,4.8306,4.8306,4.8306,0.0,0.0,0.0,4.8233,4.8012,0.0,5.0288,4.8269,5.1206,5.3592,5.3592,5.4179,5.5574,5.7997,5.9795,6.1117,6.1777,6.1814,6.2108,6.2768,6.3025,6.3466,6.4053,6.431,6.4824,6.5632,6.5735,6.6191,6.7016,6.717,6.7566,6.8158,6.8309,6.8358,6.8358,6.8457,6.8506,6.8506,6.8506,6.8506,6.8506,6.8506,6.8506,6.8506,6.8506,6.8506,6.8506,6.8506,6.8506,6.8506,6.8506,6.8506,6.8506,6.8506,6.8506,6.8506,6.8506,6.8506,6.8506,6.8506,6.8506,6.8707,6.9508,6.9702,6.9923,7.0719,7.0898,7.0898,7.0898,7.0898,7.0898,7.0898,7.0898,7.0898,7.0898,7.0898,7.0898,7.0898,7.0898,7.0898,7.0898,7.0898,7.0898,7.0898,7.103,7.1106,7.1154,7.1247,7.1291,7.1291,7.1291,7.1291,7.1291,7.1291,7.1291,7.1291,7.1291,7.1291,7.1291,7.1291,7.1291,5.3151,5.194,5.1389,4.893,4.8379,4.8416,4.8343,4.8306,4.8306,4.8306,4.8306,4.8306,4.8306,4.8306,0.0,0.0,4.7865,0.0,0.0,4.7939,4.8526,4.8526,5.0655,5.3041,5.5464,5.5794,5.6785,5.9171,5.9318,6.0346,6.2695,6.3613,6.4053,6.409,6.4861,6.5668,6.6439,6.6476,6.6948,6.7826,6.7982,6.8121,6.8309,6.8408,6.8506,6.8506,6.8506,6.8506,6.8506,6.8506,6.8506,6.8506,6.8506,6.8506,6.8506,6.8506,6.8506,6.8506,6.8506,6.8506,6.8506,6.8506,6.8506,6.8506,6.8506,6.8506,6.8506,6.8506,6.8506,6.8506,6.8506,6.8506,6.8707,6.9508,6.9702,6.9923,7.0719,7.0898,7.0898,7.0898,7.0898,7.0898,7.0898,7.0898,7.0898,7.0898,7.0898,7.0898,7.0898,7.0898,7.0898,7.0898,7.0898,7.0898,7.0898,7.103,7.1154,7.1291,7.1291,7.1291,7.1291,7.1291,7.1291,7.1291,7.1291,7.1291,7.1291,7.1291,7.1291,7.1291,7.1291,7.1291,5.3724,5.4963,5.5794,5.1756,5.194,5.227,4.904,4.8306,4.8306,4.8306,4.8306,4.8306,4.8306,4.8306,0.0,0.0,0.0,4.8196,0.0,4.8122,4.8306,4.8306,5.0472,5.2307,5.3115,5.6124,5.8327,5.9171,6.0676,6.2218,6.3576,6.3943,6.4567,6.5632,6.5962,6.6476,6.7283,6.739,6.7605,6.8018,6.8158,6.8309,6.8408,6.8457,6.8506,6.8506,6.8506,6.8506,6.8506,6.8506,6.8506,6.8506,6.8506,6.8506,6.8506,6.8506,6.8506,6.8506,6.8506,6.8506,6.8506,6.8506,6.8506,6.8506,6.8506,6.8506,6.8506,6.8506,6.8506,6.8506,6.8506,6.8506,6.8707,6.9508,6.9702,6.9923,7.0719,7.0898,7.0898,7.0898,7.0898,7.0898,7.0898,7.0898,7.0898,7.0898,7.0898,7.0898,7.0898,7.0898,7.0898,7.0898,7.0898,7.0898,7.0898,7.103,7.1154,7.1291,7.1291,7.1291,7.1291,7.1291,7.1291,7.1291,7.1291,7.1291,7.1291,7.1291,7.1291,7.1291,7.1291,7.1291,5.6046,5.7486,5.8253,5.4252,5.4436,5.4546,5.0545,4.9627,4.9627,4.9627,4.893,4.882,5.0582,4.9481,0.0,0.0,0.0,4.8306,0.0,4.8306,4.8306,4.8306,4.9701,5.1022,5.1903,5.4803,5.7483,5.9501,6.108,6.2695,6.442,6.4787,6.5411,6.6476,6.6769,6.7173,6.7687,6.7794,6.7952,6.807,6.8208,6.8309,6.8506,6.8506,6.8506,6.8506,6.8506,6.8506,6.8506,6.8506,6.8506,6.8506,6.8506,6.8506,6.8506,6.8506,6.8506,6.8506,6.8506,6.8506,6.8506,6.8506,6.8506,6.8506,6.8506,6.8506,6.8506,6.8506,6.8506,6.8506,6.8506,6.8613,6.8863,6.9548,6.9814,7.0099,7.0748,7.0898,7.0898,7.0898,7.0898,7.0898,7.0898,7.0898,7.0898,7.0898,7.0898,7.0898,7.0898,7.0898,7.0898,7.0898,7.0898,7.0925,7.0979,7.1056,7.1154,7.1291,7.1291,7.1291,7.1291,7.1291,7.1291,7.1291,7.1291,7.1291,7.1291,7.1291,7.1291,7.1291,7.1291,7.1291]},{"header":{"parameterUnit":"m.s-1","parameterCategory":1,"la1":30.6,"la2":29.2853,"lo1":-89.7004,"lo2":-87.6739,"dy":0.0162,"dx":0.0183,"nx":112,"ny":82,"refTime":"2023-03-23T12:00:00:Z","depth":0,"parameterNumber":3,"parameterNumberName":"V-component_of_WINDS"},"data":[0.0,0.0,0.0,0.0,0.0,0.0,0.0,0.0,0.0,0.0,0.0,0.0,0.0,0.0,0.0,0.0,0.0,0.0,0.0,0.0,0.0,0.0,0.0,0.0,0.0,0.0,0.0,0.0,0.0,0.0,0.0,0.0,0.0,0.0,0.0,0.0,0.0,0.0,0.0,0.0,0.0,0.0,0.0,0.0,0.0,0.0,0.0,0.0,0.0,0.0,0.0,0.0,0.0,0.0,0.0,0.0,0.0,0.0,0.0,0.0,0.0,0.0,0.0,0.0,0.0,0.0,0.0,0.0,0.0,0.0,0.0,0.0,0.0,0.0,0.0,0.0,0.0,0.0,0.0,0.0,0.0,0.0,0.0,0.0,0.0,0.0,0.0,0.0,0.0,0.0,0.0,0.0,0.0,-0.2017,-0.6883,-0.5383,-0.5577,-0.8455,0.0,0.0,0.0,0.0,0.0,0.0,0.0,0.0,0.0,0.0,0.0,0.0,0.0,0.0,0.0,0.0,0.0,0.0,0.0,0.0,0.0,0.0,0.0,0.0,0.0,0.0,0.0,0.0,0.0,0.0,0.0,0.0,0.0,0.0,0.0,0.0,0.0,0.0,0.0,0.0,0.0,0.0,0.0,0.0,0.0,0.0,0.0,0.0,0.0,0.0,0.0,0.0,0.0,0.0,0.0,0.0,0.0,0.0,0.0,0.0,0.0,0.0,0.0,0.0,0.0,0.0,0.0,0.0,0.0,0.0,0.0,0.0,0.0,0.0,0.0,0.0,0.0,0.0,0.0,0.0,0.0,0.0,0.0,0.0,0.0,0.0,0.0,0.0,0.0,0.0,0.0,0.0,0.0,0.0,0.0,0.0,0.0,0.0,0.0,0.0,0.0,0.0,0.0,0.0,0.0,0.0,0.0,-0.0404,-0.1211,-0.3094,-0.5587,-0.8473,0.0,0.0,0.0,0.0,0.0,0.0,0.0,0.0,0.0,0.0,0.0,0.0,0.0,0.0,0.0,0.0,0.0,0.0,0.0,0.0,0.0,0.0,0.0,0.0,0.0,0.0,0.0,0.0,0.0,0.0,0.0,0.0,0.0,0.0,0.0,0.0,0.0,0.0,0.0,0.0,0.0,0.0,0.0,0.0,0.0,0.0,0.0,0.0,0.0,0.0,0.0,0.0,0.0,0.0,0.0,0.0,0.0,0.0,0.0,0.0,0.0,0.0,0.0,0.0,0.0,0.0,0.0,0.0,0.0,0.0,0.0,0.0,0.0,0.0,0.0,0.0,0.0,0.0,0.0,0.0,0.0,0.0,0.0,0.0,0.0,0.0,0.0,0.0,0.0,0.0,0.0,0.0,0.0,0.0,0.0,0.0,0.0,0.0,0.0,0.0,0.0,0.0,0.0,0.0,0.0,0.0,0.0,0.0,0.0,-0.1211,-0.2597,-0.3798,-0.5667,0.0,0.0,0.0,0.0,0.0,0.0,0.0,0.0,0.0,0.0,0.0,0.0,0.0,0.0,0.0,0.0,0.0,0.0,0.0,0.0,0.0,0.0,0.0,0.0,0.0,0.0,0.0,0.0,0.0,0.0,0.0,0.0,0.0,0.0,0.0,0.0,0.0,0.0,0.0,0.0,0.0,0.0,0.0,0.0,0.0,0.0,0.0,0.0,0.0,0.0,0.0,0.0,0.0,0.0,0.0,0.0,0.0,0.0,0.0,0.0,0.0,0.0,0.0,0.0,0.0,0.0,0.0,0.0,0.0,0.0,0.0,0.0,0.0,0.0,0.0,0.0,0.0,0.0,0.0,0.0,0.0,0.0,0.0,0.0,0.0,0.0,0.0,0.0,0.0,0.0,0.0,0.0,0.0,0.0,0.0,0.0,0.0,0.0,0.0,0.0,0.0,0.0,0.0,0.0,0.0,0.0,0.0,0.0,0.0,0.0,0.0,-0.413,0.0,0.0,0.0,0.0,0.0,0.0,0.0,0.0,0.0,0.0,0.0,0.0,0.0,0.0,0.0,0.0,0.0,0.0,0.0,0.0,0.0,0.0,0.0,0.0,0.0,0.0,0.0,0.0,0.0,0.0,0.0,0.0,0.0,0.0,0.0,0.0,0.0,0.0,0.0,0.0,0.0,0.0,0.0,0.0,0.0,0.0,0.0,0.0,0.0,0.0,0.0,0.0,0.0,0.0,0.0,0.0,0.0,0.0,0.0,0.0,0.0,0.0,0.0,0.0,0.0,0.0,0.0,0.0,0.0,0.0,0.0,0.0,0.0,0.0,0.0,0.0,0.0,0.0,0.0,0.0,0.0,0.0,0.0,0.0,0.0,0.0,0.0,0.0,0.0,0.0,0.0,0.0,0.0,0.0,0.0,0.0,0.0,0.0,0.0,0.0,0.0,0.0,0.0,0.0,0.0,0.0,0.0,0.0,0.0,0.0,0.0,-0.0353,0.0,0.0,0.0,0.0,0.0,0.0,0.0,0.0,0.0,0.0,0.0,0.0,0.0,0.0,0.0,0.0,0.0,0.0,0.0,0.0,0.0,0.0,0.0,0.0,0.0,0.0,0.0,0.0,0.0,0.0,0.0,0.0,0.0,0.0,0.0,0.0,0.0,0.0,0.0,0.0,0.0,0.0,0.0,0.0,0.0,0.0,0.0,0.0,0.0,0.0,0.0,0.0,0.0,0.0,0.0,0.0,0.0,0.0,0.0,0.0,0.0,0.0,0.0,0.0,0.0,0.0,0.0,0.0,0.0,0.0,0.0,0.0,0.0,0.0,0.0,0.0,0.0,0.0,0.0,0.0,0.0,0.0,0.0,0.0,0.0,0.0,0.0,0.0,0.0,0.0,0.0,0.0,0.0,0.0,0.0,0.0,0.0,0.0,0.0,0.0,0.0,0.0,0.0997,0.0523,0.0,0.0,0.0,0.0,0.0,0.0,0.0,0.0,0.0,0.0,0.0,0.0,0.0,0.0,0.0,0.0,0.0,0.0,0.0,0.0,0.0,0.0,0.0,0.0,0.0,0.0,0.0,0.0,0.0,0.0,0.0,0.0,0.0,0.0,0.0,0.0,0.0,0.0,0.0,0.0,0.0,0.0,0.0,0.0,0.0,0.0,0.0,0.0,0.0,0.0,0.0,0.0,0.0,0.0,0.0,0.0,0.0,0.0,0.0,0.0,0.0,0.0,0.0,0.0,0.0,0.0,0.0,0.0,0.0,0.0,0.0,0.0,0.0,0.0,0.0,0.0,0.0,0.0,0.0,0.0,0.0,0.0,0.0,0.0,0.0,0.0,0.0,0.0,0.0,0.0,0.0,0.0,0.0,0.0,0.0,0.0,0.0,0.0,0.0,0.0,0.0,0.0,0.0,0.0,0.0,0.0,0.0,0.0,0.0,0.2231,0.1742,0.1304,0.0805,0.0539,0.0269,0.0,0.0,0.0,0.0,0.0,0.0,0.0,0.0,0.0,0.0,0.0,0.0,0.0,0.0,0.0,0.0,0.0,0.0,0.0,0.0,0.0,0.0,0.0,0.0,0.0,0.0,0.0,0.0,0.0,0.0,0.0,0.0,0.0,0.0,0.0,0.0,0.0,0.0,0.0,0.0,0.0,0.0,0.0,0.0,0.0,0.0,0.0,0.0,0.0,0.0,0.0,0.0,0.0,0.0,0.0,0.0,0.0,0.0,0.0,0.0,0.0,0.0,0.0,0.0,0.0,0.0,0.0,0.0,0.0,0.0,0.0,0.0,0.0,0.0,0.0,0.0,0.0,0.0,0.0,0.0,0.0,0.0,0.0,0.0,0.0,0.0,0.0,0.0,0.0,0.0,0.0,0.0,0.0,0.0,0.0,0.0,0.0,0.0,0.0,0.0,0.0,0.0,0.0,0.0,0.0,0.0,0.224,0.2171,0.2155,0.2155,0.1481,0.0808,0.0135,0.0,0.0,0.0,0.0,0.0,0.0,0.0,0.0,0.0,0.0,0.0,0.0,0.0,0.0,0.0,0.0,0.0,0.0,0.0,0.0,0.0,0.0,0.0,0.0,0.0,0.0,0.0,0.0,0.0,0.0,0.0,0.0,0.0,0.0,0.0,0.0,0.0,0.0,0.0,0.0,0.0,0.0,0.0,0.0,0.0,0.0,0.0,0.0,0.0,0.0,0.0,0.0,0.0,0.0,0.0,0.0,0.0,0.0,0.0,0.0,0.0,0.0,0.0,0.0,0.0,0.0,0.0,0.0,0.0,0.0,0.0,0.0,0.0,0.0,0.0,0.0,0.0,0.0,0.0,0.0,0.0,0.0,0.0,0.0,0.0,0.0,0.0,0.0,0.0,0.0,0.0,0.0,0.0,0.0,0.0,0.0,0.0,0.0,0.0,0.0,0.0,0.0,0.0,0.0,0.0,0.2003,0.2171,0.2155,0.2155,0.2019,0.175,0.1616,0.0539,0.0,0.0,0.0,0.0,0.0,0.0,0.0,0.0,0.0,0.0,0.0,0.0,0.0,0.0,0.0,0.0,0.0,0.0,0.0,0.0,0.0,0.0,0.0,0.0,0.0,0.0,0.0,0.0,0.0,0.0,0.0,0.0,0.0,0.0,0.0,0.0,0.0,0.0,0.0,0.0,0.0,0.0,0.0,0.0,0.0,0.0,0.0,0.0,0.0,0.0,0.0,0.0,0.0,0.0,0.0,0.0,0.0,0.0,0.0,0.0,0.0,0.0,0.0,0.0,0.0,0.0,0.0,0.0,0.0,0.0,0.0,0.0,0.0,0.0,0.0,0.0,0.0,0.0,0.0,0.0,0.0,0.0,0.0,0.0,0.0,0.0,0.0,0.0,0.0,0.0,0.0,0.0,0.0,0.0,0.0,0.0,0.0,0.0,0.0,0.0,0.0,0.0,0.0,0.0,0.2003,0.2044,0.2155,0.2155,0.2155,0.2155,0.2155,0.1346,0.0654,0.0,0.0,0.0,0.0,0.0,0.0,0.0,0.0,0.0,0.0,0.0,0.0,0.0,0.0,0.0,0.0,0.0,0.0,0.0,0.0,0.0,0.0,0.0,0.0,0.0,0.0,0.0,0.0,0.0,0.0,0.0,0.0,0.0,0.0,0.0,0.0,0.0,0.0,0.0,0.0,0.0,0.0,0.0,0.0,0.0,0.0,0.0,0.0,0.0,0.0,0.0,0.0,0.0,0.0,0.0,0.0,0.0,0.0,0.0,0.0,0.0,0.0,0.0,0.0,0.0,0.0,0.0,0.0,0.0,0.0,0.0,0.0,0.0,0.0,0.0,0.0,0.0,0.0,0.0,0.0,0.0,0.0,0.0,0.0,0.0,0.0,0.0,0.0,0.0,0.0,0.0,0.0,0.0,0.0,0.0,0.0,0.0,0.0,0.0,0.0,0.0,0.0,0.0,0.1885,0.2044,0.2155,0.2155,0.2155,0.2155,0.2155,0.2155,0.1587,0.0253,0.0,0.0,0.0,0.0,0.0,0.0,0.0,0.0,0.0,0.0,0.0,0.0,0.0,0.0,0.0,0.0,0.0,0.0,0.0,0.0,0.0,0.0,0.0,0.0,0.0,0.0,0.0,0.0,0.0,0.0,0.0,0.0,0.0,0.0,0.0,0.0,0.0,0.0,0.0,0.0,0.0,0.0,0.0,0.0,0.0,0.0,0.0,0.0,0.0,0.0,0.0,0.0,0.0,0.0,0.0,0.0,0.0,0.0,0.0,0.0,0.1945,0.1623,0.0,0.0,0.0,0.0,0.0,0.0,0.0,0.0,0.0,0.0,0.0,0.0,0.0,0.0,0.0,0.0,0.0,0.0,0.0,0.0,0.0,0.0,0.0,0.0,0.0,0.0,0.0,0.0,0.0,0.0,0.0,0.0,0.0,0.0,0.0,0.0,0.0,0.0,0.0,0.0,0.1885,0.2044,0.2155,0.2155,0.2155,0.2155,0.2155,0.2155,0.1851,0.0887,0.0376,0.0,0.0,0.0,0.0,0.0,0.0,0.0,0.0,0.0,0.0,0.0,0.0,0.0,0.0,0.0,0.0,0.0,0.0,0.0,0.0,0.0,0.0,0.0,0.0,0.0,0.0,0.0,0.0,0.0,0.0,0.0,0.0,0.0,0.0,0.0,0.0,0.0,0.0,0.0,0.0,0.0,0.0,0.0,0.0,0.0,0.0,0.0,0.0,0.0,0.0,0.0,0.0,0.0,0.0,0.0,0.0,0.0,0.0,0.0,0.2013,0.1954,0.0,0.0,0.0,0.0,0.0,0.0,0.0,0.0,0.0,0.0,0.0,0.0,0.0,0.0,0.0,0.0,0.0,0.0,0.0,0.0,0.0,0.0,0.0,0.0,0.0,0.0,0.0,0.0,0.0,0.0,0.0,0.0,0.0,0.0,0.0,0.0,0.0,0.0,0.0,0.0,0.1885,0.2044,0.2155,0.2155,0.2155,0.2155,0.2155,0.2155,0.2001,0.1697,0.0639,0.0,0.0,0.0,0.0,0.0,0.0,0.0,0.0,0.0,0.0,0.0,0.0,0.0,0.0,0.0,0.0,0.0,0.0,0.0,0.0,0.0,0.0,0.0,0.0,0.0,0.0,0.0,0.0,0.0,0.0,0.0,0.0,0.0,0.0,0.0,0.0,0.0,0.0,0.0,0.0,0.0,0.0,0.0,0.0,0.0,0.0,0.0,0.0,0.0,0.0,0.0,0.0,0.0,0.1925,0.2052,0.2294,0.2294,0.2464,0.28,0.2454,0.221,0.2132,0.1974,0.0,0.0,0.0,0.0,0.0,0.0,0.0,0.0,0.0,0.0,0.0,0.0,0.0,0.0,0.0,0.0,0.0,0.0,0.0,0.0,0.0,0.0,0.1933,0.1933,0.1989,0.2022,0.1948,0.0,0.0,0.0,0.0,0.0,0.0,0.0,0.0,0.0,0.0,0.0,0.1907,0.2053,0.2155,0.2155,0.2155,0.2155,0.2155,0.2155,0.2155,0.2155,0.1042,0.0255,0.0,0.0,0.0,0.0,0.0,0.0,0.0,0.0,0.0,0.0,0.0,0.0,0.0,0.0,0.0,0.0,0.0,0.0,0.0,0.0,0.0,0.0,0.0,0.0,0.0,0.0,0.0,0.0,0.0,0.0,0.0,0.0,0.1868,0.1868,0.0,0.0,0.0,0.0,0.0,0.0,0.0,0.0,0.0,0.0,0.0,0.0,0.0,0.1873,0.1885,0.1962,0.2001,0.2003,0.2082,0.278,0.3965,0.3965,0.4637,0.5716,0.4502,0.0,0.2016,0.1993,0.0,0.0,0.0,0.0,0.0,0.0,0.0,0.0,0.0,0.0,0.0,0.0,0.0,0.0,0.0,0.0,0.0,0.0,0.0,0.0,0.0,0.0,0.2119,0.2119,0.2128,0.2133,0.2121,0.1996,0.1883,0.187,0.1868,0.1839,0.0,0.0,0.0,0.0,0.0,0.0,0.199,0.2091,0.2155,0.2155,0.2155,0.2155,0.2155,0.2155,0.2155,0.2155,0.2009,0.1314,0.0,0.0,0.0,0.0,0.0,0.0,0.0,0.0,0.0,0.0,0.0,0.0,0.0,0.0,0.0,0.0,0.0,0.0,0.0,0.0,0.0,0.0,0.0,0.0,0.0,0.0,0.0,0.0,0.0,0.0,0.0,0.1785,0.1809,0.1809,0.1774,0.173,0.0,0.0,0.0,0.0,0.0,0.0,0.0,0.0,0.0,0.1958,0.196,0.1985,0.2037,0.2851,0.3269,0.3271,0.4126,0.4833,0.5499,0.5499,0.5767,0.6431,0.5767,0.5046,0.4299,0.2675,0.1973,0.1896,0.0,0.0,0.0,0.0,0.1825,0.1839,0.1929,0.196,0.1954,0.1914,0.0,0.0,0.0,0.0,0.0,0.0,0.0,0.1906,0.1996,0.2048,0.2091,0.2143,0.2155,0.2155,0.2155,0.2093,0.2022,0.197,0.1919,0.1857,0.1765,0.2463,0.0,0.0,0.0,0.2958,0.2139,0.2098,0.2155,0.2155,0.2155,0.2155,0.2155,0.2155,0.2155,0.2155,0.2155,0.1602,0.0,0.0,0.0,0.0,0.0,0.0,0.0,0.0,0.0,0.0,0.0,0.0,0.0,0.0,0.0,0.0,0.0,0.0,0.0,0.0,0.0,0.0,0.0,0.0,0.0,0.0,0.0,0.0,0.0,0.0,0.0,0.179,0.181,0.1787,0.1805,0.1783,0.0,0.0,0.0,0.0,0.0,0.0,0.1918,0.1919,0.196,0.205,0.2053,0.2216,0.269,0.3765,0.4434,0.4833,0.59,0.6564,0.6969,0.6969,0.7102,0.7503,0.7102,0.6969,0.6818,0.415,0.2929,0.2513,0.2551,0.2261,0.1888,0.1911,0.1919,0.1933,0.2022,0.2053,0.2049,0.2026,0.2003,0.1977,0.1933,0.0,0.0,0.0,0.0,0.194,0.203,0.2053,0.2071,0.2139,0.2423,0.2692,0.2692,0.3068,0.3157,0.2705,0.2498,0.2526,0.2406,0.3277,0.0,0.2057,0.2895,0.3289,0.2178,0.2113,0.2155,0.2155,0.2155,0.2155,0.2155,0.2019,0.1885,0.1616,0.1616,0.1212,0.0,0.0,0.0,0.0,0.0,0.0,0.0,0.0,0.0,0.0,0.0,0.0,0.0,0.0,0.0,0.0,0.0,0.0,0.0,0.0,0.0,0.0,0.0,0.0,0.0,0.0,0.0,0.0,0.0,0.0,0.0,0.0,0.0,0.1889,0.1954,0.0,0.0,0.0,0.0,0.1879,0.1883,0.1922,0.2007,0.2012,0.2053,0.2144,0.2147,0.2819,0.4166,0.43,0.4967,0.6297,0.6431,0.7102,0.844,0.844,0.9244,1.0452,0.9111,0.844,0.8302,0.6818,0.5353,0.4027,0.4145,0.318,0.1896,0.1981,0.2012,0.2024,0.2116,0.2147,0.2133,0.2046,0.1962,0.1907,0.1988,0.1952,0.0,0.0,0.2012,0.2033,0.2124,0.2147,0.2148,0.2154,0.3228,0.4166,0.4166,0.5202,0.5747,0.4386,0.4147,0.4215,0.4033,0.0,0.3638,0.2256,0.2012,0.2177,0.2136,0.2151,0.2155,0.2155,0.2155,0.2155,0.2155,0.1616,0.0808,0.0135,0.0135,0.0135,0.0,0.0,0.0,0.0,0.0,0.0,0.0,0.0,0.0,0.0,0.0,0.0,0.0,0.0,0.0,0.0,0.0,0.0,0.0,0.0,0.0,0.0,0.0,0.0,0.0,0.0,0.0,0.0,0.0,0.0,0.0,0.0,0.0,0.1896,0.1964,0.0,0.1895,0.1937,0.1971,0.1971,0.2026,0.2072,0.2105,0.2106,0.2121,0.2154,0.3094,0.3765,0.43,0.6172,0.7369,0.7769,0.8706,0.9377,0.9915,0.9915,1.0187,1.0717,1.018,0.9377,0.8573,0.8035,0.6378,0.4204,0.3286,0.2607,0.2063,0.2094,0.2106,0.211,0.2143,0.2155,0.215,0.2117,0.2084,0.2064,0.2097,0.2084,0.2065,0.2097,0.2106,0.2377,0.335,0.3497,0.3497,0.3497,0.4565,0.5101,0.3362,0.4775,0.6189,0.5752,0.4857,0.4232,0.4167,0.5023,0.5454,0.48,0.5668,0.554,0.3756,0.3497,0.3228,0.2289,0.2155,0.2155,0.2155,0.2019,0.1346,0.0135,0.0,0.0,0.0,0.0,0.0,0.0,0.0,0.0,0.0,0.0,0.0,0.0,0.0,0.0,0.0,0.0,0.0,0.0,0.0,0.0,0.0,0.0,0.0,0.0,0.0,0.0,0.0,0.0,0.0,0.0,0.0,0.0,0.0,0.1924,0.1985,0.1896,0.2241,0.2282,0.1939,0.2262,0.2322,0.2064,0.212,0.2155,0.2155,0.2692,0.2959,0.2959,0.43,0.5235,0.577,0.7641,0.8839,0.9377,1.0313,1.0717,1.0717,1.0717,1.0717,1.0717,1.0717,1.018,0.9244,0.8839,0.7507,0.5503,0.3629,0.2558,0.2155,0.2155,0.2155,0.2155,0.2155,0.2155,0.2155,0.2155,0.2155,0.2289,0.2827,0.2959,0.2959,0.3495,0.3629,0.3897,0.4699,0.4967,0.4967,0.4967,0.6034,0.6569,0.4699,0.6168,0.7769,0.7236,0.6292,0.5657,0.5657,0.6448,0.6867,0.6202,0.7173,0.7066,0.5135,0.4528,0.3897,0.2959,0.2423,0.2155,0.2155,0.2127,0.1591,0.0403,0.0133,0.0,0.0,0.0,0.0,0.0,0.0,0.0,0.0,0.0,0.0,0.0,0.0,0.0,0.0,0.0,0.0,0.0,0.0,0.0,0.0,0.0,0.0,0.0,0.0,0.0,0.0,0.0,0.0,0.0,0.0,0.0,0.2139,0.2089,0.199,0.2023,0.2685,0.2912,0.2158,0.2757,0.2959,0.229,0.2155,0.2155,0.2289,0.3497,0.43,0.43,0.5767,0.7102,0.8573,0.8706,0.9377,1.0717,1.0717,1.0717,1.0717,1.0717,1.0717,1.0717,1.0717,1.0717,1.0585,0.9111,0.8573,0.8307,0.5503,0.3497,0.2289,0.2289,0.2289,0.2289,0.2289,0.2289,0.2289,0.2289,0.2289,0.2558,0.3897,0.43,0.4702,0.6034,0.6431,0.6431,0.6431,0.6431,0.6431,0.6431,0.7636,0.8706,0.8573,0.9649,1.0319,0.8839,0.8573,0.8706,0.8573,0.8573,0.806,0.621,0.6264,0.0,0.595,0.4972,0.4297,0.4292,0.3088,0.215,0.215,0.2069,0.18,0.1208,0.0389,0.0,0.0,0.0,0.0,0.0,0.0,0.0,0.0,0.0,0.0,0.0,0.0,0.0,0.0,0.0,0.0,0.0,0.0,0.0,0.0,0.0,0.0,0.0,0.0,0.0,0.0,0.0,0.0,0.0,0.4125,0.3768,0.3596,0.3601,0.3682,0.3641,0.3316,0.308,0.2912,0.2673,0.2423,0.2155,0.2155,0.2692,0.3631,0.4031,0.4833,0.5767,0.7236,0.8174,0.8573,0.9643,1.0319,1.0717,1.0717,1.0717,1.0717,1.0717,1.0717,1.0717,1.0717,1.018,0.9111,0.8706,0.7902,0.6965,0.6168,0.5633,0.5232,0.5232,0.4565,0.3765,0.3765,0.3765,0.3897,0.4964,0.5232,0.5366,0.5767,0.5767,0.59,0.6297,0.6431,0.6698,0.7769,0.8035,0.8035,0.8035,0.9111,0.951,0.7503,0.8972,1.0319,0.8839,0.9377,0.9782,0.8839,0.8573,0.8806,0.9234,0.9444,0.9071,0.7913,0.6655,0.5436,0.4374,0.2953,0.2056,0.2056,0.2161,0.206,0.1746,0.0666,0.0,0.0,0.0,0.0,0.0,0.0,0.0,0.0,0.0,0.0,0.0,0.0,0.0,0.0,0.0,0.0,0.0,0.0,0.0,0.0,0.0,0.0,0.0,0.0,0.0,0.0,0.0,0.0,0.0,0.6281,0.6078,0.6464,0.5159,0.4166,0.39,0.3765,0.3362,0.2827,0.2692,0.2558,0.2155,0.2692,0.3497,0.43,0.5503,0.6435,0.7236,0.8706,0.951,0.951,1.0319,1.0717,1.0717,1.0717,1.0717,1.0717,1.0717,1.0717,1.0717,1.0717,1.018,0.951,0.951,0.8972,0.8035,0.0,0.0,0.0,0.0,0.59,0.5235,0.5235,0.5235,0.5369,0.6168,0.6431,0.6564,0.7102,0.7369,0.7503,0.8035,0.8169,0.844,0.9244,0.951,0.951,0.951,1.0047,1.018,0.8573,0.951,1.0452,0.9643,1.018,0.0,0.9643,0.951,0.972,1.0337,1.0602,1.0386,0.9281,0.8081,0.6771,0.5314,0.3883,0.2721,0.2075,0.2042,0.0,0.0,0.0,0.0262,0.0,0.0,0.0,0.0,0.0,0.0,0.0,0.0,0.0,0.0,0.0,0.0,0.0,0.0,0.0,0.0,0.0,0.0,0.0,0.0,0.0,0.0,0.0,0.0,0.0,0.0,0.0,0.0,0.8992,0.8972,0.951,0.684,0.4702,0.3897,0.43,0.4166,0.2959,0.3362,0.3362,0.2825,0.3897,0.4702,0.4836,0.724,0.0,0.0,0.0,1.0717,1.0717,1.0717,1.0717,1.0717,1.0717,1.0717,1.0717,1.0717,1.0717,1.0717,1.0717,1.0717,1.0717,1.0717,1.0717,1.0452,0.7902,0.6831,0.6836,0.6698,0.6698,0.6698,0.6698,0.0,0.0,0.6831,0.6831,0.7102,0.844,0.8839,0.9111,1.0319,1.0717,1.0717,1.0717,1.0717,1.0717,1.0717,1.0717,1.0717,1.0717,1.0717,1.0717,1.0717,1.0717,1.0717,1.0717,1.0717,1.0582,1.0188,1.0466,1.0575,1.0175,0.9163,0.8158,0.6788,0.5199,0.0,0.254,0.2194,0.2057,0.2148,0.13,0.0509,0.0,0.0,0.0,0.0,0.0,0.0,0.0,0.0,0.0,0.0,0.0,0.0,0.0,0.0,0.0,0.0,0.0,0.0,0.0,0.0,0.0,0.0,0.0,0.0,0.0,0.0,0.0,0.9771,0.9638,0.951,0.9643,0.8978,0.844,0.8046,0.7379,0.6844,0.684,0.6569,0.6164,0.603,0.6297,0.6831,0.7774,0.8307,0.9111,1.0313,1.0585,1.0717,1.0717,1.0717,1.0717,1.0717,1.0717,0.0,1.0717,1.0717,1.0717,1.0717,1.0717,1.0717,1.0717,1.0717,1.0717,1.0585,1.0047,0.9915,0.9782,0.8573,0.8174,0.8174,0.8174,0.8174,0.8307,0.951,0.9915,0.9915,1.0187,1.0319,0.0,1.0585,1.0717,1.0717,1.0717,1.0717,1.0717,1.0717,1.0717,1.0717,1.0717,1.0717,1.0717,1.0717,1.0717,1.0717,1.0717,1.0717,1.069,1.0602,1.0663,1.069,1.0602,0.9462,0.8465,0.8049,0.5732,0.4082,0.3827,0.266,0.2057,0.2148,0.0935,0.0133,0.0,0.0,0.0,0.0,0.0,0.0,0.0,0.0,0.0,0.0,0.0,0.0,0.0,0.0,0.0,0.0,0.0,0.0,0.0,0.0,0.0,0.0,0.0,1.0841,1.1105,0.0,1.0988,1.1359,1.1344,1.124,1.124,1.1108,1.0439,0.8978,0.8312,0.7907,0.7764,0.6965,0.6564,0.6965,0.7102,0.7641,0.8573,0.9244,0.9915,1.0717,1.0717,1.0717,1.0717,1.0717,1.0717,1.0717,1.0717,1.0717,1.0717,1.0717,1.0717,1.0717,1.0717,1.0717,1.0717,1.0717,1.0717,1.0717,1.0717,1.0717,1.0585,0.9915,0.9643,0.9643,0.9643,0.9643,0.9782,1.0452,1.0717,1.0717,1.0717,1.0717,1.0717,1.0717,1.0717,1.0717,1.0717,1.0717,1.0717,1.0717,1.0717,1.0717,1.0717,1.0717,1.0717,1.0717,1.0717,1.0717,1.0717,1.0717,1.0717,1.0717,1.0717,1.0717,1.0717,1.0047,0.9306,0.8587,0.6623,0.5069,0.4293,0.2866,0.1975,0.1614,0.0673,0.0,0.0,0.0,0.0,0.0,0.0,0.0,0.0,0.0,0.0,0.0,0.0,0.0,0.0,0.0,0.0,0.0,0.0,0.0,0.0,1.0477,1.0548,1.1075,1.1185,1.1311,1.1736,1.1815,1.2075,1.2636,1.284,1.284,1.284,1.2576,1.1637,0.9637,0.9238,0.8967,0.8424,0.7498,0.7236,0.7764,0.8041,0.8446,0.8978,1.0047,1.0717,1.0717,1.0717,1.0717,1.0717,1.0717,1.085,1.085,1.085,1.085,1.085,1.085,1.085,1.085,1.085,1.0717,1.0717,1.0717,1.0717,1.0717,1.0717,1.0717,1.0717,1.0717,1.0717,1.0717,1.0717,1.0717,1.0717,1.0717,1.0717,1.0717,1.0717,1.0717,1.0717,1.0717,1.0717,1.0717,1.0717,1.0717,1.0717,1.0717,1.0717,1.0717,1.0717,1.0717,1.0717,1.0717,1.0717,1.0717,1.0717,1.0717,1.0717,1.0717,1.0717,1.0717,1.0717,1.0717,1.0319,0.9111,0.7636,0.6168,0.4434,0.2959,0.1885,0.1346,0.0539,0.0,0.0,0.0,0.0,0.0,0.0,0.0,0.0,0.0,0.0,0.0,0.0,0.0,0.8589,0.9124,1.0171,1.0576,1.0906,1.1269,0.0,1.2073,1.188,1.2419,1.2523,1.2548,1.2604,1.262,1.2636,1.2824,1.284,1.284,1.284,1.2708,1.27,1.2305,1.1776,1.138,1.1372,1.124,1.0975,1.0711,1.0711,1.0717,1.0452,1.0585,1.0717,1.0717,1.0717,1.0717,1.0717,1.0982,1.1115,1.1115,1.1512,1.1644,1.1644,1.1247,1.138,1.1652,1.1247,1.0982,1.0717,1.0717,1.0717,1.0717,1.0717,1.0717,1.0717,1.0717,1.0717,1.0717,1.0717,1.0717,1.0717,1.0717,1.0717,1.0717,1.0717,1.0717,1.0717,1.0717,1.0717,1.0717,1.0717,1.0717,1.0717,1.0717,1.0717,1.0717,1.0717,1.0717,1.0717,1.0717,1.0717,1.0717,1.0717,1.0717,1.0717,1.0717,1.0717,1.0717,1.0717,1.0717,1.0585,1.0452,0.9244,0.7236,0.4568,0.2959,0.2154,0.2019,0.0808,0.0,0.0,0.0,0.0,0.0,0.0,0.0,0.0,0.0,0.0,0.0,0.0,0.0,0.981,1.0168,1.0568,1.0844,1.1214,1.1566,1.2012,1.194,1.1932,1.2726,1.284,1.284,1.284,1.284,1.284,1.284,1.284,1.284,1.284,1.284,1.284,1.284,1.2576,1.2312,1.2048,1.138,1.0975,1.1115,1.085,1.0711,1.0982,1.1247,1.138,1.138,1.138,1.138,1.138,1.1247,1.1247,1.1247,1.1115,1.1115,1.1115,1.0982,1.0982,1.1115,1.0982,1.085,1.0717,1.0717,1.0717,1.0717,1.0717,1.0717,1.0717,1.0717,1.0717,1.0717,1.0717,1.0717,1.0717,1.0717,1.0717,1.0717,1.0717,1.0717,1.0717,1.0717,1.0717,1.0717,1.0717,1.0717,1.0717,1.0717,1.0717,1.0717,1.0717,1.0717,1.0717,1.0717,1.0717,1.0717,1.0717,1.0717,1.0717,1.0717,1.0717,1.0717,1.0717,1.0717,1.0452,0.951,0.8978,0.7374,0.4568,0.3765,0.3094,0.229,0.1212,0.0404,0.0,0.0,0.0,0.0,0.0,0.0,0.0,0.0,0.0,0.0,0.0,0.0,1.0377,1.0707,1.0887,1.1164,1.1643,1.1878,1.1878,1.1878,1.2115,1.2628,1.284,1.284,1.284,1.284,1.284,1.284,1.284,1.284,1.284,1.284,1.284,1.284,1.2708,1.2576,1.2312,1.1372,1.0843,1.1115,1.0843,1.0843,1.1115,1.1512,1.1644,1.1512,1.1519,1.1512,1.1644,1.1512,1.138,1.1512,1.138,1.1247,1.1247,1.1247,1.1115,1.0982,1.1115,1.1115,1.0982,1.085,1.085,1.085,1.0717,1.0717,1.0717,1.0717,1.0717,1.0717,1.0717,1.0717,1.0717,1.0717,1.0717,1.0717,1.0717,1.0717,1.0717,1.0717,1.0717,1.0717,1.0717,1.0717,1.0717,1.0717,1.0717,1.0717,1.0717,1.0717,1.0717,1.0717,1.0717,1.0717,1.0717,1.0717,1.0717,1.0717,1.0717,1.0717,1.0717,1.0717,1.0319,0.9244,0.8839,0.7774,0.5637,0.4702,0.3763,0.2287,0.175,0.0943,0.0,0.0,0.0,0.0,0.0,0.0,0.0,0.0,0.0,0.0,0.0,0.0,0.9473,1.0174,1.0887,1.1409,1.2171,1.2816,1.2816,1.2816,1.2816,1.2832,1.284,1.284,1.284,1.284,1.284,1.284,1.284,1.284,1.284,1.284,1.284,1.284,1.2576,1.2312,1.2305,1.2312,1.1909,1.1247,1.1512,1.1644,1.1247,1.1247,1.1115,1.0717,1.0717,1.085,1.1247,1.1644,1.1909,1.2312,1.2568,1.2708,1.2708,1.2708,1.2437,1.1776,1.2048,1.2048,1.1776,1.138,1.1115,1.1115,1.085,1.0717,1.0717,1.0717,1.0717,1.0717,1.0717,1.0717,1.0717,1.0717,1.0717,1.0717,1.0717,1.0717,1.0717,1.0717,1.0717,1.0717,1.0717,1.0717,1.0717,1.0717,1.0717,1.0717,1.0717,1.0717,1.0717,1.0717,1.0717,1.0717,1.0717,1.0717,1.0717,1.0717,1.0717,1.0717,1.0717,1.0717,1.0717,1.0585,0.9377,0.8573,0.844,0.5904,0.3761,0.2283,0.2153,0.1481,0.0,0.0,0.0,0.0,0.0,0.0,0.0,0.0,0.0,0.0,0.0,0.0,1.0477,1.1113,1.1768,1.2306,1.2572,1.284,1.284,1.284,1.284,1.284,1.2556,1.2304,1.2304,1.2304,1.2304,1.2304,1.2605,1.284,1.284,1.284,1.284,1.284,1.2708,1.2444,1.2048,1.1916,1.1776,1.1247,1.1512,1.1776,1.1644,1.1776,1.2041,1.2041,1.2041,1.2173,1.2305,1.2173,1.2173,1.2305,1.2173,1.2173,1.2173,1.2173,1.2048,1.1784,1.1916,1.1909,1.1776,1.1644,1.1644,1.1644,1.1512,1.138,1.138,1.138,1.138,1.138,1.085,1.0717,1.0717,1.0982,1.0982,1.0982,1.0982,1.0982,1.0982,1.0717,1.0717,1.0717,1.0717,1.0717,1.0717,1.0982,1.1637,1.2157,1.2676,1.3333,1.3849,1.4101,1.4101,1.4101,1.4101,1.3979,1.3464,1.2289,1.1247,1.0717,1.0717,1.0717,1.0717,1.0717,1.0319,0.9643,0.8706,0.7774,0.6168,0.3761,0.2687,0.1748,0.0808,0.0269,0.0,0.0,0.0,0.0,0.0,0.0,0.0,0.0,0.0,0.0,1.1313,1.176,1.2158,1.2702,1.284,1.284,1.284,1.284,1.284,1.284,1.2402,1.2028,1.2028,1.2028,1.1963,1.1776,1.2199,1.2548,1.2548,1.2548,1.2621,1.2816,1.284,1.2568,1.2041,1.2041,1.1776,1.1247,1.1512,1.1776,1.1776,1.2041,1.218,1.2437,1.2437,1.2444,1.2576,1.2444,1.2312,1.2437,1.2312,1.218,1.218,1.218,1.218,1.218,1.218,1.218,1.2173,1.2041,1.2041,1.1916,1.1909,1.1644,1.1644,1.1644,1.1512,1.138,1.1122,1.1115,1.1115,1.1115,1.1247,1.1115,1.1115,1.0982,1.0982,1.0717,1.0717,1.0717,1.0717,1.1108,1.163,1.1894,1.2939,1.3979,1.4493,1.5144,1.5664,1.5913,1.5913,1.5913,1.5794,1.5024,1.4119,1.2947,1.1637,1.0717,1.0717,1.0717,1.0717,1.0717,1.0717,1.0319,0.9377,0.8839,0.7636,0.5235,0.3222,0.1881,0.1077,0.0404,0.0,0.0,0.0,0.0,0.0,0.0,0.0,0.0,0.0,0.0,1.1631,1.2052,1.219,1.271,1.284,1.284,1.284,1.284,1.2832,1.28,1.2361,1.1979,1.1955,1.1971,1.1817,1.1305,1.1703,1.2069,1.2069,1.2069,1.2264,1.2775,1.2832,1.27,1.2312,1.2312,1.2041,1.1247,1.1512,1.1784,1.1784,1.1776,1.1776,1.1909,1.1909,1.2041,1.2312,1.2305,1.2437,1.284,1.284,1.284,1.284,1.284,1.284,1.284,1.284,1.284,1.2832,1.2444,1.2305,1.2305,1.2041,1.1644,1.1247,1.1247,1.1115,1.085,1.1644,1.1784,1.1652,1.138,1.1247,1.1115,1.085,1.0717,1.0717,1.085,1.085,1.085,1.0982,1.215,1.3456,1.3456,1.4754,1.6043,1.6043,1.6043,1.6172,1.6172,1.6172,1.6053,1.5674,1.4119,1.2947,1.2947,1.1637,1.0717,1.0717,1.0717,1.0717,1.0717,1.0717,1.0717,1.0717,0.951,0.8041,0.6564,0.3887,0.2016,0.1211,0.0404,0.0,0.0,0.0,0.0,0.0,0.0,0.0,0.0,0.0,0.0,1.1955,1.2328,1.2661,1.28,1.284,1.284,1.284,1.284,1.2718,1.232,1.1801,1.1305,1.0915,1.1159,1.1386,1.1248,1.2012,1.2629,1.2629,1.2629,1.2686,1.2816,0.0,1.2305,1.1916,1.1909,1.1776,1.1247,1.1512,1.1916,1.218,1.218,1.2305,1.2568,1.2576,1.2568,1.2708,1.2708,1.2708,1.284,1.284,1.284,1.284,1.284,1.284,1.284,1.284,1.284,1.284,1.2708,1.2708,1.2708,1.2568,1.2437,1.2437,1.2437,1.2305,1.2305,1.2437,1.2041,1.138,1.1512,1.1652,1.1644,1.1776,1.1512,1.138,1.2676,1.2808,1.2931,1.4232,1.4874,1.5265,1.5534,1.6571,1.7613,1.8127,1.878,1.9431,1.9686,1.9559,1.9304,1.8932,1.6581,1.4633,1.4381,1.2297,1.0717,1.0717,1.0717,1.0717,1.0717,1.0717,1.0717,1.0717,1.0319,0.951,0.8169,0.5626,0.3622,0.2014,0.0672,0.0,0.0,0.0,0.0,0.0,0.0,0.0,0.0,0.0,0.0,1.232,1.2605,1.284,1.284,1.284,1.2775,1.254,1.2483,1.2328,1.1784,1.1248,1.0785,1.0493,1.0867,1.1143,1.0915,1.1784,1.2483,1.2483,1.2483,1.2443,1.2545,1.2568,1.2274,1.168,1.1796,1.1796,1.1534,1.1739,1.1909,1.2305,1.2305,1.2444,1.284,1.284,1.284,1.284,1.284,1.284,1.284,1.284,1.284,1.284,1.284,1.284,1.284,1.284,1.284,1.284,1.284,1.284,1.284,1.284,1.2708,1.2568,1.2568,1.2437,1.2312,1.2312,1.2041,1.1776,1.1909,1.2437,1.2955,1.2947,1.307,1.3456,1.4493,1.4623,1.4623,1.5654,1.6431,1.7087,1.7087,1.8139,1.9304,1.9559,2.0221,2.0729,2.0982,2.0729,2.0361,2.0106,1.7882,1.5804,1.5033,1.3079,1.1372,1.0717,1.0717,1.0717,1.0717,1.0717,1.0717,1.0717,1.0717,1.0047,0.8706,0.7369,0.5225,0.2281,0.1074,0.0269,0.0,0.0,0.0,0.0,0.0,0.0,0.0,0.0,0.0,1.258,1.284,1.284,1.284,1.284,1.2694,1.215,1.2028,1.1857,1.124,1.0753,1.0412,1.0339,1.0761,1.0988,1.0607,1.1378,1.2052,1.2125,1.2134,1.2186,1.2389,1.2568,1.2374,1.1675,1.1782,1.2032,1.2009,1.1896,1.1995,1.2305,1.2312,1.2568,1.3095,1.3095,1.3227,1.3358,1.3227,1.3095,1.3095,1.2832,1.284,1.284,1.284,1.284,1.284,1.284,1.284,1.284,1.284,1.284,1.284,1.284,1.2576,1.2312,1.2312,1.2173,1.1909,1.1909,1.2305,1.27,1.2568,1.3341,1.4381,1.4241,1.5014,1.5913,1.6172,1.6302,1.6172,1.6431,1.7602,1.864,1.8396,1.9444,2.0615,2.0615,2.0602,2.0729,2.0982,2.0602,2.0106,2.0106,1.8407,1.6592,1.5173,1.3735,1.2289,1.085,1.0717,1.0717,1.0717,1.0717,1.0717,1.0717,1.0717,1.018,0.8978,0.8706,0.6965,0.3488,0.2013,0.0806,0.0,0.0,0.0,0.0,0.0,0.0,0.0,0.0,0.0,1.2808,1.284,1.284,1.284,1.284,1.2694,1.215,1.2028,1.1752,1.0769,1.0501,1.0298,0.9851,1.0209,1.068,1.1029,1.1614,1.2182,1.2629,1.2694,1.2735,1.2692,1.2576,1.2242,1.1934,1.1911,1.1985,1.1853,1.2123,1.2395,1.2692,1.2708,1.3227,1.452,1.452,1.5033,1.6203,1.5173,1.452,1.452,1.3358,1.284,1.284,1.284,1.284,1.284,1.284,1.284,1.284,1.284,1.284,1.284,1.284,1.2708,1.2708,1.2708,1.27,1.2568,1.2568,1.3481,1.439,1.4128,1.425,1.4642,1.6063,1.6183,1.6302,1.7999,1.7999,1.7999,1.9431,1.9826,1.9839,2.0094,2.0348,2.0729,2.0982,2.0982,2.0982,2.1109,2.0729,2.0488,2.0106,1.8547,1.685,1.5173,1.3735,1.2289,1.085,1.0717,1.0717,1.0717,1.0717,1.0717,1.0717,1.0717,1.0585,1.0319,0.9244,0.8845,0.9262,0.4559,0.1342,0.0,0.0,0.0,0.0,0.0,0.0,0.0,0.0,0.0,1.284,1.284,1.284,1.284,1.284,1.2621,1.1801,1.1606,1.1305,1.0233,1.0014,0.9933,0.9673,1.0071,1.0517,1.0769,1.15,1.2117,1.2377,1.2661,1.2708,1.2576,1.2576,1.2374,1.2063,1.2098,1.2139,1.2059,1.2089,1.228,1.2548,1.2645,1.3379,1.4903,1.4912,1.5554,1.698,1.6333,1.5944,1.5944,1.5294,1.4651,1.3875,1.3875,1.3481,1.284,1.284,1.284,1.284,1.284,1.284,1.284,1.284,1.284,1.284,1.284,1.3227,1.3875,1.3875,1.4782,1.6073,1.6581,1.684,1.6969,1.7753,1.8256,1.8768,1.9559,1.9559,1.9571,2.0348,2.0488,2.0361,2.0615,2.0602,2.0602,2.0856,2.0982,2.1109,2.1109,2.0856,2.0488,2.0106,1.9328,1.8022,1.6203,1.4772,1.3341,1.2033,1.1115,1.0717,1.0717,1.0717,1.0717,1.0717,1.0717,1.0717,1.0717,1.0047,0.9649,0.9661,0.7512,0.4827,0.1875,0.0672,0.0,0.0,0.0,0.0,0.0,0.0,0.0,1.2808,1.284,1.284,1.284,1.284,1.2556,1.1468,1.1224,1.0915,0.9851,0.9624,0.9624,0.9624,0.9973,1.0298,1.0412,1.1143,1.1889,1.2356,1.2521,1.2702,1.2816,1.2832,1.2636,1.2193,1.2562,1.2708,1.2624,1.2687,1.2802,1.2666,1.2808,1.3731,1.5604,1.5744,1.641,1.7882,1.7625,1.7238,1.698,1.6721,1.5814,1.439,1.439,1.3875,1.284,1.284,1.284,1.284,1.284,1.284,1.284,1.284,1.2964,1.3227,1.3227,1.4137,1.5294,1.5294,1.6203,1.7625,1.8652,1.9036,1.9036,1.9291,2.0195,2.1109,2.0729,2.0615,2.0602,2.0602,2.0615,2.0488,2.0615,2.0602,2.0729,2.0729,2.0856,2.1109,2.1109,2.0856,2.0488,2.0106,1.9584,1.8536,1.685,1.5294,1.3997,1.2553,1.1372,1.0717,1.0717,1.0717,1.0717,1.0717,1.0717,1.0717,1.0717,1.0717,1.018,0.9111,0.9667,0.8323,0.4955,0.2818,0.1209,0.0,0.0,0.0,0.0,0.0,0.0,1.2702,1.284,1.284,1.284,1.284,1.2556,1.1468,1.1224,1.0915,0.9851,0.9624,0.9624,0.9624,0.9665,0.986,1.0355,0.0,1.1363,1.3574,1.2802,1.2783,1.4456,1.3613,1.2767,1.258,1.3687,1.4159,1.3797,1.4661,1.4952,1.401,1.4057,1.5408,1.8172,1.8297,1.9047,2.0716,1.9431,1.8267,1.698,1.5684,1.439,1.2964,1.2964,1.2964,1.284,1.284,1.284,1.284,1.284,1.284,1.284,1.284,1.3613,1.4651,1.4651,1.5554,1.685,1.685,1.7753,1.878,1.8908,1.9036,1.9291,2.0462,2.0982,2.1109,2.1109,2.0856,2.0602,2.0602,2.0361,2.0234,2.0488,2.0856,2.1109,2.1109,2.1109,2.1109,2.1109,2.0856,2.0488,2.0106,1.8804,1.7109,1.5294,1.3866,1.2421,1.1115,1.0717,1.0717,1.0717,1.0717,1.0717,1.0717,1.0717,1.0717,1.0717,1.0717,1.0585,1.0452,1.0206,0.9679,0.8728,0.8076,0.5245,0.0,0.0,0.0,0.0,0.0,0.0,1.2694,1.284,1.284,1.284,1.2596,1.215,1.1395,1.0972,1.0534,0.9786,0.9624,0.9624,0.9624,0.9624,0.9896,1.0712,0.0,0.0,1.3558,1.3966,1.4563,1.5317,1.5317,1.5265,1.5306,1.5681,1.572,1.5422,1.5799,1.6132,1.6409,1.5676,1.6161,1.8273,1.8565,1.9337,2.0842,2.0511,1.9559,1.8267,1.7613,1.6592,1.5294,1.439,1.4006,1.4006,1.3227,1.284,1.284,1.284,1.3358,1.4006,1.4006,1.4912,1.6203,1.6203,1.6969,1.8267,1.8267,1.9164,2.0208,2.0208,2.0208,2.0335,2.0982,2.1109,2.1109,2.0856,2.0729,2.0602,2.0602,2.0602,2.0729,2.0856,2.0856,2.0856,2.0856,2.0602,2.0488,2.0488,2.0361,2.0234,1.9839,1.8547,1.7249,1.6333,1.425,1.2553,1.2033,1.1247,1.0717,1.0717,1.0717,1.0717,1.0717,1.0717,1.0717,1.0717,1.0717,1.0717,1.0717,1.0332,0.9933,0.9534,0.8873,0.7531,0.5238,0.349,0.2551,0.2551,0.2551,0.2551,1.245,1.2718,1.284,1.284,1.2426,1.189,1.1346,1.081,1.0282,0.9738,0.9624,0.9723,1.001,1.0109,1.0404,1.1463,1.1942,1.2625,1.398,1.4665,1.5258,1.5828,1.6043,1.6305,1.6646,1.7014,1.7428,1.763,1.7549,1.78,1.8576,1.7599,1.7525,1.8629,1.8815,1.9496,2.0681,2.0882,2.0245,1.9036,1.9036,1.8267,1.698,1.5944,1.5554,1.5424,1.452,1.4006,1.4006,1.4006,1.4651,1.5554,1.5554,1.6333,1.7625,1.7625,1.8396,1.9686,1.9686,2.0335,2.1109,2.1109,2.1109,2.1109,2.1109,2.1109,2.1109,2.0856,2.0729,2.0729,2.0729,2.0856,2.0982,2.0982,2.0729,2.0488,2.0488,2.0234,2.0106,2.0106,1.9979,1.9839,1.9584,1.8407,1.7109,1.6462,1.4381,1.2684,1.2297,1.1372,1.0717,1.0717,1.0758,1.0772,1.0724,1.0717,1.0717,1.0717,1.0717,1.0717,1.0717,1.0326,1.006,0.9794,0.9128,0.8734,0.8611,0.6581,0.5506,0.5506,0.5506,0.5506,1.189,1.2426,1.284,1.284,1.2426,1.189,1.1346,1.081,1.0282,0.9738,0.9624,0.992,1.0984,1.117,1.1463,1.2533,1.2737,1.338,1.5263,1.4444,1.419,1.6139,1.5208,1.4677,1.5629,1.7472,1.915,2.0544,2.0401,2.0106,2.0227,2.0106,2.0094,1.9813,1.9813,2.008,2.0668,2.0681,2.0177,1.9036,1.9036,1.8267,1.698,1.698,1.698,1.698,1.698,1.698,1.698,1.698,1.698,1.698,1.698,1.7753,1.9036,1.9036,1.9814,2.1109,2.1109,2.1109,2.1109,2.1109,2.1109,2.1109,2.1109,2.1109,2.1109,2.1109,2.1109,2.1109,2.1109,2.0856,2.0615,2.0615,2.0361,2.0106,2.0106,2.0106,2.0106,2.0106,1.9839,1.9571,1.9571,1.815,1.6592,1.5163,1.3735,1.2289,1.085,1.0717,1.0717,1.0717,1.0853,1.0887,1.0731,1.0717,1.0717,1.0717,1.0717,1.0717,1.0717,1.0326,1.0193,1.0193,0.9522,0.8989,0.86,0.8611,0.8622,0.8494,0.8494,0.8494,1.133,1.1606,1.1736,1.1736,1.133,1.0891,1.072,1.0266,1.0029,1.0538,1.069,1.0984,1.2047,1.2242,1.2533,1.3607,1.3811,1.428,1.5511,1.6456,1.7174,1.7772,1.8462,1.9013,1.9399,1.9965,2.0459,2.0975,2.0882,2.0748,2.0548,2.0535,2.0401,2.0107,2.0294,2.0481,2.0681,2.0869,2.0371,1.9036,1.9036,1.878,1.8396,1.7367,1.7496,1.8267,1.7367,1.698,1.698,1.698,1.7496,1.8396,1.8396,1.9164,2.0462,2.0462,2.0716,2.1109,2.1109,2.1109,2.1109,2.1109,2.1109,2.1109,2.1109,2.1109,2.1109,2.1109,2.1109,2.1109,2.0856,2.0729,2.0475,2.0361,1.9966,1.9711,1.9711,1.9584,1.9468,1.9468,1.9328,1.92,1.92,1.8022,1.685,1.6462,1.4381,1.2684,1.2157,1.134,1.0873,1.0873,1.1009,1.1036,1.0887,1.0968,1.1023,1.1023,1.1023,1.1023,1.1023,1.0792,1.0604,1.0328,0.9837,0.9256,0.8989,0.8728,0.8595,0.86,0.86,0.8606,0.0,1.107,1.1224,1.1224,1.0826,1.0543,1.0963,1.0621,1.0493,1.156,1.1755,1.2047,1.3125,1.3318,1.3607,1.4675,1.4867,1.5172,1.6188,1.7288,1.8116,1.845,1.9746,2.0615,2.0615,2.0922,2.1109,2.1109,2.1109,2.1029,2.0855,2.0842,2.0748,2.0575,2.0521,2.0561,2.0681,2.0855,2.0611,1.9814,1.9814,1.9814,1.9814,1.8908,1.9036,1.9814,1.8908,1.8524,0.0,1.8524,1.9036,1.9814,1.9814,2.0335,2.1109,2.1109,2.1109,2.1109,2.1109,2.1109,2.1109,2.1109,2.1109,2.1109,2.1109,2.1109,2.1109,2.1109,2.0982,2.0856,2.0602,2.0348,2.0221,1.9966,1.9711,1.9456,1.9456,1.92,1.9072,1.9072,1.9072,1.9072,1.9072,1.8419,1.7625,1.7109,1.509,1.3443,1.2913,1.1738,1.1029,1.1029,1.1165,1.1212,1.1124,1.1145,1.1165,1.1165,1.1165,1.1165,1.1165,1.1077,1.0886,1.075,1.0206,0.9728,0.9454,0.8879,0.859,0.859,0.859,0.8595,0.0,1.0737,1.111,1.1224,1.0847,1.069,1.1838,0.0,0.0,1.263,1.2823,1.3125,1.4196,1.4388,1.4675,1.5642,1.5832,1.6139,1.7021,1.7261,1.7649,1.849,1.9359,1.9867,1.9813,2.0588,2.1109,2.1109,2.1109,2.1109,2.1109,2.1109,2.1109,2.1109,2.0575,2.0428,2.0708,2.0708,2.0842,2.1109,2.1109,2.1109,2.1109,2.1109,2.1109,2.1109,2.1109,2.1109,2.1109,2.1109,2.1109,2.1109,2.1109,2.1109,2.1109,2.1109,2.1109,2.1109,2.1109,2.1109,2.1109,2.1109,2.1109,2.1109,2.0982,2.1109,2.1109,2.1109,2.0856,2.0615,2.0475,2.0094,1.9571,1.9571,1.9328,1.9072,1.9072,1.9072,1.9072,1.9072,1.9072,1.9072,1.9072,1.9072,1.8688,1.7389,1.6004,1.4672,1.3352,1.2035,1.1179,1.1179,1.1314,1.1409,1.1409,1.1274,1.1192,1.1192,1.1192,1.1192,1.1192,1.1185,1.1179,1.1179,1.0743,1.0257,0.985,0.9046,0.859,0.859,0.859,0.859,1.0762,0.0,1.0203,1.1003,1.1098,1.1297,0.0,0.0,0.0,0.0,0.0,1.4196,1.5248,1.5452,1.5547,1.5737,1.5832,1.6139,1.7021,1.8317,1.9252,1.9466,2.0267,2.0535,1.9867,2.0588,2.1109,2.1109,2.1109,2.1109,2.1109,2.1109,2.1109,2.1109,2.0975,2.0935,2.1002,2.1002,2.1042,2.1109,2.1109,2.1109,2.1109,2.1109,2.1109,2.1109,2.1109,2.1109,2.1109,2.1109,2.1109,2.1109,2.1109,2.1109,2.1109,2.1109,2.1109,2.1109,2.1109,2.1109,2.1109,2.0856,2.0729,2.0602,2.0361,2.0475,2.0729,2.0729,2.0488,2.0106,1.9839,1.9699,1.9584,1.9328,1.92,1.9072,1.9072,1.9072,1.9072,1.9072,1.9072,1.9072,1.9072,1.9072,1.9016,1.8948,1.6765,1.4995,1.4873,1.2889,1.1335,1.1335,1.147,1.1565,1.1565,1.1531,1.1511,1.1511,1.1511,1.1511,1.1511,1.1402,1.1335,1.1335,1.0796,1.0122,0.9443,0.918,0.8851,0.859,0.859,0.859,1.1755,1.1179,1.0592,1.1658,1.1853,1.2145,0.0,0.0,0.0,0.0,0.0,1.5166,1.5737,1.6166,1.6299,1.5899,1.6513,1.7221,1.7702,1.8597,1.9345,1.9746,2.0214,2.0481,2.0401,2.0828,2.1109,2.1109,2.1109,2.1109,2.1109,2.1109,2.1109,2.1109,2.1109,2.1109,2.1109,2.1109,2.1109,2.1109,2.1109,2.1109,2.1109,2.1109,2.1109,2.1109,2.1109,2.1109,2.1109,2.1109,2.1109,2.1109,2.1109,2.1109,2.1109,2.1109,2.1109,2.1109,2.0856,2.0856,2.0856,2.0615,2.0602,2.0488,2.0234,2.0106,2.0221,2.0361,2.0106,1.9839,1.9711,1.9456,1.9328,1.92,1.9072,1.9072,1.9072,1.9072,1.9072,1.9072,1.9169,1.9253,1.9253,1.9362,1.9495,1.9639,1.7861,1.6205,1.564,1.376,1.2335,1.164,1.1572,1.1619,1.1619,1.1619,1.1619,1.1619,1.1619,1.1619,1.1619,1.1538,1.1463,1.1396,1.0948,1.0423,0.9948,0.9402,0.9075,0.8935,0.8745,0.859,1.304,1.2495,1.2122,1.277,1.292,1.3221,0.0,0.0,0.0,0.0,0.0,0.0,1.6005,1.654,1.674,1.6126,1.7422,1.8544,1.8677,1.8811,1.9118,1.9733,1.992,2.0241,2.0855,2.1029,2.1109,2.1109,2.1109,2.1109,2.1109,2.1109,2.1109,2.1109,2.1109,2.1109,2.1109,2.1109,2.1109,2.1109,2.1109,2.1109,2.1109,2.1109,2.1109,2.1109,2.1109,2.1109,2.1109,2.1109,2.1109,2.1109,2.1109,2.1109,2.1109,2.1109,2.1109,2.1109,2.0729,2.0602,2.0488,2.0475,2.0475,2.0348,2.0106,1.9711,1.9584,1.9851,1.9711,1.9571,1.9571,1.9328,1.9072,1.9072,1.9072,1.9084,1.9132,1.9132,1.9145,1.9193,1.9374,1.9531,1.9531,1.9724,1.9905,1.9941,1.888,1.7496,1.6005,1.463,1.3317,1.1763,1.1619,1.1619,1.1619,1.1619,1.1619,1.1619,1.1619,1.1619,1.1619,1.1619,1.1558,1.143,1.112,1.0907,1.0644,0.9811,0.9478,0.9336,0.894,0.8617,1.4554,1.5076,1.5092,1.4217,1.4004,1.4292,0.0,0.0,0.0,0.0,0.0,0.0,0.0,1.6446,1.6233,1.6847,1.7822,1.8744,1.9492,2.0241,2.0481,1.9867,2.0454,2.0668,2.0054,2.0668,2.1109,2.1109,2.1109,2.1109,2.1109,2.1109,2.1109,2.1109,2.1109,2.1109,2.1109,2.1109,2.1109,2.1109,2.1109,2.1109,2.1109,2.1109,2.1109,2.1109,2.1109,2.1109,2.1109,2.1109,2.1109,2.1109,2.1109,2.1109,2.1109,2.1109,2.1109,2.1109,2.0729,2.0361,2.0106,1.9839,1.9699,1.9711,1.9328,1.92,1.92,1.92,1.92,1.92,1.92,1.92,1.9072,1.9072,1.9072,1.9132,1.9362,1.941,1.947,1.9712,1.9796,1.982,1.982,1.9857,1.9965,2.0183,1.8993,1.7548,1.6206,1.4849,1.3317,1.1763,1.1619,1.1619,1.1619,1.1619,1.1619,1.1619,1.1619,1.1619,1.1619,1.1619,1.1606,1.1586,1.1457,1.1241,1.0793,1.0512,1.0028,0.9475,0.9342,0.9013,1.5897,1.619,1.6369,1.6317,1.642,1.6639,0.0,0.0,0.0,0.0,0.0,0.0,0.0,1.7208,1.7716,1.9065,1.8838,1.8798,1.9679,1.9733,1.972,1.9786,2.016,2.0428,2.0508,2.0869,2.1109,2.1109,2.1109,2.1109,2.1109,2.1256,2.1349,2.1349,2.1496,2.159,2.159,2.159,2.1416,2.1109,2.1109,2.1109,2.1109,2.1109,2.1109,2.1109,2.1109,2.1109,2.1109,2.1109,2.1109,2.1109,2.1109,2.0982,2.0856,2.0615,2.0475,2.0348,2.0361,2.0094,1.9839,1.9711,1.9571,1.9584,1.92,1.9072,1.9108,1.9253,1.9181,1.9072,1.9072,1.9181,1.9289,1.9289,1.9398,1.9543,1.9664,1.9688,1.9736,1.9857,2.0002,1.9816,1.8981,1.8959,1.9095,1.9209,1.8655,1.7715,1.6263,1.5566,1.4156,1.19,1.1619,1.1619,1.1619,1.1619,1.1619,1.1619,1.1619,1.1619,1.1619,1.1619,1.1619,1.1619,1.1552,1.1375,1.1233,1.094,1.0448,0.9888,0.9613,0.9142,1.6914,1.7021,1.7288,1.7983,0.0,0.0,0.0,0.0,0.0,0.0,0.0,0.0,1.7462,1.8023,1.8931,2.0281,1.9546,1.9105,1.9987,1.9533,1.9359,2.0027,2.0107,2.0374,2.1042,2.1109,2.1109,2.1109,2.1109,2.1136,2.1203,2.143,2.159,2.1657,2.1871,2.1991,2.1991,2.1991,2.1764,2.1309,2.1309,2.1309,2.1309,2.1309,2.1309,2.1309,2.1243,2.1216,2.1203,2.1136,2.1109,2.1109,2.1109,2.0856,2.0615,2.0234,1.9839,1.9584,1.9839,1.9711,1.9456,1.9456,1.9493,1.9542,1.9297,1.9217,1.9301,1.9507,1.9422,1.9265,1.9265,1.941,1.9567,1.9567,1.9724,1.9905,1.9965,1.9977,2.0002,2.0062,2.0231,2.0078,1.882,1.856,1.8412,1.8412,1.8121,1.7268,1.5707,1.5566,1.4583,1.19,1.1619,1.1619,1.1619,1.1619,1.1619,1.1619,1.1619,1.1619,1.1619,1.1619,1.1619,1.1619,1.1619,1.1619,1.1619,1.1219,1.0883,1.0451,0.9894,0.941,1.7515,1.7929,1.8384,1.8437,1.7635,0.0,0.0,0.0,0.0,0.0,0.0,0.0,0.0,1.845,1.8531,1.8664,1.9252,2.0013,2.0895,2.0962,2.0949,2.1002,2.1015,2.1042,2.1096,2.1109,2.1109,2.1109,2.1109,2.1229,2.151,2.1537,2.167,2.1951,2.1977,2.1991,2.1991,2.1991,2.1964,2.1924,2.1924,2.1924,2.1924,2.1924,2.1924,2.1911,2.1643,2.1523,2.1496,2.1229,2.1109,2.1109,2.1109,2.0856,2.0615,2.0234,1.9839,1.9571,1.9571,1.9456,1.9072,1.9072,1.9241,1.9434,1.9434,1.9627,1.9833,1.9857,1.9845,1.9833,1.9833,1.9845,1.9857,1.9857,1.9869,1.9953,2.0195,2.0243,2.0315,2.0569,2.0629,2.0641,2.0503,1.9379,1.8412,1.8412,1.7127,1.5707,1.4307,1.4022,1.346,1.1763,1.1619,1.1619,1.1619,1.1619,1.1619,1.1619,1.1619,1.1619,1.1619,1.1619,1.1619,1.1619,1.1619,1.1619,1.1619,1.1606,1.1319,1.0881,1.0457,0.9965,1.7582,1.8156,1.8758,1.8758,0.0,0.0,0.0,0.0,0.0,0.0,1.9399,0.0,0.0,1.9386,1.9947,1.9399,2.004,2.0735,2.1056,2.1109,2.1109,2.1109,2.1109,2.1109,2.1109,2.1109,2.1109,2.1109,2.1283,2.143,2.155,2.1897,2.2138,2.2258,2.2432,2.2525,2.2525,2.2525,2.2525,2.2525,2.2164,2.1991,2.1991,2.1991,2.1991,2.1977,2.1871,2.1817,2.1804,2.151,2.1261,2.0978,2.0412,2.0094,1.9966,1.9584,1.9456,1.9328,1.9328,1.9309,1.9326,1.9326,1.9507,1.9724,1.9724,1.9808,1.9917,2.0086,2.0134,2.0086,1.9929,2.0002,2.0134,2.0134,2.0255,2.04,2.0496,2.0521,2.0557,2.0653,2.0665,2.0388,1.9401,1.7981,1.6987,1.6987,1.5717,1.4583,1.4022,1.388,1.3317,1.1763,1.1619,1.1619,1.1619,1.1619,1.1619,1.1619,1.1619,1.1619,1.1619,1.1619,1.1619,1.1619,1.1619,1.1619,1.1619,1.1332,1.1044,1.0743,1.0263,0.981,1.8009,1.845,1.8985,0.0,0.0,0.0,0.0,0.0,0.0,2.0347,2.0347,2.0107,1.9212,2.0027,2.0601,1.9907,2.0535,2.1109,2.1109,2.1109,2.1109,2.1109,2.1109,2.1109,2.1109,2.1109,2.1149,2.1243,2.1443,2.163,2.1817,2.2205,2.2458,2.2552,2.2752,2.2859,2.2859,2.2859,2.2859,2.2859,2.2458,2.2258,2.2258,2.2258,2.2258,2.2258,2.2164,2.2124,2.2098,2.1804,2.15,2.0877,2.004,1.9658,1.9584,1.92,1.9132,1.9205,1.9205,1.9374,1.9603,1.9603,1.9784,2.0014,2.0014,2.0074,2.0171,2.0352,2.04,2.0364,2.0183,2.0267,2.04,2.04,2.0533,2.0665,2.0665,2.0665,2.0665,2.0665,2.0665,2.0388,1.9251,1.7409,1.6131,1.6131,1.4441,1.3174,1.3174,1.3174,1.2753,1.1763,1.1619,1.1619,1.1619,1.1619,1.1619,1.1619,1.1619,1.1619,1.1619,1.1619,1.1619,1.1619,1.1619,1.1476,1.1476,1.1188,1.0894,1.0455,1.0023,0.9735,1.8905,1.8918,1.9145,0.0,0.0,0.0,2.1149,2.0655,2.0307,2.2058,2.1496,2.0588,2.0294,2.0241,2.0147,1.9853,2.0548,2.1109,2.1109,2.1109,2.1109,2.1109,2.1109,2.1109,2.1109,2.1109,2.1229,2.1537,2.155,2.1817,2.2392,2.2418,2.2565,2.2846,2.2859,2.2859,2.2859,2.2859,2.2859,2.2859,2.2859,2.2859,2.2859,2.2859,2.2859,2.2846,2.2552,2.2418,2.2405,2.2111,2.1555,2.0903,2.0266,1.9844,1.9584,1.9212,1.9253,1.947,1.947,1.9652,1.9893,1.9893,2.0074,2.0279,2.0279,2.046,2.0665,2.0665,2.0665,2.0665,2.0665,2.0665,2.0665,2.0665,2.0665,2.0665,2.0665,2.0665,2.0665,2.0665,2.0665,2.0665,2.0665,1.811,1.6131,1.6131,1.3595,1.1619,1.1619,1.1619,1.1619,1.1619,1.1619,1.1619,1.1619,1.1619,1.1619,1.1619,1.1619,1.1619,1.1619,1.1619,1.1619,1.1619,1.1619,1.1332,1.1044,1.1044,1.075,1.0455,1.0023,0.9879,1.7983,1.8891,0.0,1.9399,0.0,0.0,0.0,2.1283,0.0,0.0,2.1657,2.0895,2.0601,2.1042,2.1162,2.0254,2.0842,2.1349,2.1136,2.1109,2.1109,2.1109,2.1109,2.1109,2.1109,2.1296,2.1456,2.155,2.1937,2.2231,2.2405,2.2619,2.2766,2.2859,2.2859,2.2859,2.2859,2.2859,2.2859,2.2859,2.2859,2.2859,2.2859,2.2859,2.2859,2.2859,2.2766,2.2726,2.2712,2.188,2.1194,2.0555,2.0158,1.9844,1.9771,1.9639,1.97,1.976,1.976,1.9941,2.0158,2.0158,2.034,2.0557,2.0557,2.0605,2.0665,2.0665,2.0665,2.0665,2.0665,2.0665,2.0665,2.0665,2.0665,2.0665,2.0665,2.0665,2.0665,2.0665,2.0665,2.0665,2.0665,1.811,1.6131,1.6131,1.3595,1.1619,1.1619,1.1619,1.1619,1.1619,1.1619,1.1619,1.1619,1.1619,1.1619,1.1619,1.1619,1.1619,1.1619,1.1332,1.1188,1.1188,1.0894,1.0743,1.0599,1.0317,1.0167,1.0023,0.9735,0.9446,1.8971,1.9679,0.0,2.0441,2.1029,2.1643,2.1991,0.0,0.0,0.0,2.2178,2.171,2.143,2.1804,2.1884,2.1056,2.1376,2.1617,2.1323,2.1283,2.1243,2.1122,2.1109,2.1109,2.1109,2.1376,2.1603,2.171,2.2151,2.2472,2.2592,2.2766,2.2859,2.2859,2.2859,2.2859,2.2859,2.2859,2.2859,2.2859,2.2859,2.2859,2.2859,2.2859,2.2859,2.2859,2.2722,2.2722,2.2572,2.1718,2.1082,2.0575,2.0172,1.9977,1.9881,1.9881,1.9953,2.0038,2.0038,2.0207,2.0436,2.0436,2.0533,2.0665,2.0665,2.0665,2.0665,2.0665,2.0665,2.0665,2.0665,2.0665,2.0665,2.0665,2.0665,2.0665,2.0665,2.0665,2.0665,2.0665,2.0665,2.0665,2.0665,1.811,1.6131,1.6131,1.3595,1.1619,1.1619,1.1619,1.1619,1.1619,1.1619,1.1619,1.1619,1.1619,1.1619,1.1619,1.1476,1.1332,1.1332,1.1188,1.09,1.075,1.0599,1.0455,1.0311,1.0023,0.9879,0.959,0.9446,0.9302,2.0882,2.0842,2.0735,2.2338,2.2205,2.1884,2.2686,2.2859,2.2859,2.2859,2.2859,2.2779,2.2512,2.2458,2.2365,2.2071,2.2031,2.1924,2.163,2.159,2.1496,2.1229,2.1189,2.1189,2.1189,2.1456,2.1737,2.2004,2.2298,2.2579,2.2846,2.2859,2.2859,2.2859,2.2859,2.2859,2.2859,2.2859,2.2859,2.2859,2.2859,2.2859,2.2859,2.2859,2.2859,2.2859,2.2448,2.231,2.2173,2.1484,2.1071,2.0712,2.0452,2.0171,1.9953,1.9953,2.011,2.0315,2.0315,2.0472,2.0665,2.0665,2.0665,2.0665,2.0665,2.0665,2.0665,2.0665,2.0665,2.0665,2.0665,2.0665,2.0665,2.0665,2.0665,2.0665,2.0665,2.0665,2.0665,2.0665,2.0665,2.0665,2.0527,1.811,1.599,1.5707,1.3317,1.1619,1.1619,1.1619,1.1619,1.1619,1.1619,1.1619,1.1619,1.1619,1.1619,1.1619,1.1188,1.09,1.09,1.09,1.075,1.0455,1.0455,1.0167,0.9879,0.9879,0.959,0.9302,0.9302,0.9302,1.9386,2.0361,2.1363,2.1737,2.2205,2.2632,2.2819,2.2859,2.2859,2.2859,2.2859,2.2846,2.2779,2.2766,2.2672,2.2378,2.2325,2.2218,2.1937,2.1897,2.1871,2.1804,2.179,2.179,2.179,2.2058,2.2258,2.2325,2.2605,2.2792,2.2859,2.2859,2.2859,2.2859,2.2859,2.2859,2.2859,2.2859,2.2859,2.2859,2.2859,2.2859,2.2859,2.2859,2.2722,2.2448,2.231,2.2035,2.1484,2.1207,2.1044,2.0719,2.0581,2.0557,2.0496,2.0496,2.0533,2.0581,2.0581,2.0617,2.0665,2.0665,2.0665,2.0665,2.0665,2.0665,2.0665,2.0665,2.0665,2.0665,2.0665,2.0665,2.0665,2.0665,2.0665,2.0665,2.0665,2.0665,2.0665,2.0665,2.0665,2.0388,1.9111,1.7409,1.5283,1.2888,1.2043,1.1619,1.1619,1.1619,1.1619,1.1619,1.1619,1.1619,1.1619,1.1619,1.1476,1.1188,1.1044,1.075,1.0173,1.0167,1.0167,1.0023,0.9735,0.9446,0.9446,0.9446,0.9446,0.9302,0.9302,0.9302,1.984,2.0548,2.1122,2.1977,2.2525,2.2859,2.2859,2.2859,2.2859,2.2859,2.2859,2.2859,2.2859,2.2859,2.2806,2.2659,2.2632,2.2525,2.2231,2.2191,2.2138,2.2004,2.1991,2.1991,2.1991,2.2245,2.2418,2.2418,2.2699,2.2859,2.2859,2.2859,2.2859,2.2859,2.2859,2.2859,2.2859,2.2859,2.2859,2.2859,2.2859,2.2859,2.2585,2.2585,2.2448,2.231,2.1897,2.1622,2.1207,2.1081,2.0804,2.0665,2.0665,2.0665,2.0665,2.0665,2.0665,2.0665,2.0665,2.0665,2.0665,2.0665,2.0665,2.0665,2.0665,2.0665,2.0665,2.0665,2.0665,2.0665,2.0665,2.0665,2.0665,2.0665,2.0665,2.0665,2.0665,2.0665,2.0665,2.0665,2.0665,2.0249,1.8692,1.6564,1.4298,1.19,1.1619,1.1619,1.1619,1.1619,1.1619,1.1619,1.1619,1.1619,1.1619,1.1619,1.1476,1.1044,1.0894,1.0462,0.9879,0.9735,0.959,0.959,0.9446,0.9302,0.9302,0.9302,0.9302,0.9302,0.9302,0.9302,2.0494,2.0788,2.0842,2.2458,2.2859,2.2859,2.2859,2.2859,2.2859,2.2859,2.2859,2.2859,2.2859,2.2859,2.2859,2.2859,2.2859,2.2779,2.2525,2.2498,2.2405,2.2164,2.2138,2.2138,2.2138,2.2352,2.2498,2.2498,2.2726,2.2859,2.2859,2.2859,2.2859,2.2859,2.2859,2.2859,2.2859,2.2859,2.2859,2.2859,2.2859,2.2722,2.231,2.231,2.2173,2.2035,2.1484,2.1207,2.1069,2.0804,2.0665,2.0665,2.0665,2.0665,2.0665,2.0665,2.0665,2.0665,2.0665,2.0665,2.0665,2.0665,2.0665,2.0665,2.0665,2.0665,2.0665,2.0665,2.0665,2.0665,2.0665,2.0665,2.0665,2.0665,2.0665,2.0665,2.0665,2.0527,2.0249,2.0249,1.982,1.9111,1.784,1.5292,1.3031,1.1763,1.1619,1.1619,1.1619,1.1619,1.1619,1.1619,1.1619,1.1619,1.1619,1.1619,1.1332,1.09,1.0599,1.0311,0.9879,0.9446,0.9302,0.9302,0.9302,0.9302,0.9302,0.9302,0.9302,0.9302,0.9302,0.9302,1.9185,2.0307,2.1617,2.2619,2.2859,2.2859,2.2859,2.2859,2.2859,2.2859,2.2859,2.2859,2.2859,2.2859,2.2859,2.2859,2.2859,2.2846,2.2806,2.2806,2.2792,2.2752,2.2739,2.2739,2.2739,2.2779,2.2806,2.2806,2.2846,2.2859,2.2859,2.2859,2.2859,2.2859,2.2859,2.2859,2.2859,2.2859,2.2859,2.2859,2.2859,2.2722,2.231,2.2035,2.1622,2.1346,2.1207,2.1081,2.0804,2.0665,2.0665,2.0665,2.0665,2.0665,2.0665,2.0665,2.0665,2.0665,2.0665,2.0665,2.0665,2.0665,2.0665,2.0665,2.0665,2.0665,2.0665,2.0665,2.0665,2.0665,2.0665,2.0665,2.0665,2.0665,2.0665,2.0665,2.0665,1.968,1.8692,1.8692,1.6564,1.4725,1.4591,1.3031,1.1907,1.1619,1.1619,1.1619,1.1619,1.1619,1.1619,1.1619,1.1619,1.1619,1.1619,1.1619,1.1325,1.0599,1.0455,1.0167,0.9446,0.9302,0.9302,0.9302,0.9302,0.9302,0.9302,0.9302,0.9302,0.9302,0.9302,0.9302,1.9386,2.0588,2.1764,2.2645,2.2859,2.2859,2.2859,2.2859,2.2859,2.2859,2.2859,2.2859,2.2859,2.2859,2.2859,2.2859,2.2859,2.2859,2.2859,2.2859,2.2859,2.2859,2.2859,2.2859,2.2859,2.2859,2.2859,2.2859,2.2859,2.2859,2.2859,2.2859,2.2859,2.2859,2.2859,2.2859,2.2859,2.2859,2.2859,2.2859,2.2859,2.2585,2.2035,2.1897,2.1622,2.1207,2.0943,2.0804,2.0665,2.0665,2.0665,2.0665,2.0665,2.0665,2.0665,2.0665,2.0665,2.0665,2.0665,2.0665,2.0665,2.0665,2.0665,2.0665,2.0665,2.0665,2.0665,2.0665,2.0774,2.0883,2.0883,2.1003,2.1124,2.1124,2.1124,2.1124,2.1124,1.9735,1.8121,1.7268,1.5381,1.4034,1.4034,1.2823,1.187,1.187,1.187,1.187,1.187,1.1789,1.1735,1.1735,1.1667,1.1509,1.1438,1.1444,1.104,1.0387,1.0387,1.0098,0.9508,0.9508,0.9508,0.9508,0.9372,0.934,0.9405,0.9405,0.9443,0.9508,0.9508,0.9508,1.9479,2.0388,2.1149,2.2258,2.2525,2.2592,2.2806,2.2859,2.2859,2.2859,2.2859,2.2859,2.2859,2.2859,2.2859,2.2859,2.2859,2.2859,2.2859,2.2859,2.2859,2.2859,2.2859,2.2859,2.2859,2.2859,2.2859,2.2859,2.2859,2.2859,2.2859,2.2859,2.2859,2.2859,2.2859,2.2859,2.2859,2.2859,2.2859,2.2859,2.2859,2.2448,2.176,2.1634,2.1484,2.1081,2.0804,2.0665,2.0665,2.0665,2.0665,2.0665,2.0665,2.0665,2.0665,2.0665,2.0665,2.0665,2.0665,2.0665,2.0665,2.0665,2.0665,2.0665,2.0665,2.0714,2.0762,2.0762,2.0955,2.116,2.116,2.1317,2.1474,2.1474,2.1474,2.133,2.0439,1.9129,1.744,1.5435,1.4268,1.3644,1.3644,1.2719,1.206,1.206,1.206,1.206,1.206,1.1959,1.1891,1.1891,1.1796,1.163,1.1289,1.1302,1.0903,1.026,1.0266,1.0116,0.9671,0.9671,0.9671,0.9671,0.9492,0.9443,0.9536,0.9536,0.9579,0.9671,0.9671,0.9671,1.8731,1.9025,1.9466,2.1189,2.1617,2.1844,2.2672,2.2859,2.2859,2.2859,2.2859,2.2859,2.2859,2.2859,2.2859,2.2859,2.2859,2.2859,2.2859,2.2859,2.2859,2.2859,2.2859,2.2859,2.2859,2.2859,2.2859,2.2859,2.2859,2.2859,2.2859,2.2859,2.2859,2.2859,2.2859,2.2859,2.2859,2.2859,2.2859,2.2859,2.2448,2.2173,2.176,2.1346,2.1081,2.0665,2.0665,2.0665,2.0665,2.0665,2.0665,2.0665,2.0665,2.0665,2.0665,2.0665,2.0665,2.0665,2.0665,2.0665,2.0665,2.0665,2.0665,2.0665,2.0665,2.0847,2.104,2.104,2.1245,2.1462,2.1462,2.1474,2.1474,2.1474,2.1474,2.074,1.7643,1.6892,1.5994,1.2918,1.2189,1.2196,1.2196,1.2203,1.206,1.206,1.206,1.206,1.206,1.2054,1.2047,1.2047,1.204,1.1891,1.145,1.145,1.1008,1.0266,1.0266,1.0116,0.9671,0.9671,0.9671,0.9671,0.9655,0.9655,0.9661,0.9661,0.9666,0.9671,0.9671,0.9671,1.8677,1.8918,1.9212,2.0401,2.1136,2.163,2.1951,2.2458,2.2859,2.2859,2.2859,2.2859,2.2859,2.2859,2.2859,2.2859,2.2859,2.2859,2.2859,2.2859,2.2859,2.2859,2.2859,2.2859,2.2859,2.2859,2.2859,2.2859,2.2859,2.2859,2.2859,2.2859,2.2859,2.2859,2.2859,2.2859,2.2859,2.2859,2.2859,2.2859,2.2448,2.2173,2.176,2.1346,2.1081,2.0665,2.0665,2.0665,2.0665,2.0665,2.0665,2.0665,2.0665,2.0665,2.0665,2.0665,2.0665,2.0665,2.0665,2.0665,2.0702,2.0859,2.0919,2.0955,2.1136,2.1257,2.1329,2.1329,2.1523,2.1728,2.1728,2.1848,2.1981,2.1981,2.1981,2.1071,1.7911,1.6944,1.5883,1.265,1.2142,1.221,1.221,1.2284,1.2345,1.2345,1.2345,1.2345,1.2345,1.2264,1.221,1.221,1.1821,1.1502,1.1138,1.0842,1.0574,1.0042,1.0048,1.0048,0.9894,0.9894,0.9894,0.9894,0.9894,0.9856,0.9775,0.9775,0.9818,0.9894,0.9894,0.9894,1.8317,1.8477,1.8691,1.9573,2.0241,2.0828,2.1416,2.2004,2.2512,2.2806,2.2859,2.2859,2.2859,2.2859,2.2859,2.2859,2.2859,2.2859,2.2859,2.2859,2.2859,2.2859,2.2859,2.2859,2.2859,2.2859,2.2859,2.2859,2.2859,2.2859,2.2859,2.2859,2.2859,2.2859,2.2859,2.2859,2.2859,2.2859,2.2859,2.2859,2.2448,2.2173,2.176,2.1346,2.1081,2.0665,2.0665,2.0665,2.0665,2.0665,2.0665,2.0665,2.0665,2.0665,2.0665,2.0665,2.0665,2.0678,2.0774,2.0798,2.0847,2.1112,2.1197,2.1233,2.1426,2.1547,2.1607,2.1607,2.18,2.2005,2.2005,2.2126,2.2259,2.2259,2.1798,2.0725,1.7986,1.7161,1.608,1.2806,1.2291,1.2359,1.2359,1.244,1.2501,1.2501,1.2501,1.2501,1.2501,1.242,1.2359,1.2206,1.1815,1.134,1.0974,1.0673,1.04,1.0014,1.0019,1.0019,1.0019,1.0019,1.0019,1.0019,1.0019,0.9981,0.99,0.99,0.9938,1.0019,1.0019,1.0019,0.0,0.0,0.0,1.8664,1.8905,1.9372,2.1082,2.151,2.179,2.2645,2.2846,2.2859,2.2859,2.2859,2.2859,2.2859,2.2859,2.2859,2.2859,2.2859,2.2859,2.2859,2.2859,2.2859,2.2859,2.2859,2.2859,2.2859,2.2859,2.2859,2.2859,2.2859,2.2859,2.2859,2.2859,2.2859,2.2859,2.2859,2.2859,2.2859,2.2448,2.2173,2.176,2.1346,2.1081,2.0665,2.0665,2.0665,2.0665,2.0665,2.0665,2.0665,2.0665,2.0665,2.0665,2.0678,2.0678,2.0714,2.0979,2.1076,2.1112,2.1402,2.1486,2.1486,2.1498,2.1679,2.1885,2.1885,2.2066,2.2259,2.2259,2.2259,2.2259,2.2259,2.1037,1.9359,1.7683,1.7379,1.6312,1.3112,1.2501,1.2501,1.2501,1.2501,1.2501,1.2501,1.2501,1.2501,1.2501,1.2501,1.2347,1.1882,1.1882,1.1572,1.0641,1.0641,1.0486,1.0019,1.0019,1.0019,1.0019,1.0019,1.0019,1.0019,1.0019,1.0019,1.0019,1.0019,1.0019,1.0019,1.0019,1.0019,1.7582,0.0,0.0,0.0,0.0,0.0,1.9546,2.0641,2.1617,2.1871,2.2418,2.2859,2.2859,2.2859,2.2859,2.2859,2.2859,2.2859,2.2859,2.2859,2.2859,2.2859,2.2859,2.2859,2.2859,2.2859,2.2859,2.2859,2.2859,2.2859,2.2859,2.2859,2.2859,2.2859,2.2859,2.2859,2.2859,2.2859,2.2859,2.2859,2.2448,2.2173,2.176,2.1346,2.1081,2.0665,2.0665,2.0665,2.0665,2.0665,2.0665,2.0665,2.0665,2.0665,2.069,2.0883,2.0955,2.0991,2.1269,2.1366,2.1414,2.1679,2.1764,2.18,2.1993,2.209,2.215,2.215,2.2211,2.2259,2.2259,2.2259,2.2259,2.2259,2.1037,1.9359,1.7683,1.6465,1.4944,1.2958,1.2501,1.2501,1.2501,1.2501,1.2501,1.2501,1.2501,1.2501,1.2501,1.2501,1.2347,1.1882,1.1572,1.1262,1.0641,1.033,1.0175,1.0019,1.0019,1.0019,1.0019,1.0019,1.0019,1.0019,1.0019,1.0019,1.0019,1.0019,1.0019,1.0019,1.0019,1.0019,0.0,0.0,0.0,1.7582,0.0,0.0,1.9305,2.0267,2.1216,2.1951,2.2512,2.2859,2.2859,2.2859,2.2859,2.2859,2.2859,2.2859,2.2859,2.2859,2.2859,2.2859,2.2859,2.2859,2.2859,2.2859,2.2859,2.2859,2.2859,2.2859,2.2859,2.2859,2.2859,2.2859,2.2859,2.2859,2.2859,2.2859,2.2859,2.2859,2.2722,2.231,2.176,2.1622,2.122,2.0665,2.0665,2.0726,2.0834,2.0834,2.0762,2.0678,2.0786,2.0834,2.0859,2.1136,2.1233,2.1269,2.1547,2.1643,2.1679,2.1945,2.2029,2.2066,2.2211,2.2259,2.2259,2.2259,2.2259,2.2259,2.2259,2.2259,2.2259,2.2259,2.0575,1.8592,1.7531,1.5548,1.3568,1.2656,1.2501,1.2501,1.2501,1.2501,1.2501,1.2501,1.2501,1.2501,1.2501,1.2501,1.2347,1.1727,1.1417,1.1107,1.033,1.0175,1.0019,1.0019,1.0019,1.0019,1.0019,1.0019,1.0019,1.0019,1.0019,1.0019,1.0019,1.0019,1.0019,1.0019,1.0019,1.0019,0.0,0.0,0.0,0.0,1.7582,0.0,1.9573,2.0013,2.0535,2.2098,2.2498,2.2565,2.2565,2.2565,2.2565,2.2565,2.2659,2.2752,2.2846,2.2859,2.2859,2.2859,2.2859,2.2859,2.2859,2.2859,2.2859,2.2859,2.2859,2.2859,2.2859,2.2859,2.2859,2.2859,2.2859,2.2859,2.2859,2.2859,2.2859,2.2859,2.2859,2.2585,2.1897,2.1798,2.1395,2.0853,2.075,2.0895,2.11,2.11,2.0967,2.0786,2.1016,2.11,2.1136,2.1414,2.1523,2.1559,2.1824,2.1909,2.1957,2.2186,2.2259,2.2259,2.2259,2.2259,2.2259,2.2259,2.2259,2.2259,2.2259,2.2259,2.2259,2.2259,1.9811,1.7379,1.7379,1.479,1.2501,1.2501,1.2501,1.2501,1.2501,1.2501,1.2501,1.2501,1.2501,1.2501,1.2501,1.2501,1.2192,1.1417,1.1262,1.0952,1.0175,1.0019,1.0019,1.0019,1.0019,1.0019,1.0019,1.0019,1.0019,1.0019,1.0019,1.0019,1.0019,1.0019,1.0019,1.0019,1.0019,1.0019,0.0,0.0,0.0,0.0,1.7582,0.0,1.8023,1.8664,1.9279,1.9626,2.0254,2.0748,2.0748,2.0748,2.0748,2.0748,2.1336,2.2058,2.2766,2.2859,2.2859,2.2859,2.2859,2.2859,2.2859,2.2859,2.2859,2.2859,2.2859,2.2859,2.2859,2.2859,2.2859,2.2859,2.2859,2.2859,2.2859,2.2859,2.2859,2.2859,2.2859,2.2722,2.2173,2.2128,2.181,2.1414,2.1363,2.1354,2.1402,2.1402,2.1366,2.1329,2.1378,2.1402,2.1426,2.1691,2.18,2.1836,2.209,2.2186,2.2198,2.2247,2.2259,2.2259,2.2259,2.2259,2.2259,2.2259,2.2259,2.2259,2.2259,2.2259,2.2259,2.2259,1.9811,1.7379,1.7379,1.479,1.2501,1.2501,1.2501,1.2501,1.2501,1.2501,1.2501,1.2501,1.2501,1.2501,1.2501,1.2501,1.2347,1.1882,1.1417,1.1107,1.0486,1.0175,1.0019,1.0019,1.0019,1.0019,1.0019,1.0019,1.0019,1.0019,1.0019,1.0019,1.0019,1.0019,1.0019,1.0019,1.0019,1.0019,0.0,0.0,0.0,1.7582,1.7582,0.0,0.0,1.8597,1.9052,1.9492,1.9933,2.0227,2.0227,2.0227,2.0227,2.0227,2.0975,2.155,2.155,2.2311,2.2859,2.2859,2.2859,2.2859,2.2859,2.2859,2.2859,2.2859,2.2859,2.2859,2.2859,2.2859,2.2859,2.2859,2.2859,2.2859,2.2859,2.2859,2.2939,2.31,2.31,2.3028,2.2754,2.2473,2.2254,2.1827,2.1558,2.1559,2.1679,2.1679,2.1752,2.186,2.1728,2.1679,2.1704,2.1969,2.2066,2.209,2.2211,2.2259,2.2259,2.2259,2.2259,2.2259,2.2259,2.2259,2.2259,2.2259,2.2259,2.2259,2.2259,2.2259,2.2109,2.1187,1.9208,1.7227,1.6312,1.4176,1.2501,1.2501,1.2501,1.2501,1.2501,1.2501,1.2501,1.2501,1.2501,1.2501,1.2501,1.2501,1.2347,1.1882,1.1727,1.1417,1.0952,1.0486,1.033,1.033,1.0175,1.0019,1.0019,1.0019,1.0019,1.0019,1.0019,1.0019,1.0019,1.0019,1.0019,1.0019,1.0019,1.0019,0.0,0.0,0.0,0.0,1.7582,1.7769,0.0,0.0,0.0,1.9573,1.972,1.972,1.972,1.972,1.9706,1.9653,2.0428,2.0775,2.0,2.1309,2.2352,2.2352,2.2659,2.2792,2.2632,2.2605,2.2686,2.2846,2.2699,2.2686,2.2859,2.2859,2.2859,2.2859,2.2859,2.2886,2.2953,2.2953,2.3113,2.3407,2.3267,2.3258,2.3197,2.2819,2.24,2.2112,2.174,2.1752,2.1945,2.1945,2.2066,2.2247,2.2029,2.1945,2.1969,2.2186,2.2259,2.2259,2.2259,2.2259,2.2259,2.2259,2.2259,2.2259,2.2259,2.2259,2.2259,2.2259,2.2259,2.2259,2.2259,2.2259,2.1948,2.0274,1.8592,1.6922,1.5242,1.3568,1.2501,1.2501,1.2501,1.2501,1.2501,1.2501,1.2501,1.2501,1.2501,1.2501,1.2501,1.2501,1.2347,1.2037,1.1882,1.1727,1.1417,1.0952,1.0641,1.0641,1.0175,1.0019,1.0019,1.0019,1.0019,1.0019,1.0019,1.0019,1.0019,1.0019,1.0019,1.0019,1.0019,1.0019,0.0,0.0,1.7582,1.7582,1.7582,1.7609,1.7716,0.0,1.7769,1.7862,0.0,1.7889,1.7889,0.0,0.0,1.7542,1.8464,1.9092,1.8731,1.9746,2.0535,2.0535,2.1911,2.2552,2.1777,2.1697,2.2031,2.2806,2.2138,2.2044,2.2819,2.2859,2.2859,2.2859,2.2859,2.2993,2.3273,2.3273,2.342,2.3728,2.343,2.3171,2.3197,2.2734,2.2397,2.241,2.2214,2.2186,2.2211,2.2211,2.2235,2.2259,2.2235,2.2211,2.2223,2.2247,2.2259,2.2259,2.2259,2.2259,2.2259,2.2259,2.2259,2.2259,2.2259,2.2259,2.2259,2.2259,2.2259,2.2259,2.2259,2.2259,2.1948,2.0274,1.8592,1.6922,1.5242,1.3568,1.2501,1.2501,1.2501,1.2501,1.2501,1.2501,1.2501,1.2501,1.2501,1.2501,1.2501,1.2501,1.2501,1.2501,1.2037,1.1882,1.1882,1.1107,1.0641,1.0641,1.0175,1.0019,1.0019,1.0019,1.0019,1.0019,1.0019,1.0019,1.0019,1.0019,1.0019,1.0019,1.0019,1.0019,1.8865,1.8493,1.8237,1.7716,1.7969,1.8223,1.7702,1.7582,1.7582,1.7582,0.0,0.0,0.0,0.0,0.0,0.0,1.8263,1.8704,1.805,1.9279,2.0227,2.0227,2.0882,2.139,2.1537,2.2017,2.2472,2.2832,2.2525,2.2472,2.2846,2.2859,2.2939,2.3126,2.3126,2.3273,2.3581,2.3298,2.3443,2.3733,2.33,2.3233,2.3254,2.2928,2.2682,2.2695,2.236,2.2259,2.2259,2.2259,2.2259,2.2259,2.2259,2.2259,2.2259,2.2259,2.2259,2.2259,2.2259,2.2259,2.2259,2.2259,2.2259,2.2259,2.2259,2.2259,2.2259,2.2259,2.2259,2.2259,2.2259,2.2259,2.1648,1.9057,1.7834,1.6617,1.403,1.2958,1.2501,1.2501,1.2501,1.2501,1.2501,1.2501,1.2501,1.2501,1.2501,1.2501,1.2501,1.2501,1.2501,1.2501,1.2347,1.2192,1.2192,1.1417,1.0952,1.0952,1.033,1.0019,1.0019,1.0019,1.0019,1.0019,1.0019,1.0019,1.0019,1.0019,1.0019,1.0019,1.0019,1.0019,1.9434,1.8961,1.8704,1.7809,1.8076,1.8384,1.7729,1.7582,1.7582,1.7582,1.7582,0.0,0.0,0.0,1.7555,1.7475,0.0,1.8303,1.7569,1.8637,1.9506,1.9506,1.972,2.0227,2.1109,2.1764,2.2245,2.2485,2.2498,2.2605,2.2846,2.2939,2.31,2.3313,2.3407,2.3594,2.3888,2.3601,2.3602,2.3732,2.3292,2.31,2.3302,2.2856,2.2707,2.2707,2.2408,2.2259,2.2259,2.2259,2.2259,2.2259,2.2259,2.2259,2.2259,2.2259,2.2259,2.2259,2.2259,2.2259,2.2259,2.2259,2.2259,2.2259,2.2259,2.2259,2.2259,2.2259,2.2259,2.2259,2.2259,2.2259,2.1499,1.8138,1.7379,1.6465,1.3267,1.2501,1.2501,1.2501,1.2501,1.2501,1.2501,1.2501,1.2501,1.2501,1.2501,1.2501,1.2501,1.2501,1.2501,1.2501,1.2501,1.2501,1.2501,1.1727,1.1262,1.0952,1.033,1.0019,1.0019,1.0019,1.0019,1.0019,1.0019,1.0019,1.0019,1.0019,1.0019,1.0019,1.0019,1.0019,1.9345,1.8905,1.8704,1.7809,1.7609,1.7622,1.7595,1.7582,1.7582,1.7582,1.7582,1.7582,1.7582,1.7582,0.0,0.0,1.7422,0.0,0.0,1.7448,1.7662,1.7662,1.8437,1.9305,2.0187,2.0307,2.0668,2.1537,2.159,2.1964,2.2819,2.3153,2.3313,2.3327,2.3607,2.3901,2.4182,2.4195,2.4037,2.4018,2.3574,2.329,2.2856,2.2558,2.2259,2.2259,2.2259,2.2259,2.2259,2.2259,2.2259,2.2259,2.2259,2.2259,2.2259,2.2259,2.2259,2.2259,2.2259,2.2259,2.2259,2.2259,2.2259,2.2259,2.2259,2.2259,2.2259,2.2259,2.2259,2.2259,2.2259,2.2259,2.1499,1.8138,1.7379,1.6465,1.3267,1.2501,1.2501,1.2501,1.2501,1.2501,1.2501,1.2501,1.2501,1.2501,1.2501,1.2501,1.2501,1.2501,1.2501,1.2501,1.2501,1.2501,1.2501,1.1727,1.0952,1.0019,1.0019,1.0019,1.0019,1.0019,1.0019,1.0019,1.0019,1.0019,1.0019,1.0019,1.0019,1.0019,1.0019,1.0019,2.2391,2.1512,2.0307,1.8838,1.8905,1.9025,1.7849,1.7582,1.7582,1.7582,1.7582,1.7582,1.7582,1.7582,0.0,0.0,0.0,1.7542,0.0,1.7515,1.7582,1.7582,1.837,1.9038,1.9332,2.0428,2.1229,2.1537,2.2084,2.2645,2.314,2.3273,2.35,2.3888,2.4008,2.4195,2.4489,2.4195,2.394,2.3587,2.3302,2.2856,2.2558,2.2408,2.2259,2.2259,2.2259,2.2259,2.2259,2.2259,2.2259,2.2259,2.2259,2.2259,2.2259,2.2259,2.2259,2.2259,2.2259,2.2259,2.2259,2.2259,2.2259,2.2259,2.2259,2.2259,2.2259,2.2259,2.2259,2.2259,2.2259,2.2259,2.1499,1.8138,1.7379,1.6465,1.3267,1.2501,1.2501,1.2501,1.2501,1.2501,1.2501,1.2501,1.2501,1.2501,1.2501,1.2501,1.2501,1.2501,1.2501,1.2501,1.2501,1.2501,1.2501,1.1727,1.0952,1.0019,1.0019,1.0019,1.0019,1.0019,1.0019,1.0019,1.0019,1.0019,1.0019,1.0019,1.0019,1.0019,1.0019,1.0019,2.3215,2.2355,2.1203,1.9746,1.9813,1.9853,1.8397,1.8063,1.8063,1.8063,1.7809,1.7769,1.841,1.8009,0.0,0.0,0.0,1.7582,0.0,1.7582,1.7582,1.7582,1.809,1.8571,1.8891,1.9947,2.0922,2.1657,2.2231,2.2819,2.3447,2.3581,2.3808,2.4195,2.4302,2.4449,2.4636,2.4341,2.3896,2.3438,2.3154,2.2856,2.2259,2.2259,2.2259,2.2259,2.2259,2.2259,2.2259,2.2259,2.2259,2.2259,2.2259,2.2259,2.2259,2.2259,2.2259,2.2259,2.2259,2.2259,2.2259,2.2259,2.2259,2.2259,2.2259,2.2259,2.2259,2.2259,2.2259,2.2259,2.2259,2.1798,2.0725,1.7986,1.6922,1.5701,1.3112,1.2501,1.2501,1.2501,1.2501,1.2501,1.2501,1.2501,1.2501,1.2501,1.2501,1.2501,1.2501,1.2501,1.2501,1.2501,1.2501,1.2347,1.2037,1.1572,1.0952,1.0019,1.0019,1.0019,1.0019,1.0019,1.0019,1.0019,1.0019,1.0019,1.0019,1.0019,1.0019,1.0019,1.0019,1.0019]}]]